<?xml version="1.0" encoding="UTF-8" standalone="no" ?>
<gpx xmlns="http://www.topografix.com/GPX/1/1" xmlns:xsi="http://www.w3.org/2001/XMLSchema-instance" xsi:schemaLocation="http://www.topografix.com/GPX/1/1 http://www.topografix.com/GPX/1/1/gpx.xsd" version="1.1" creator="VisuGPX - https://www.visugpx.com">
  <metadata>
    <name>Sortie d'après midi</name>
    <desc><![CDATA[Sortie d'après midi]]></desc>
  </metadata>
  <trk>
    <name><![CDATA[Sortie d'après midi_1]]></name>
    <trkseg>
      <trkpt lat="45.83522" lon="1.22553">
        <ele>270.6</ele>
        <time>2024-11-28T12:54:21Z</time>
      </trkpt>
      <trkpt lat="45.83522" lon="1.22553">
        <ele>270.6</ele>
        <time>2024-11-28T12:54:25Z</time>
      </trkpt>
      <trkpt lat="45.83522" lon="1.22553">
        <ele>270.6</ele>
        <time>2024-11-28T12:54:28Z</time>
      </trkpt>
      <trkpt lat="45.83522" lon="1.22553">
        <ele>270.6</ele>
        <time>2024-11-28T12:54:31Z</time>
      </trkpt>
      <trkpt lat="45.83522" lon="1.22553">
        <ele>270.6</ele>
        <time>2024-11-28T12:54:34Z</time>
      </trkpt>
      <trkpt lat="45.83522" lon="1.22553">
        <ele>270.6</ele>
        <time>2024-11-28T12:54:37Z</time>
      </trkpt>
      <trkpt lat="45.83522" lon="1.22553">
        <ele>270.6</ele>
        <time>2024-11-28T12:54:40Z</time>
      </trkpt>
      <trkpt lat="45.83522" lon="1.22553">
        <ele>270.6</ele>
        <time>2024-11-28T12:54:43Z</time>
      </trkpt>
      <trkpt lat="45.83515" lon="1.22559">
        <ele>270.6</ele>
        <time>2024-11-28T12:54:46Z</time>
      </trkpt>
      <trkpt lat="45.83513" lon="1.22565">
        <ele>270.5</ele>
        <time>2024-11-28T12:54:49Z</time>
      </trkpt>
      <trkpt lat="45.83511" lon="1.22567">
        <ele>270.5</ele>
        <time>2024-11-28T12:54:52Z</time>
      </trkpt>
      <trkpt lat="45.83511" lon="1.22566">
        <ele>270.5</ele>
        <time>2024-11-28T12:54:55Z</time>
      </trkpt>
      <trkpt lat="45.83515" lon="1.22563">
        <ele>270.5</ele>
        <time>2024-11-28T12:54:58Z</time>
      </trkpt>
      <trkpt lat="45.83519" lon="1.22554">
        <ele>270.5</ele>
        <time>2024-11-28T12:55:01Z</time>
      </trkpt>
      <trkpt lat="45.83522" lon="1.22552">
        <ele>270.5</ele>
        <time>2024-11-28T12:55:04Z</time>
      </trkpt>
      <trkpt lat="45.83518" lon="1.22551">
        <ele>270.5</ele>
        <time>2024-11-28T12:55:07Z</time>
      </trkpt>
      <trkpt lat="45.83509" lon="1.22547">
        <ele>270.4</ele>
        <time>2024-11-28T12:55:10Z</time>
      </trkpt>
      <trkpt lat="45.83499" lon="1.22544">
        <ele>270.4</ele>
        <time>2024-11-28T12:55:13Z</time>
      </trkpt>
      <trkpt lat="45.83488" lon="1.22548">
        <ele>270.4</ele>
        <time>2024-11-28T12:55:16Z</time>
      </trkpt>
      <trkpt lat="45.83479" lon="1.22552">
        <ele>270.4</ele>
        <time>2024-11-28T12:55:19Z</time>
      </trkpt>
      <trkpt lat="45.83475" lon="1.22562">
        <ele>270.3</ele>
        <time>2024-11-28T12:55:22Z</time>
      </trkpt>
      <trkpt lat="45.83471" lon="1.22566">
        <ele>270.3</ele>
        <time>2024-11-28T12:55:25Z</time>
      </trkpt>
      <trkpt lat="45.8347" lon="1.22573">
        <ele>270.7</ele>
        <time>2024-11-28T12:55:28Z</time>
      </trkpt>
      <trkpt lat="45.83461" lon="1.22575">
        <ele>271.2</ele>
        <time>2024-11-28T12:55:31Z</time>
      </trkpt>
      <trkpt lat="45.8345" lon="1.22574">
        <ele>271.2</ele>
        <time>2024-11-28T12:55:34Z</time>
      </trkpt>
      <trkpt lat="45.83442" lon="1.22567">
        <ele>271.3</ele>
        <time>2024-11-28T12:55:37Z</time>
      </trkpt>
      <trkpt lat="45.83437" lon="1.22551">
        <ele>271.6</ele>
        <time>2024-11-28T12:55:40Z</time>
      </trkpt>
      <trkpt lat="45.83431" lon="1.22537">
        <ele>271.8</ele>
        <time>2024-11-28T12:55:43Z</time>
      </trkpt>
      <trkpt lat="45.83426" lon="1.22521">
        <ele>272.1</ele>
        <time>2024-11-28T12:55:46Z</time>
      </trkpt>
      <trkpt lat="45.83421" lon="1.22504">
        <ele>272.4</ele>
        <time>2024-11-28T12:55:49Z</time>
      </trkpt>
      <trkpt lat="45.83412" lon="1.22489">
        <ele>272.6</ele>
        <time>2024-11-28T12:55:52Z</time>
      </trkpt>
      <trkpt lat="45.83407" lon="1.22473">
        <ele>272.2</ele>
        <time>2024-11-28T12:55:55Z</time>
      </trkpt>
      <trkpt lat="45.83405" lon="1.22453">
        <ele>271.7</ele>
        <time>2024-11-28T12:55:58Z</time>
      </trkpt>
      <trkpt lat="45.83403" lon="1.22433">
        <ele>271.4</ele>
        <time>2024-11-28T12:56:01Z</time>
      </trkpt>
      <trkpt lat="45.83402" lon="1.22419">
        <ele>271.2</ele>
        <time>2024-11-28T12:56:04Z</time>
      </trkpt>
      <trkpt lat="45.83397" lon="1.22407">
        <ele>271.1</ele>
        <time>2024-11-28T12:56:07Z</time>
      </trkpt>
      <trkpt lat="45.83382" lon="1.22404">
        <ele>270.1</ele>
        <time>2024-11-28T12:56:10Z</time>
      </trkpt>
      <trkpt lat="45.83366" lon="1.224">
        <ele>269.1</ele>
        <time>2024-11-28T12:56:13Z</time>
      </trkpt>
      <trkpt lat="45.83355" lon="1.22389">
        <ele>268.7</ele>
        <time>2024-11-28T12:56:16Z</time>
      </trkpt>
      <trkpt lat="45.83353" lon="1.22365">
        <ele>269</ele>
        <time>2024-11-28T12:56:19Z</time>
      </trkpt>
      <trkpt lat="45.8335" lon="1.22341">
        <ele>269</ele>
        <time>2024-11-28T12:56:22Z</time>
      </trkpt>
      <trkpt lat="45.83349" lon="1.22326">
        <ele>268.9</ele>
        <time>2024-11-28T12:56:25Z</time>
      </trkpt>
      <trkpt lat="45.83347" lon="1.22318">
        <ele>268.7</ele>
        <time>2024-11-28T12:56:28Z</time>
      </trkpt>
      <trkpt lat="45.83343" lon="1.22305">
        <ele>268.3</ele>
        <time>2024-11-28T12:56:31Z</time>
      </trkpt>
      <trkpt lat="45.83338" lon="1.22289">
        <ele>267.9</ele>
        <time>2024-11-28T12:56:34Z</time>
      </trkpt>
      <trkpt lat="45.83333" lon="1.22272">
        <ele>267.3</ele>
        <time>2024-11-28T12:56:37Z</time>
      </trkpt>
      <trkpt lat="45.83324" lon="1.22259">
        <ele>266.4</ele>
        <time>2024-11-28T12:56:40Z</time>
      </trkpt>
      <trkpt lat="45.8332" lon="1.22244">
        <ele>265</ele>
        <time>2024-11-28T12:56:43Z</time>
      </trkpt>
      <trkpt lat="45.8332" lon="1.2223">
        <ele>263.4</ele>
        <time>2024-11-28T12:56:46Z</time>
      </trkpt>
      <trkpt lat="45.83327" lon="1.22222">
        <ele>262.4</ele>
        <time>2024-11-28T12:56:49Z</time>
      </trkpt>
      <trkpt lat="45.83329" lon="1.22216">
        <ele>261.7</ele>
        <time>2024-11-28T12:56:52Z</time>
      </trkpt>
      <trkpt lat="45.83333" lon="1.22199">
        <ele>260.3</ele>
        <time>2024-11-28T12:56:55Z</time>
      </trkpt>
      <trkpt lat="45.83327" lon="1.22185">
        <ele>259.8</ele>
        <time>2024-11-28T12:56:58Z</time>
      </trkpt>
      <trkpt lat="45.83327" lon="1.22173">
        <ele>258.9</ele>
        <time>2024-11-28T12:57:01Z</time>
      </trkpt>
      <trkpt lat="45.83323" lon="1.22155">
        <ele>258.2</ele>
        <time>2024-11-28T12:57:04Z</time>
      </trkpt>
      <trkpt lat="45.83319" lon="1.22133">
        <ele>257.4</ele>
        <time>2024-11-28T12:57:07Z</time>
      </trkpt>
      <trkpt lat="45.83315" lon="1.22115">
        <ele>256.6</ele>
        <time>2024-11-28T12:57:10Z</time>
      </trkpt>
      <trkpt lat="45.83312" lon="1.22095">
        <ele>255.8</ele>
        <time>2024-11-28T12:57:13Z</time>
      </trkpt>
      <trkpt lat="45.8331" lon="1.2207">
        <ele>254.8</ele>
        <time>2024-11-28T12:57:16Z</time>
      </trkpt>
      <trkpt lat="45.83311" lon="1.22047">
        <ele>253.9</ele>
        <time>2024-11-28T12:57:19Z</time>
      </trkpt>
      <trkpt lat="45.83309" lon="1.22023">
        <ele>252.7</ele>
        <time>2024-11-28T12:57:22Z</time>
      </trkpt>
      <trkpt lat="45.83312" lon="1.22002">
        <ele>251.2</ele>
        <time>2024-11-28T12:57:25Z</time>
      </trkpt>
      <trkpt lat="45.83315" lon="1.21989">
        <ele>250.1</ele>
        <time>2024-11-28T12:57:28Z</time>
      </trkpt>
      <trkpt lat="45.83316" lon="1.21974">
        <ele>249.1</ele>
        <time>2024-11-28T12:57:31Z</time>
      </trkpt>
      <trkpt lat="45.83323" lon="1.21957">
        <ele>248.4</ele>
        <time>2024-11-28T12:57:34Z</time>
      </trkpt>
      <trkpt lat="45.83328" lon="1.21934">
        <ele>248.1</ele>
        <time>2024-11-28T12:57:37Z</time>
      </trkpt>
      <trkpt lat="45.83329" lon="1.21914">
        <ele>247.7</ele>
        <time>2024-11-28T12:57:40Z</time>
      </trkpt>
      <trkpt lat="45.83328" lon="1.21897">
        <ele>247.4</ele>
        <time>2024-11-28T12:57:43Z</time>
      </trkpt>
      <trkpt lat="45.83324" lon="1.21882">
        <ele>247.2</ele>
        <time>2024-11-28T12:57:46Z</time>
      </trkpt>
      <trkpt lat="45.83316" lon="1.21871">
        <ele>247</ele>
        <time>2024-11-28T12:57:49Z</time>
      </trkpt>
      <trkpt lat="45.83302" lon="1.2186">
        <ele>246.7</ele>
        <time>2024-11-28T12:57:52Z</time>
      </trkpt>
      <trkpt lat="45.83284" lon="1.21846">
        <ele>246.5</ele>
        <time>2024-11-28T12:57:55Z</time>
      </trkpt>
      <trkpt lat="45.83268" lon="1.21833">
        <ele>246.6</ele>
        <time>2024-11-28T12:57:58Z</time>
      </trkpt>
      <trkpt lat="45.83255" lon="1.21826">
        <ele>246.7</ele>
        <time>2024-11-28T12:58:01Z</time>
      </trkpt>
      <trkpt lat="45.83243" lon="1.21817">
        <ele>246.7</ele>
        <time>2024-11-28T12:58:04Z</time>
      </trkpt>
      <trkpt lat="45.83232" lon="1.21807">
        <ele>246.4</ele>
        <time>2024-11-28T12:58:07Z</time>
      </trkpt>
      <trkpt lat="45.83222" lon="1.21793">
        <ele>246.1</ele>
        <time>2024-11-28T12:58:10Z</time>
      </trkpt>
      <trkpt lat="45.83212" lon="1.21778">
        <ele>245.8</ele>
        <time>2024-11-28T12:58:13Z</time>
      </trkpt>
      <trkpt lat="45.83201" lon="1.21765">
        <ele>245.7</ele>
        <time>2024-11-28T12:58:16Z</time>
      </trkpt>
      <trkpt lat="45.83196" lon="1.2175">
        <ele>245.6</ele>
        <time>2024-11-28T12:58:19Z</time>
      </trkpt>
      <trkpt lat="45.83198" lon="1.21735">
        <ele>245.6</ele>
        <time>2024-11-28T12:58:22Z</time>
      </trkpt>
      <trkpt lat="45.83206" lon="1.2172">
        <ele>245.7</ele>
        <time>2024-11-28T12:58:25Z</time>
      </trkpt>
      <trkpt lat="45.83215" lon="1.21703">
        <ele>245.7</ele>
        <time>2024-11-28T12:58:28Z</time>
      </trkpt>
      <trkpt lat="45.83225" lon="1.21689">
        <ele>245.6</ele>
        <time>2024-11-28T12:58:31Z</time>
      </trkpt>
      <trkpt lat="45.83234" lon="1.21674">
        <ele>245.5</ele>
        <time>2024-11-28T12:58:34Z</time>
      </trkpt>
      <trkpt lat="45.8324" lon="1.21657">
        <ele>245.4</ele>
        <time>2024-11-28T12:58:37Z</time>
      </trkpt>
      <trkpt lat="45.83229" lon="1.21644">
        <ele>245.3</ele>
        <time>2024-11-28T12:58:40Z</time>
      </trkpt>
      <trkpt lat="45.83215" lon="1.21635">
        <ele>245.1</ele>
        <time>2024-11-28T12:58:43Z</time>
      </trkpt>
      <trkpt lat="45.83201" lon="1.2163">
        <ele>245.1</ele>
        <time>2024-11-28T12:58:46Z</time>
      </trkpt>
      <trkpt lat="45.83185" lon="1.21628">
        <ele>245</ele>
        <time>2024-11-28T12:58:49Z</time>
      </trkpt>
      <trkpt lat="45.8317" lon="1.21633">
        <ele>245</ele>
        <time>2024-11-28T12:58:52Z</time>
      </trkpt>
      <trkpt lat="45.83158" lon="1.21644">
        <ele>244.9</ele>
        <time>2024-11-28T12:58:55Z</time>
      </trkpt>
      <trkpt lat="45.83144" lon="1.21649">
        <ele>244.9</ele>
        <time>2024-11-28T12:58:58Z</time>
      </trkpt>
      <trkpt lat="45.83132" lon="1.21645">
        <ele>244.8</ele>
        <time>2024-11-28T12:59:01Z</time>
      </trkpt>
      <trkpt lat="45.83119" lon="1.21636">
        <ele>244.8</ele>
        <time>2024-11-28T12:59:04Z</time>
      </trkpt>
      <trkpt lat="45.83105" lon="1.21629">
        <ele>244.7</ele>
        <time>2024-11-28T12:59:07Z</time>
      </trkpt>
      <trkpt lat="45.83091" lon="1.21619">
        <ele>244.6</ele>
        <time>2024-11-28T12:59:10Z</time>
      </trkpt>
      <trkpt lat="45.83078" lon="1.21608">
        <ele>244.5</ele>
        <time>2024-11-28T12:59:13Z</time>
      </trkpt>
      <trkpt lat="45.83063" lon="1.216">
        <ele>244.5</ele>
        <time>2024-11-28T12:59:16Z</time>
      </trkpt>
      <trkpt lat="45.83049" lon="1.21594">
        <ele>244.5</ele>
        <time>2024-11-28T12:59:19Z</time>
      </trkpt>
      <trkpt lat="45.83038" lon="1.21583">
        <ele>244.5</ele>
        <time>2024-11-28T12:59:22Z</time>
      </trkpt>
      <trkpt lat="45.83041" lon="1.21565">
        <ele>244.5</ele>
        <time>2024-11-28T12:59:25Z</time>
      </trkpt>
      <trkpt lat="45.83041" lon="1.21548">
        <ele>244.6</ele>
        <time>2024-11-28T12:59:28Z</time>
      </trkpt>
      <trkpt lat="45.83041" lon="1.21533">
        <ele>244.6</ele>
        <time>2024-11-28T12:59:31Z</time>
      </trkpt>
      <trkpt lat="45.83043" lon="1.21518">
        <ele>244.7</ele>
        <time>2024-11-28T12:59:34Z</time>
      </trkpt>
      <trkpt lat="45.83044" lon="1.21501">
        <ele>244.9</ele>
        <time>2024-11-28T12:59:37Z</time>
      </trkpt>
      <trkpt lat="45.83047" lon="1.21485">
        <ele>245</ele>
        <time>2024-11-28T12:59:40Z</time>
      </trkpt>
      <trkpt lat="45.83043" lon="1.21473">
        <ele>245.2</ele>
        <time>2024-11-28T12:59:43Z</time>
      </trkpt>
      <trkpt lat="45.83033" lon="1.21463">
        <ele>245.3</ele>
        <time>2024-11-28T12:59:46Z</time>
      </trkpt>
      <trkpt lat="45.83023" lon="1.21452">
        <ele>245.2</ele>
        <time>2024-11-28T12:59:49Z</time>
      </trkpt>
      <trkpt lat="45.83014" lon="1.21441">
        <ele>245.1</ele>
        <time>2024-11-28T12:59:52Z</time>
      </trkpt>
      <trkpt lat="45.83005" lon="1.21433">
        <ele>245</ele>
        <time>2024-11-28T12:59:55Z</time>
      </trkpt>
      <trkpt lat="45.82996" lon="1.21425">
        <ele>244.9</ele>
        <time>2024-11-28T12:59:58Z</time>
      </trkpt>
      <trkpt lat="45.82987" lon="1.21416">
        <ele>245</ele>
        <time>2024-11-28T13:00:01Z</time>
      </trkpt>
      <trkpt lat="45.8298" lon="1.21407">
        <ele>245.2</ele>
        <time>2024-11-28T13:00:04Z</time>
      </trkpt>
      <trkpt lat="45.82975" lon="1.214">
        <ele>245.3</ele>
        <time>2024-11-28T13:00:07Z</time>
      </trkpt>
      <trkpt lat="45.8297" lon="1.21394">
        <ele>245.4</ele>
        <time>2024-11-28T13:00:10Z</time>
      </trkpt>
      <trkpt lat="45.82967" lon="1.2139">
        <ele>245.4</ele>
        <time>2024-11-28T13:00:13Z</time>
      </trkpt>
      <trkpt lat="45.82964" lon="1.21387">
        <ele>245.4</ele>
        <time>2024-11-28T13:00:16Z</time>
      </trkpt>
      <trkpt lat="45.82964" lon="1.21387">
        <ele>245.4</ele>
        <time>2024-11-28T13:00:19Z</time>
      </trkpt>
      <trkpt lat="45.82965" lon="1.21387">
        <ele>245.4</ele>
        <time>2024-11-28T13:00:22Z</time>
      </trkpt>
      <trkpt lat="45.82965" lon="1.21388">
        <ele>245.4</ele>
        <time>2024-11-28T13:00:25Z</time>
      </trkpt>
      <trkpt lat="45.82964" lon="1.21388">
        <ele>245.4</ele>
        <time>2024-11-28T13:00:28Z</time>
      </trkpt>
      <trkpt lat="45.82964" lon="1.21387">
        <ele>245.4</ele>
        <time>2024-11-28T13:00:31Z</time>
      </trkpt>
      <trkpt lat="45.82964" lon="1.21387">
        <ele>245.4</ele>
        <time>2024-11-28T13:00:34Z</time>
      </trkpt>
      <trkpt lat="45.82965" lon="1.21388">
        <ele>245.4</ele>
        <time>2024-11-28T13:00:37Z</time>
      </trkpt>
      <trkpt lat="45.82965" lon="1.21388">
        <ele>245.4</ele>
        <time>2024-11-28T13:00:40Z</time>
      </trkpt>
      <trkpt lat="45.82966" lon="1.21389">
        <ele>245.4</ele>
        <time>2024-11-28T13:00:43Z</time>
      </trkpt>
      <trkpt lat="45.82968" lon="1.21391">
        <ele>245.4</ele>
        <time>2024-11-28T13:00:46Z</time>
      </trkpt>
      <trkpt lat="45.82971" lon="1.21393">
        <ele>245.4</ele>
        <time>2024-11-28T13:00:49Z</time>
      </trkpt>
      <trkpt lat="45.82973" lon="1.214">
        <ele>245.4</ele>
        <time>2024-11-28T13:00:52Z</time>
      </trkpt>
      <trkpt lat="45.82972" lon="1.21402">
        <ele>245.4</ele>
        <time>2024-11-28T13:00:55Z</time>
      </trkpt>
      <trkpt lat="45.82972" lon="1.21402">
        <ele>245.4</ele>
        <time>2024-11-28T13:00:58Z</time>
      </trkpt>
      <trkpt lat="45.82972" lon="1.21402">
        <ele>245.4</ele>
        <time>2024-11-28T13:01:01Z</time>
      </trkpt>
      <trkpt lat="45.82971" lon="1.21403">
        <ele>245.4</ele>
        <time>2024-11-28T13:01:04Z</time>
      </trkpt>
      <trkpt lat="45.82972" lon="1.21403">
        <ele>245.4</ele>
        <time>2024-11-28T13:01:07Z</time>
      </trkpt>
      <trkpt lat="45.82975" lon="1.21404">
        <ele>245.4</ele>
        <time>2024-11-28T13:01:10Z</time>
      </trkpt>
      <trkpt lat="45.82978" lon="1.21398">
        <ele>245.8</ele>
        <time>2024-11-28T13:01:13Z</time>
      </trkpt>
      <trkpt lat="45.82984" lon="1.21392">
        <ele>246.2</ele>
        <time>2024-11-28T13:01:16Z</time>
      </trkpt>
      <trkpt lat="45.82993" lon="1.2139">
        <ele>246.8</ele>
        <time>2024-11-28T13:01:19Z</time>
      </trkpt>
      <trkpt lat="45.83002" lon="1.21391">
        <ele>247.5</ele>
        <time>2024-11-28T13:01:22Z</time>
      </trkpt>
      <trkpt lat="45.8301" lon="1.21388">
        <ele>248.3</ele>
        <time>2024-11-28T13:01:25Z</time>
      </trkpt>
      <trkpt lat="45.83009" lon="1.21376">
        <ele>249.1</ele>
        <time>2024-11-28T13:01:28Z</time>
      </trkpt>
      <trkpt lat="45.83001" lon="1.21363">
        <ele>250.2</ele>
        <time>2024-11-28T13:01:31Z</time>
      </trkpt>
      <trkpt lat="45.82997" lon="1.21352">
        <ele>251.1</ele>
        <time>2024-11-28T13:01:34Z</time>
      </trkpt>
      <trkpt lat="45.82995" lon="1.2134">
        <ele>251.7</ele>
        <time>2024-11-28T13:01:37Z</time>
      </trkpt>
      <trkpt lat="45.82992" lon="1.21329">
        <ele>252.6</ele>
        <time>2024-11-28T13:01:40Z</time>
      </trkpt>
      <trkpt lat="45.82992" lon="1.21316">
        <ele>252.9</ele>
        <time>2024-11-28T13:01:43Z</time>
      </trkpt>
      <trkpt lat="45.82993" lon="1.21304">
        <ele>253.4</ele>
        <time>2024-11-28T13:01:46Z</time>
      </trkpt>
      <trkpt lat="45.82996" lon="1.21293">
        <ele>254.4</ele>
        <time>2024-11-28T13:01:49Z</time>
      </trkpt>
      <trkpt lat="45.83" lon="1.21284">
        <ele>255.5</ele>
        <time>2024-11-28T13:01:52Z</time>
      </trkpt>
      <trkpt lat="45.83005" lon="1.21277">
        <ele>256.5</ele>
        <time>2024-11-28T13:01:55Z</time>
      </trkpt>
      <trkpt lat="45.83011" lon="1.21271">
        <ele>257.4</ele>
        <time>2024-11-28T13:01:58Z</time>
      </trkpt>
      <trkpt lat="45.83018" lon="1.21268">
        <ele>258.3</ele>
        <time>2024-11-28T13:02:01Z</time>
      </trkpt>
      <trkpt lat="45.83026" lon="1.21268">
        <ele>259.2</ele>
        <time>2024-11-28T13:02:04Z</time>
      </trkpt>
      <trkpt lat="45.83035" lon="1.21269">
        <ele>259.5</ele>
        <time>2024-11-28T13:02:07Z</time>
      </trkpt>
      <trkpt lat="45.83043" lon="1.21268">
        <ele>259.9</ele>
        <time>2024-11-28T13:02:10Z</time>
      </trkpt>
      <trkpt lat="45.83051" lon="1.21261">
        <ele>260.3</ele>
        <time>2024-11-28T13:02:13Z</time>
      </trkpt>
      <trkpt lat="45.83058" lon="1.21253">
        <ele>260.7</ele>
        <time>2024-11-28T13:02:16Z</time>
      </trkpt>
      <trkpt lat="45.83062" lon="1.21243">
        <ele>260.9</ele>
        <time>2024-11-28T13:02:19Z</time>
      </trkpt>
      <trkpt lat="45.83066" lon="1.21231">
        <ele>261.2</ele>
        <time>2024-11-28T13:02:22Z</time>
      </trkpt>
      <trkpt lat="45.83068" lon="1.2122">
        <ele>261.6</ele>
        <time>2024-11-28T13:02:25Z</time>
      </trkpt>
      <trkpt lat="45.8307" lon="1.21208">
        <ele>262.3</ele>
        <time>2024-11-28T13:02:28Z</time>
      </trkpt>
      <trkpt lat="45.83073" lon="1.21201">
        <ele>262.9</ele>
        <time>2024-11-28T13:02:31Z</time>
      </trkpt>
      <trkpt lat="45.83073" lon="1.21201">
        <ele>263</ele>
        <time>2024-11-28T13:02:34Z</time>
      </trkpt>
      <trkpt lat="45.83073" lon="1.21203">
        <ele>263.1</ele>
        <time>2024-11-28T13:02:37Z</time>
      </trkpt>
      <trkpt lat="45.83072" lon="1.21203">
        <ele>263.2</ele>
        <time>2024-11-28T13:02:40Z</time>
      </trkpt>
      <trkpt lat="45.83073" lon="1.21203">
        <ele>263.2</ele>
        <time>2024-11-28T13:02:43Z</time>
      </trkpt>
      <trkpt lat="45.83073" lon="1.21203">
        <ele>263.2</ele>
        <time>2024-11-28T13:02:46Z</time>
      </trkpt>
      <trkpt lat="45.83074" lon="1.21202">
        <ele>263.3</ele>
        <time>2024-11-28T13:02:49Z</time>
      </trkpt>
      <trkpt lat="45.83073" lon="1.21202">
        <ele>263.4</ele>
        <time>2024-11-28T13:02:52Z</time>
      </trkpt>
      <trkpt lat="45.83074" lon="1.21201">
        <ele>263.5</ele>
        <time>2024-11-28T13:02:55Z</time>
      </trkpt>
      <trkpt lat="45.83074" lon="1.21201">
        <ele>263.5</ele>
        <time>2024-11-28T13:02:58Z</time>
      </trkpt>
      <trkpt lat="45.83074" lon="1.21201">
        <ele>263.6</ele>
        <time>2024-11-28T13:03:01Z</time>
      </trkpt>
      <trkpt lat="45.83074" lon="1.21202">
        <ele>263.6</ele>
        <time>2024-11-28T13:03:04Z</time>
      </trkpt>
      <trkpt lat="45.83074" lon="1.21201">
        <ele>263.6</ele>
        <time>2024-11-28T13:03:07Z</time>
      </trkpt>
      <trkpt lat="45.83075" lon="1.21202">
        <ele>263.7</ele>
        <time>2024-11-28T13:03:10Z</time>
      </trkpt>
      <trkpt lat="45.83075" lon="1.21201">
        <ele>263.7</ele>
        <time>2024-11-28T13:03:13Z</time>
      </trkpt>
      <trkpt lat="45.83074" lon="1.21201">
        <ele>263.8</ele>
        <time>2024-11-28T13:03:16Z</time>
      </trkpt>
      <trkpt lat="45.83074" lon="1.21199">
        <ele>263.9</ele>
        <time>2024-11-28T13:03:19Z</time>
      </trkpt>
      <trkpt lat="45.83077" lon="1.21201">
        <ele>264.5</ele>
        <time>2024-11-28T13:03:22Z</time>
      </trkpt>
      <trkpt lat="45.83086" lon="1.21198">
        <ele>264.8</ele>
        <time>2024-11-28T13:03:25Z</time>
      </trkpt>
      <trkpt lat="45.83089" lon="1.21193">
        <ele>265.1</ele>
        <time>2024-11-28T13:03:28Z</time>
      </trkpt>
      <trkpt lat="45.83089" lon="1.21193">
        <ele>265.1</ele>
        <time>2024-11-28T13:03:31Z</time>
      </trkpt>
      <trkpt lat="45.83089" lon="1.21193">
        <ele>265.1</ele>
        <time>2024-11-28T13:03:34Z</time>
      </trkpt>
      <trkpt lat="45.8309" lon="1.21192">
        <ele>265.1</ele>
        <time>2024-11-28T13:03:37Z</time>
      </trkpt>
      <trkpt lat="45.83092" lon="1.2118">
        <ele>265.4</ele>
        <time>2024-11-28T13:03:40Z</time>
      </trkpt>
      <trkpt lat="45.83095" lon="1.21167">
        <ele>265.8</ele>
        <time>2024-11-28T13:03:43Z</time>
      </trkpt>
      <trkpt lat="45.83097" lon="1.21158">
        <ele>266.2</ele>
        <time>2024-11-28T13:03:46Z</time>
      </trkpt>
      <trkpt lat="45.83097" lon="1.21158">
        <ele>266.2</ele>
        <time>2024-11-28T13:03:49Z</time>
      </trkpt>
      <trkpt lat="45.83097" lon="1.21158">
        <ele>266.3</ele>
        <time>2024-11-28T13:03:52Z</time>
      </trkpt>
      <trkpt lat="45.83097" lon="1.21159">
        <ele>266.3</ele>
        <time>2024-11-28T13:03:55Z</time>
      </trkpt>
      <trkpt lat="45.83097" lon="1.21159">
        <ele>266.3</ele>
        <time>2024-11-28T13:03:58Z</time>
      </trkpt>
      <trkpt lat="45.83097" lon="1.2116">
        <ele>266.4</ele>
        <time>2024-11-28T13:04:01Z</time>
      </trkpt>
      <trkpt lat="45.83096" lon="1.2116">
        <ele>266.4</ele>
        <time>2024-11-28T13:04:04Z</time>
      </trkpt>
      <trkpt lat="45.83097" lon="1.21158">
        <ele>266.5</ele>
        <time>2024-11-28T13:04:07Z</time>
      </trkpt>
      <trkpt lat="45.83099" lon="1.21151">
        <ele>266.9</ele>
        <time>2024-11-28T13:04:10Z</time>
      </trkpt>
      <trkpt lat="45.83102" lon="1.2114">
        <ele>267.5</ele>
        <time>2024-11-28T13:04:13Z</time>
      </trkpt>
      <trkpt lat="45.83104" lon="1.21128">
        <ele>268.2</ele>
        <time>2024-11-28T13:04:16Z</time>
      </trkpt>
      <trkpt lat="45.83105" lon="1.21118">
        <ele>268.8</ele>
        <time>2024-11-28T13:04:19Z</time>
      </trkpt>
      <trkpt lat="45.83108" lon="1.21109">
        <ele>269.4</ele>
        <time>2024-11-28T13:04:22Z</time>
      </trkpt>
      <trkpt lat="45.83108" lon="1.21102">
        <ele>269.9</ele>
        <time>2024-11-28T13:04:25Z</time>
      </trkpt>
      <trkpt lat="45.83112" lon="1.21091">
        <ele>270.6</ele>
        <time>2024-11-28T13:04:28Z</time>
      </trkpt>
      <trkpt lat="45.83115" lon="1.21078">
        <ele>271.4</ele>
        <time>2024-11-28T13:04:31Z</time>
      </trkpt>
      <trkpt lat="45.83117" lon="1.21066">
        <ele>272</ele>
        <time>2024-11-28T13:04:34Z</time>
      </trkpt>
      <trkpt lat="45.83117" lon="1.21066">
        <ele>272.1</ele>
        <time>2024-11-28T13:04:37Z</time>
      </trkpt>
      <trkpt lat="45.83117" lon="1.21066">
        <ele>272.1</ele>
        <time>2024-11-28T13:04:40Z</time>
      </trkpt>
      <trkpt lat="45.83118" lon="1.21067">
        <ele>272.2</ele>
        <time>2024-11-28T13:04:43Z</time>
      </trkpt>
      <trkpt lat="45.83119" lon="1.21067">
        <ele>272.2</ele>
        <time>2024-11-28T13:04:46Z</time>
      </trkpt>
      <trkpt lat="45.83119" lon="1.21066">
        <ele>272.3</ele>
        <time>2024-11-28T13:04:49Z</time>
      </trkpt>
      <trkpt lat="45.8312" lon="1.21066">
        <ele>272.3</ele>
        <time>2024-11-28T13:04:52Z</time>
      </trkpt>
      <trkpt lat="45.8312" lon="1.21067">
        <ele>272.3</ele>
        <time>2024-11-28T13:04:55Z</time>
      </trkpt>
      <trkpt lat="45.8312" lon="1.21067">
        <ele>272.3</ele>
        <time>2024-11-28T13:04:58Z</time>
      </trkpt>
      <trkpt lat="45.83119" lon="1.21065">
        <ele>272.4</ele>
        <time>2024-11-28T13:05:01Z</time>
      </trkpt>
      <trkpt lat="45.83119" lon="1.21065">
        <ele>272.4</ele>
        <time>2024-11-28T13:05:04Z</time>
      </trkpt>
      <trkpt lat="45.83119" lon="1.21064">
        <ele>272.5</ele>
        <time>2024-11-28T13:05:07Z</time>
      </trkpt>
      <trkpt lat="45.83119" lon="1.21065">
        <ele>272.5</ele>
        <time>2024-11-28T13:05:10Z</time>
      </trkpt>
      <trkpt lat="45.83118" lon="1.21064">
        <ele>272.5</ele>
        <time>2024-11-28T13:05:13Z</time>
      </trkpt>
      <trkpt lat="45.83118" lon="1.21064">
        <ele>272.5</ele>
        <time>2024-11-28T13:05:16Z</time>
      </trkpt>
      <trkpt lat="45.83118" lon="1.21064">
        <ele>272.5</ele>
        <time>2024-11-28T13:05:19Z</time>
      </trkpt>
      <trkpt lat="45.83118" lon="1.21064">
        <ele>272.5</ele>
        <time>2024-11-28T13:05:22Z</time>
      </trkpt>
      <trkpt lat="45.83118" lon="1.21064">
        <ele>272.6</ele>
        <time>2024-11-28T13:05:25Z</time>
      </trkpt>
      <trkpt lat="45.83119" lon="1.21063">
        <ele>272.6</ele>
        <time>2024-11-28T13:05:28Z</time>
      </trkpt>
      <trkpt lat="45.8312" lon="1.21064">
        <ele>272.7</ele>
        <time>2024-11-28T13:05:31Z</time>
      </trkpt>
      <trkpt lat="45.8312" lon="1.21064">
        <ele>272.7</ele>
        <time>2024-11-28T13:05:34Z</time>
      </trkpt>
      <trkpt lat="45.83121" lon="1.21062">
        <ele>272.9</ele>
        <time>2024-11-28T13:05:37Z</time>
      </trkpt>
      <trkpt lat="45.83124" lon="1.21055">
        <ele>273.2</ele>
        <time>2024-11-28T13:05:40Z</time>
      </trkpt>
      <trkpt lat="45.83125" lon="1.21046">
        <ele>273.7</ele>
        <time>2024-11-28T13:05:43Z</time>
      </trkpt>
      <trkpt lat="45.83127" lon="1.21035">
        <ele>274.2</ele>
        <time>2024-11-28T13:05:46Z</time>
      </trkpt>
      <trkpt lat="45.83129" lon="1.21024">
        <ele>274.7</ele>
        <time>2024-11-28T13:05:49Z</time>
      </trkpt>
      <trkpt lat="45.83133" lon="1.21014">
        <ele>275.3</ele>
        <time>2024-11-28T13:05:52Z</time>
      </trkpt>
      <trkpt lat="45.83136" lon="1.21005">
        <ele>275.7</ele>
        <time>2024-11-28T13:05:55Z</time>
      </trkpt>
      <trkpt lat="45.83138" lon="1.20995">
        <ele>276.2</ele>
        <time>2024-11-28T13:05:58Z</time>
      </trkpt>
      <trkpt lat="45.83141" lon="1.20983">
        <ele>276.8</ele>
        <time>2024-11-28T13:06:01Z</time>
      </trkpt>
      <trkpt lat="45.83143" lon="1.20971">
        <ele>277.4</ele>
        <time>2024-11-28T13:06:04Z</time>
      </trkpt>
      <trkpt lat="45.83146" lon="1.2096">
        <ele>278</ele>
        <time>2024-11-28T13:06:07Z</time>
      </trkpt>
      <trkpt lat="45.83149" lon="1.20948">
        <ele>278.6</ele>
        <time>2024-11-28T13:06:10Z</time>
      </trkpt>
      <trkpt lat="45.83151" lon="1.20937">
        <ele>279.2</ele>
        <time>2024-11-28T13:06:13Z</time>
      </trkpt>
      <trkpt lat="45.83154" lon="1.20925">
        <ele>279.9</ele>
        <time>2024-11-28T13:06:16Z</time>
      </trkpt>
      <trkpt lat="45.83157" lon="1.20913">
        <ele>280.5</ele>
        <time>2024-11-28T13:06:19Z</time>
      </trkpt>
      <trkpt lat="45.83159" lon="1.20901">
        <ele>281</ele>
        <time>2024-11-28T13:06:22Z</time>
      </trkpt>
      <trkpt lat="45.83162" lon="1.20892">
        <ele>281.5</ele>
        <time>2024-11-28T13:06:25Z</time>
      </trkpt>
      <trkpt lat="45.83164" lon="1.2088">
        <ele>282</ele>
        <time>2024-11-28T13:06:28Z</time>
      </trkpt>
      <trkpt lat="45.83167" lon="1.20869">
        <ele>282.5</ele>
        <time>2024-11-28T13:06:31Z</time>
      </trkpt>
      <trkpt lat="45.83171" lon="1.20858">
        <ele>283</ele>
        <time>2024-11-28T13:06:34Z</time>
      </trkpt>
      <trkpt lat="45.83175" lon="1.20846">
        <ele>283.5</ele>
        <time>2024-11-28T13:06:37Z</time>
      </trkpt>
      <trkpt lat="45.83179" lon="1.20834">
        <ele>283.9</ele>
        <time>2024-11-28T13:06:40Z</time>
      </trkpt>
      <trkpt lat="45.83184" lon="1.20826">
        <ele>284.2</ele>
        <time>2024-11-28T13:06:43Z</time>
      </trkpt>
      <trkpt lat="45.83186" lon="1.20823">
        <ele>284.3</ele>
        <time>2024-11-28T13:06:46Z</time>
      </trkpt>
      <trkpt lat="45.83188" lon="1.20814">
        <ele>284.4</ele>
        <time>2024-11-28T13:06:49Z</time>
      </trkpt>
      <trkpt lat="45.83189" lon="1.20801">
        <ele>284.5</ele>
        <time>2024-11-28T13:06:52Z</time>
      </trkpt>
      <trkpt lat="45.83191" lon="1.20786">
        <ele>284.5</ele>
        <time>2024-11-28T13:06:55Z</time>
      </trkpt>
      <trkpt lat="45.83194" lon="1.20771">
        <ele>284.4</ele>
        <time>2024-11-28T13:06:58Z</time>
      </trkpt>
      <trkpt lat="45.83197" lon="1.20753">
        <ele>284.3</ele>
        <time>2024-11-28T13:07:01Z</time>
      </trkpt>
      <trkpt lat="45.832" lon="1.20734">
        <ele>284.1</ele>
        <time>2024-11-28T13:07:04Z</time>
      </trkpt>
      <trkpt lat="45.83202" lon="1.20714">
        <ele>283.9</ele>
        <time>2024-11-28T13:07:07Z</time>
      </trkpt>
      <trkpt lat="45.83207" lon="1.20691">
        <ele>283.6</ele>
        <time>2024-11-28T13:07:10Z</time>
      </trkpt>
      <trkpt lat="45.83212" lon="1.20667">
        <ele>283.3</ele>
        <time>2024-11-28T13:07:13Z</time>
      </trkpt>
      <trkpt lat="45.83217" lon="1.20644">
        <ele>283</ele>
        <time>2024-11-28T13:07:16Z</time>
      </trkpt>
      <trkpt lat="45.83222" lon="1.20623">
        <ele>283</ele>
        <time>2024-11-28T13:07:19Z</time>
      </trkpt>
      <trkpt lat="45.83227" lon="1.20601">
        <ele>283.2</ele>
        <time>2024-11-28T13:07:22Z</time>
      </trkpt>
      <trkpt lat="45.83231" lon="1.2058">
        <ele>283.5</ele>
        <time>2024-11-28T13:07:25Z</time>
      </trkpt>
      <trkpt lat="45.83236" lon="1.20562">
        <ele>283.9</ele>
        <time>2024-11-28T13:07:28Z</time>
      </trkpt>
      <trkpt lat="45.8324" lon="1.20544">
        <ele>284.2</ele>
        <time>2024-11-28T13:07:31Z</time>
      </trkpt>
      <trkpt lat="45.83243" lon="1.20527">
        <ele>284.5</ele>
        <time>2024-11-28T13:07:34Z</time>
      </trkpt>
      <trkpt lat="45.83246" lon="1.20507">
        <ele>284.4</ele>
        <time>2024-11-28T13:07:37Z</time>
      </trkpt>
      <trkpt lat="45.83247" lon="1.20487">
        <ele>283.9</ele>
        <time>2024-11-28T13:07:40Z</time>
      </trkpt>
      <trkpt lat="45.83249" lon="1.20463">
        <ele>282.9</ele>
        <time>2024-11-28T13:07:43Z</time>
      </trkpt>
      <trkpt lat="45.8325" lon="1.2044">
        <ele>281.8</ele>
        <time>2024-11-28T13:07:46Z</time>
      </trkpt>
      <trkpt lat="45.8325" lon="1.20416">
        <ele>280.8</ele>
        <time>2024-11-28T13:07:49Z</time>
      </trkpt>
      <trkpt lat="45.83256" lon="1.2039">
        <ele>280.2</ele>
        <time>2024-11-28T13:07:52Z</time>
      </trkpt>
      <trkpt lat="45.83258" lon="1.20363">
        <ele>279.9</ele>
        <time>2024-11-28T13:07:55Z</time>
      </trkpt>
      <trkpt lat="45.8326" lon="1.20338">
        <ele>279.9</ele>
        <time>2024-11-28T13:07:58Z</time>
      </trkpt>
      <trkpt lat="45.83261" lon="1.20316">
        <ele>280.1</ele>
        <time>2024-11-28T13:08:01Z</time>
      </trkpt>
      <trkpt lat="45.83263" lon="1.20297">
        <ele>280.3</ele>
        <time>2024-11-28T13:08:04Z</time>
      </trkpt>
      <trkpt lat="45.83266" lon="1.20275">
        <ele>280.7</ele>
        <time>2024-11-28T13:08:07Z</time>
      </trkpt>
      <trkpt lat="45.8327" lon="1.20254">
        <ele>281.3</ele>
        <time>2024-11-28T13:08:10Z</time>
      </trkpt>
      <trkpt lat="45.83274" lon="1.20237">
        <ele>282</ele>
        <time>2024-11-28T13:08:13Z</time>
      </trkpt>
      <trkpt lat="45.83278" lon="1.20222">
        <ele>282.6</ele>
        <time>2024-11-28T13:08:16Z</time>
      </trkpt>
      <trkpt lat="45.83281" lon="1.20203">
        <ele>283.6</ele>
        <time>2024-11-28T13:08:19Z</time>
      </trkpt>
      <trkpt lat="45.83284" lon="1.20188">
        <ele>284.4</ele>
        <time>2024-11-28T13:08:22Z</time>
      </trkpt>
      <trkpt lat="45.83286" lon="1.20172">
        <ele>285.4</ele>
        <time>2024-11-28T13:08:25Z</time>
      </trkpt>
      <trkpt lat="45.83287" lon="1.20156">
        <ele>286.4</ele>
        <time>2024-11-28T13:08:28Z</time>
      </trkpt>
      <trkpt lat="45.83289" lon="1.20142">
        <ele>287.4</ele>
        <time>2024-11-28T13:08:31Z</time>
      </trkpt>
      <trkpt lat="45.83291" lon="1.2013">
        <ele>288.3</ele>
        <time>2024-11-28T13:08:34Z</time>
      </trkpt>
      <trkpt lat="45.83294" lon="1.20117">
        <ele>289.4</ele>
        <time>2024-11-28T13:08:37Z</time>
      </trkpt>
      <trkpt lat="45.83296" lon="1.20105">
        <ele>290.6</ele>
        <time>2024-11-28T13:08:40Z</time>
      </trkpt>
      <trkpt lat="45.83297" lon="1.20093">
        <ele>291.6</ele>
        <time>2024-11-28T13:08:43Z</time>
      </trkpt>
      <trkpt lat="45.83298" lon="1.20082">
        <ele>292.6</ele>
        <time>2024-11-28T13:08:46Z</time>
      </trkpt>
      <trkpt lat="45.83298" lon="1.2007">
        <ele>293.6</ele>
        <time>2024-11-28T13:08:49Z</time>
      </trkpt>
      <trkpt lat="45.83298" lon="1.20059">
        <ele>294.5</ele>
        <time>2024-11-28T13:08:52Z</time>
      </trkpt>
      <trkpt lat="45.83296" lon="1.20048">
        <ele>295.2</ele>
        <time>2024-11-28T13:08:55Z</time>
      </trkpt>
      <trkpt lat="45.83295" lon="1.20037">
        <ele>295.8</ele>
        <time>2024-11-28T13:08:58Z</time>
      </trkpt>
      <trkpt lat="45.83294" lon="1.20026">
        <ele>296.3</ele>
        <time>2024-11-28T13:09:01Z</time>
      </trkpt>
      <trkpt lat="45.83294" lon="1.20014">
        <ele>296.6</ele>
        <time>2024-11-28T13:09:04Z</time>
      </trkpt>
      <trkpt lat="45.83293" lon="1.20002">
        <ele>296.7</ele>
        <time>2024-11-28T13:09:07Z</time>
      </trkpt>
      <trkpt lat="45.8329" lon="1.19994">
        <ele>296.7</ele>
        <time>2024-11-28T13:09:10Z</time>
      </trkpt>
      <trkpt lat="45.83281" lon="1.19991">
        <ele>296.3</ele>
        <time>2024-11-28T13:09:13Z</time>
      </trkpt>
      <trkpt lat="45.8327" lon="1.1998">
        <ele>295.7</ele>
        <time>2024-11-28T13:09:16Z</time>
      </trkpt>
      <trkpt lat="45.83257" lon="1.19977">
        <ele>295.2</ele>
        <time>2024-11-28T13:09:19Z</time>
      </trkpt>
      <trkpt lat="45.83248" lon="1.19967">
        <ele>295.1</ele>
        <time>2024-11-28T13:09:22Z</time>
      </trkpt>
      <trkpt lat="45.83249" lon="1.19951">
        <ele>295.1</ele>
        <time>2024-11-28T13:09:25Z</time>
      </trkpt>
      <trkpt lat="45.83252" lon="1.19934">
        <ele>295.2</ele>
        <time>2024-11-28T13:09:28Z</time>
      </trkpt>
      <trkpt lat="45.8326" lon="1.19921">
        <ele>295.3</ele>
        <time>2024-11-28T13:09:31Z</time>
      </trkpt>
      <trkpt lat="45.83269" lon="1.19908">
        <ele>295.2</ele>
        <time>2024-11-28T13:09:34Z</time>
      </trkpt>
      <trkpt lat="45.83277" lon="1.19894">
        <ele>295</ele>
        <time>2024-11-28T13:09:37Z</time>
      </trkpt>
      <trkpt lat="45.83285" lon="1.19876">
        <ele>294.6</ele>
        <time>2024-11-28T13:09:40Z</time>
      </trkpt>
      <trkpt lat="45.83291" lon="1.19857">
        <ele>294.3</ele>
        <time>2024-11-28T13:09:43Z</time>
      </trkpt>
      <trkpt lat="45.83292" lon="1.19835">
        <ele>294</ele>
        <time>2024-11-28T13:09:46Z</time>
      </trkpt>
      <trkpt lat="45.83292" lon="1.19814">
        <ele>293.8</ele>
        <time>2024-11-28T13:09:49Z</time>
      </trkpt>
      <trkpt lat="45.83289" lon="1.19792">
        <ele>293.7</ele>
        <time>2024-11-28T13:09:52Z</time>
      </trkpt>
      <trkpt lat="45.83285" lon="1.19771">
        <ele>293.7</ele>
        <time>2024-11-28T13:09:55Z</time>
      </trkpt>
      <trkpt lat="45.83281" lon="1.19751">
        <ele>293.9</ele>
        <time>2024-11-28T13:09:58Z</time>
      </trkpt>
      <trkpt lat="45.83276" lon="1.19731">
        <ele>294.1</ele>
        <time>2024-11-28T13:10:01Z</time>
      </trkpt>
      <trkpt lat="45.83273" lon="1.19713">
        <ele>294.4</ele>
        <time>2024-11-28T13:10:04Z</time>
      </trkpt>
      <trkpt lat="45.83275" lon="1.19693">
        <ele>294.4</ele>
        <time>2024-11-28T13:10:07Z</time>
      </trkpt>
      <trkpt lat="45.8328" lon="1.19674">
        <ele>294.4</ele>
        <time>2024-11-28T13:10:10Z</time>
      </trkpt>
      <trkpt lat="45.83285" lon="1.19655">
        <ele>294.4</ele>
        <time>2024-11-28T13:10:13Z</time>
      </trkpt>
      <trkpt lat="45.8329" lon="1.19636">
        <ele>294.5</ele>
        <time>2024-11-28T13:10:16Z</time>
      </trkpt>
      <trkpt lat="45.83298" lon="1.19617">
        <ele>294.7</ele>
        <time>2024-11-28T13:10:19Z</time>
      </trkpt>
      <trkpt lat="45.83306" lon="1.19601">
        <ele>294.9</ele>
        <time>2024-11-28T13:10:22Z</time>
      </trkpt>
      <trkpt lat="45.83316" lon="1.19585">
        <ele>295.1</ele>
        <time>2024-11-28T13:10:25Z</time>
      </trkpt>
      <trkpt lat="45.83327" lon="1.19572">
        <ele>295.5</ele>
        <time>2024-11-28T13:10:28Z</time>
      </trkpt>
      <trkpt lat="45.83338" lon="1.19558">
        <ele>295.9</ele>
        <time>2024-11-28T13:10:31Z</time>
      </trkpt>
      <trkpt lat="45.83347" lon="1.19546">
        <ele>296.4</ele>
        <time>2024-11-28T13:10:34Z</time>
      </trkpt>
      <trkpt lat="45.83358" lon="1.19534">
        <ele>296.9</ele>
        <time>2024-11-28T13:10:37Z</time>
      </trkpt>
      <trkpt lat="45.83369" lon="1.19522">
        <ele>297.5</ele>
        <time>2024-11-28T13:10:40Z</time>
      </trkpt>
      <trkpt lat="45.83379" lon="1.19509">
        <ele>298</ele>
        <time>2024-11-28T13:10:43Z</time>
      </trkpt>
      <trkpt lat="45.83388" lon="1.19496">
        <ele>298.5</ele>
        <time>2024-11-28T13:10:46Z</time>
      </trkpt>
      <trkpt lat="45.83399" lon="1.19484">
        <ele>299</ele>
        <time>2024-11-28T13:10:49Z</time>
      </trkpt>
      <trkpt lat="45.83409" lon="1.19471">
        <ele>299.5</ele>
        <time>2024-11-28T13:10:52Z</time>
      </trkpt>
      <trkpt lat="45.8342" lon="1.19458">
        <ele>300.1</ele>
        <time>2024-11-28T13:10:55Z</time>
      </trkpt>
      <trkpt lat="45.8343" lon="1.19446">
        <ele>300.6</ele>
        <time>2024-11-28T13:10:58Z</time>
      </trkpt>
      <trkpt lat="45.8344" lon="1.19435">
        <ele>301</ele>
        <time>2024-11-28T13:11:01Z</time>
      </trkpt>
      <trkpt lat="45.83451" lon="1.19427">
        <ele>301.4</ele>
        <time>2024-11-28T13:11:04Z</time>
      </trkpt>
      <trkpt lat="45.83463" lon="1.1942">
        <ele>301.8</ele>
        <time>2024-11-28T13:11:07Z</time>
      </trkpt>
      <trkpt lat="45.83475" lon="1.1942">
        <ele>302.1</ele>
        <time>2024-11-28T13:11:10Z</time>
      </trkpt>
      <trkpt lat="45.83484" lon="1.1943">
        <ele>302.4</ele>
        <time>2024-11-28T13:11:13Z</time>
      </trkpt>
      <trkpt lat="45.83494" lon="1.19441">
        <ele>302.8</ele>
        <time>2024-11-28T13:11:16Z</time>
      </trkpt>
      <trkpt lat="45.83506" lon="1.19437">
        <ele>303.3</ele>
        <time>2024-11-28T13:11:19Z</time>
      </trkpt>
      <trkpt lat="45.83511" lon="1.19421">
        <ele>303.6</ele>
        <time>2024-11-28T13:11:22Z</time>
      </trkpt>
      <trkpt lat="45.83504" lon="1.19403">
        <ele>304</ele>
        <time>2024-11-28T13:11:25Z</time>
      </trkpt>
      <trkpt lat="45.83502" lon="1.1938">
        <ele>304.2</ele>
        <time>2024-11-28T13:11:28Z</time>
      </trkpt>
      <trkpt lat="45.83507" lon="1.19361">
        <ele>304.6</ele>
        <time>2024-11-28T13:11:31Z</time>
      </trkpt>
      <trkpt lat="45.83513" lon="1.19346">
        <ele>305</ele>
        <time>2024-11-28T13:11:34Z</time>
      </trkpt>
      <trkpt lat="45.83522" lon="1.19334">
        <ele>305.7</ele>
        <time>2024-11-28T13:11:37Z</time>
      </trkpt>
      <trkpt lat="45.83532" lon="1.19323">
        <ele>306.5</ele>
        <time>2024-11-28T13:11:40Z</time>
      </trkpt>
      <trkpt lat="45.83542" lon="1.19312">
        <ele>307.4</ele>
        <time>2024-11-28T13:11:43Z</time>
      </trkpt>
      <trkpt lat="45.83553" lon="1.19304">
        <ele>308.2</ele>
        <time>2024-11-28T13:11:46Z</time>
      </trkpt>
      <trkpt lat="45.83561" lon="1.19296">
        <ele>308.9</ele>
        <time>2024-11-28T13:11:49Z</time>
      </trkpt>
      <trkpt lat="45.8357" lon="1.19288">
        <ele>309.6</ele>
        <time>2024-11-28T13:11:52Z</time>
      </trkpt>
      <trkpt lat="45.83579" lon="1.1928">
        <ele>310.3</ele>
        <time>2024-11-28T13:11:55Z</time>
      </trkpt>
      <trkpt lat="45.83588" lon="1.19273">
        <ele>311</ele>
        <time>2024-11-28T13:11:58Z</time>
      </trkpt>
      <trkpt lat="45.83598" lon="1.19266">
        <ele>311.8</ele>
        <time>2024-11-28T13:12:01Z</time>
      </trkpt>
      <trkpt lat="45.83608" lon="1.19258">
        <ele>312.5</ele>
        <time>2024-11-28T13:12:04Z</time>
      </trkpt>
      <trkpt lat="45.83618" lon="1.19251">
        <ele>313.3</ele>
        <time>2024-11-28T13:12:07Z</time>
      </trkpt>
      <trkpt lat="45.83629" lon="1.19246">
        <ele>314.1</ele>
        <time>2024-11-28T13:12:10Z</time>
      </trkpt>
      <trkpt lat="45.83638" lon="1.1924">
        <ele>314.5</ele>
        <time>2024-11-28T13:12:13Z</time>
      </trkpt>
      <trkpt lat="45.83644" lon="1.19226">
        <ele>314.5</ele>
        <time>2024-11-28T13:12:16Z</time>
      </trkpt>
      <trkpt lat="45.83654" lon="1.19211">
        <ele>314.6</ele>
        <time>2024-11-28T13:12:19Z</time>
      </trkpt>
      <trkpt lat="45.83665" lon="1.19198">
        <ele>315</ele>
        <time>2024-11-28T13:12:22Z</time>
      </trkpt>
      <trkpt lat="45.83673" lon="1.19188">
        <ele>315.2</ele>
        <time>2024-11-28T13:12:25Z</time>
      </trkpt>
      <trkpt lat="45.83682" lon="1.19177">
        <ele>315.4</ele>
        <time>2024-11-28T13:12:28Z</time>
      </trkpt>
      <trkpt lat="45.83692" lon="1.19166">
        <ele>315.5</ele>
        <time>2024-11-28T13:12:31Z</time>
      </trkpt>
      <trkpt lat="45.83705" lon="1.19151">
        <ele>315.5</ele>
        <time>2024-11-28T13:12:34Z</time>
      </trkpt>
      <trkpt lat="45.83713" lon="1.19139">
        <ele>315.3</ele>
        <time>2024-11-28T13:12:37Z</time>
      </trkpt>
      <trkpt lat="45.83718" lon="1.19123">
        <ele>314.5</ele>
        <time>2024-11-28T13:12:40Z</time>
      </trkpt>
      <trkpt lat="45.83716" lon="1.1911">
        <ele>314.1</ele>
        <time>2024-11-28T13:12:43Z</time>
      </trkpt>
      <trkpt lat="45.83713" lon="1.19098">
        <ele>313.9</ele>
        <time>2024-11-28T13:12:46Z</time>
      </trkpt>
      <trkpt lat="45.83711" lon="1.19085">
        <ele>313.7</ele>
        <time>2024-11-28T13:12:49Z</time>
      </trkpt>
      <trkpt lat="45.83705" lon="1.19072">
        <ele>313.5</ele>
        <time>2024-11-28T13:12:52Z</time>
      </trkpt>
      <trkpt lat="45.83699" lon="1.19061">
        <ele>313.4</ele>
        <time>2024-11-28T13:12:55Z</time>
      </trkpt>
      <trkpt lat="45.83692" lon="1.19047">
        <ele>313.4</ele>
        <time>2024-11-28T13:12:58Z</time>
      </trkpt>
      <trkpt lat="45.83683" lon="1.19033">
        <ele>313.5</ele>
        <time>2024-11-28T13:13:01Z</time>
      </trkpt>
      <trkpt lat="45.83675" lon="1.19017">
        <ele>313.7</ele>
        <time>2024-11-28T13:13:04Z</time>
      </trkpt>
      <trkpt lat="45.83668" lon="1.19003">
        <ele>313.8</ele>
        <time>2024-11-28T13:13:07Z</time>
      </trkpt>
      <trkpt lat="45.8366" lon="1.18987">
        <ele>313.8</ele>
        <time>2024-11-28T13:13:10Z</time>
      </trkpt>
      <trkpt lat="45.83652" lon="1.18973">
        <ele>313.7</ele>
        <time>2024-11-28T13:13:13Z</time>
      </trkpt>
      <trkpt lat="45.83643" lon="1.1896">
        <ele>313.6</ele>
        <time>2024-11-28T13:13:16Z</time>
      </trkpt>
      <trkpt lat="45.83633" lon="1.18952">
        <ele>313.5</ele>
        <time>2024-11-28T13:13:19Z</time>
      </trkpt>
      <trkpt lat="45.83627" lon="1.18943">
        <ele>313.4</ele>
        <time>2024-11-28T13:13:22Z</time>
      </trkpt>
      <trkpt lat="45.83618" lon="1.18923">
        <ele>313</ele>
        <time>2024-11-28T13:13:25Z</time>
      </trkpt>
      <trkpt lat="45.83606" lon="1.18909">
        <ele>312.5</ele>
        <time>2024-11-28T13:13:28Z</time>
      </trkpt>
      <trkpt lat="45.83599" lon="1.18891">
        <ele>312.2</ele>
        <time>2024-11-28T13:13:31Z</time>
      </trkpt>
      <trkpt lat="45.83596" lon="1.18873">
        <ele>311.9</ele>
        <time>2024-11-28T13:13:34Z</time>
      </trkpt>
      <trkpt lat="45.836" lon="1.18856">
        <ele>311.8</ele>
        <time>2024-11-28T13:13:37Z</time>
      </trkpt>
      <trkpt lat="45.83606" lon="1.18846">
        <ele>311.8</ele>
        <time>2024-11-28T13:13:40Z</time>
      </trkpt>
      <trkpt lat="45.83612" lon="1.1883">
        <ele>311.8</ele>
        <time>2024-11-28T13:13:43Z</time>
      </trkpt>
      <trkpt lat="45.83617" lon="1.18814">
        <ele>311.9</ele>
        <time>2024-11-28T13:13:46Z</time>
      </trkpt>
      <trkpt lat="45.83624" lon="1.18798">
        <ele>312</ele>
        <time>2024-11-28T13:13:49Z</time>
      </trkpt>
      <trkpt lat="45.83631" lon="1.18779">
        <ele>312.1</ele>
        <time>2024-11-28T13:13:52Z</time>
      </trkpt>
      <trkpt lat="45.83637" lon="1.18762">
        <ele>312.2</ele>
        <time>2024-11-28T13:13:55Z</time>
      </trkpt>
      <trkpt lat="45.83642" lon="1.18746">
        <ele>312.3</ele>
        <time>2024-11-28T13:13:58Z</time>
      </trkpt>
      <trkpt lat="45.83645" lon="1.18733">
        <ele>312.5</ele>
        <time>2024-11-28T13:14:01Z</time>
      </trkpt>
      <trkpt lat="45.83648" lon="1.18716">
        <ele>312.8</ele>
        <time>2024-11-28T13:14:04Z</time>
      </trkpt>
      <trkpt lat="45.8365" lon="1.18702">
        <ele>313.1</ele>
        <time>2024-11-28T13:14:07Z</time>
      </trkpt>
      <trkpt lat="45.83659" lon="1.18701">
        <ele>313.5</ele>
        <time>2024-11-28T13:14:10Z</time>
      </trkpt>
      <trkpt lat="45.83667" lon="1.18702">
        <ele>313.7</ele>
        <time>2024-11-28T13:14:13Z</time>
      </trkpt>
      <trkpt lat="45.83678" lon="1.18705">
        <ele>314</ele>
        <time>2024-11-28T13:14:16Z</time>
      </trkpt>
      <trkpt lat="45.83689" lon="1.18709">
        <ele>314.1</ele>
        <time>2024-11-28T13:14:19Z</time>
      </trkpt>
      <trkpt lat="45.83699" lon="1.18713">
        <ele>314.3</ele>
        <time>2024-11-28T13:14:22Z</time>
      </trkpt>
      <trkpt lat="45.83708" lon="1.18717">
        <ele>314.4</ele>
        <time>2024-11-28T13:14:25Z</time>
      </trkpt>
      <trkpt lat="45.8372" lon="1.18722">
        <ele>314.6</ele>
        <time>2024-11-28T13:14:28Z</time>
      </trkpt>
      <trkpt lat="45.83731" lon="1.18727">
        <ele>314.9</ele>
        <time>2024-11-28T13:14:31Z</time>
      </trkpt>
      <trkpt lat="45.83741" lon="1.18732">
        <ele>315.3</ele>
        <time>2024-11-28T13:14:34Z</time>
      </trkpt>
      <trkpt lat="45.83752" lon="1.18738">
        <ele>315.8</ele>
        <time>2024-11-28T13:14:37Z</time>
      </trkpt>
      <trkpt lat="45.83759" lon="1.18731">
        <ele>316.4</ele>
        <time>2024-11-28T13:14:40Z</time>
      </trkpt>
      <trkpt lat="45.83763" lon="1.18722">
        <ele>316.9</ele>
        <time>2024-11-28T13:14:43Z</time>
      </trkpt>
      <trkpt lat="45.83768" lon="1.18711">
        <ele>317.5</ele>
        <time>2024-11-28T13:14:46Z</time>
      </trkpt>
      <trkpt lat="45.83773" lon="1.18699">
        <ele>318.1</ele>
        <time>2024-11-28T13:14:49Z</time>
      </trkpt>
      <trkpt lat="45.83777" lon="1.1869">
        <ele>318.7</ele>
        <time>2024-11-28T13:14:52Z</time>
      </trkpt>
      <trkpt lat="45.83781" lon="1.18679">
        <ele>319.2</ele>
        <time>2024-11-28T13:14:55Z</time>
      </trkpt>
      <trkpt lat="45.83786" lon="1.18668">
        <ele>319.8</ele>
        <time>2024-11-28T13:14:58Z</time>
      </trkpt>
      <trkpt lat="45.8379" lon="1.18656">
        <ele>320.5</ele>
        <time>2024-11-28T13:15:01Z</time>
      </trkpt>
      <trkpt lat="45.83794" lon="1.18646">
        <ele>321.1</ele>
        <time>2024-11-28T13:15:04Z</time>
      </trkpt>
      <trkpt lat="45.83798" lon="1.18637">
        <ele>321.6</ele>
        <time>2024-11-28T13:15:07Z</time>
      </trkpt>
      <trkpt lat="45.83802" lon="1.18628">
        <ele>322.2</ele>
        <time>2024-11-28T13:15:10Z</time>
      </trkpt>
      <trkpt lat="45.83807" lon="1.18618">
        <ele>322.7</ele>
        <time>2024-11-28T13:15:13Z</time>
      </trkpt>
      <trkpt lat="45.83812" lon="1.18608">
        <ele>323.3</ele>
        <time>2024-11-28T13:15:16Z</time>
      </trkpt>
      <trkpt lat="45.83816" lon="1.18597">
        <ele>323.9</ele>
        <time>2024-11-28T13:15:19Z</time>
      </trkpt>
      <trkpt lat="45.8382" lon="1.18587">
        <ele>324.4</ele>
        <time>2024-11-28T13:15:22Z</time>
      </trkpt>
      <trkpt lat="45.83824" lon="1.18576">
        <ele>324.9</ele>
        <time>2024-11-28T13:15:25Z</time>
      </trkpt>
      <trkpt lat="45.83827" lon="1.18565">
        <ele>325.5</ele>
        <time>2024-11-28T13:15:28Z</time>
      </trkpt>
      <trkpt lat="45.8383" lon="1.18555">
        <ele>325.9</ele>
        <time>2024-11-28T13:15:31Z</time>
      </trkpt>
      <trkpt lat="45.83835" lon="1.18544">
        <ele>326.4</ele>
        <time>2024-11-28T13:15:34Z</time>
      </trkpt>
      <trkpt lat="45.83843" lon="1.18535">
        <ele>327</ele>
        <time>2024-11-28T13:15:37Z</time>
      </trkpt>
      <trkpt lat="45.8385" lon="1.18525">
        <ele>327.5</ele>
        <time>2024-11-28T13:15:40Z</time>
      </trkpt>
      <trkpt lat="45.83853" lon="1.18514">
        <ele>328.1</ele>
        <time>2024-11-28T13:15:43Z</time>
      </trkpt>
      <trkpt lat="45.83853" lon="1.18503">
        <ele>328.8</ele>
        <time>2024-11-28T13:15:46Z</time>
      </trkpt>
      <trkpt lat="45.83854" lon="1.18492">
        <ele>329.5</ele>
        <time>2024-11-28T13:15:49Z</time>
      </trkpt>
      <trkpt lat="45.83855" lon="1.18483">
        <ele>330.2</ele>
        <time>2024-11-28T13:15:52Z</time>
      </trkpt>
      <trkpt lat="45.83856" lon="1.18475">
        <ele>330.8</ele>
        <time>2024-11-28T13:15:55Z</time>
      </trkpt>
      <trkpt lat="45.83856" lon="1.18466">
        <ele>331.5</ele>
        <time>2024-11-28T13:15:58Z</time>
      </trkpt>
      <trkpt lat="45.83858" lon="1.18457">
        <ele>332.2</ele>
        <time>2024-11-28T13:16:01Z</time>
      </trkpt>
      <trkpt lat="45.83859" lon="1.18448">
        <ele>332.9</ele>
        <time>2024-11-28T13:16:04Z</time>
      </trkpt>
      <trkpt lat="45.83861" lon="1.18439">
        <ele>333.5</ele>
        <time>2024-11-28T13:16:07Z</time>
      </trkpt>
      <trkpt lat="45.83864" lon="1.18429">
        <ele>334.1</ele>
        <time>2024-11-28T13:16:10Z</time>
      </trkpt>
      <trkpt lat="45.8387" lon="1.18419">
        <ele>334.7</ele>
        <time>2024-11-28T13:16:13Z</time>
      </trkpt>
      <trkpt lat="45.83875" lon="1.18409">
        <ele>335.2</ele>
        <time>2024-11-28T13:16:16Z</time>
      </trkpt>
      <trkpt lat="45.8388" lon="1.184">
        <ele>335.6</ele>
        <time>2024-11-28T13:16:19Z</time>
      </trkpt>
      <trkpt lat="45.83884" lon="1.18392">
        <ele>335.8</ele>
        <time>2024-11-28T13:16:22Z</time>
      </trkpt>
      <trkpt lat="45.83888" lon="1.18383">
        <ele>336.1</ele>
        <time>2024-11-28T13:16:25Z</time>
      </trkpt>
      <trkpt lat="45.83889" lon="1.18374">
        <ele>336.2</ele>
        <time>2024-11-28T13:16:28Z</time>
      </trkpt>
      <trkpt lat="45.83892" lon="1.18367">
        <ele>336.4</ele>
        <time>2024-11-28T13:16:31Z</time>
      </trkpt>
      <trkpt lat="45.839" lon="1.18362">
        <ele>336.5</ele>
        <time>2024-11-28T13:16:34Z</time>
      </trkpt>
      <trkpt lat="45.83912" lon="1.18358">
        <ele>336.6</ele>
        <time>2024-11-28T13:16:37Z</time>
      </trkpt>
      <trkpt lat="45.83919" lon="1.18354">
        <ele>336.7</ele>
        <time>2024-11-28T13:16:40Z</time>
      </trkpt>
      <trkpt lat="45.83926" lon="1.18348">
        <ele>336.9</ele>
        <time>2024-11-28T13:16:43Z</time>
      </trkpt>
      <trkpt lat="45.83931" lon="1.18342">
        <ele>337.2</ele>
        <time>2024-11-28T13:16:46Z</time>
      </trkpt>
      <trkpt lat="45.83934" lon="1.1833">
        <ele>337.6</ele>
        <time>2024-11-28T13:16:49Z</time>
      </trkpt>
      <trkpt lat="45.83935" lon="1.18319">
        <ele>338</ele>
        <time>2024-11-28T13:16:52Z</time>
      </trkpt>
      <trkpt lat="45.83937" lon="1.18307">
        <ele>338.2</ele>
        <time>2024-11-28T13:16:55Z</time>
      </trkpt>
      <trkpt lat="45.8394" lon="1.18294">
        <ele>338.4</ele>
        <time>2024-11-28T13:16:58Z</time>
      </trkpt>
      <trkpt lat="45.83943" lon="1.1828">
        <ele>338.5</ele>
        <time>2024-11-28T13:17:01Z</time>
      </trkpt>
      <trkpt lat="45.83949" lon="1.18264">
        <ele>338.7</ele>
        <time>2024-11-28T13:17:04Z</time>
      </trkpt>
      <trkpt lat="45.83957" lon="1.18252">
        <ele>338.8</ele>
        <time>2024-11-28T13:17:07Z</time>
      </trkpt>
      <trkpt lat="45.83965" lon="1.1824">
        <ele>339.1</ele>
        <time>2024-11-28T13:17:10Z</time>
      </trkpt>
      <trkpt lat="45.83974" lon="1.18228">
        <ele>339.3</ele>
        <time>2024-11-28T13:17:13Z</time>
      </trkpt>
      <trkpt lat="45.83982" lon="1.18216">
        <ele>339.6</ele>
        <time>2024-11-28T13:17:16Z</time>
      </trkpt>
      <trkpt lat="45.8399" lon="1.18204">
        <ele>340</ele>
        <time>2024-11-28T13:17:19Z</time>
      </trkpt>
      <trkpt lat="45.83998" lon="1.18192">
        <ele>340.3</ele>
        <time>2024-11-28T13:17:22Z</time>
      </trkpt>
      <trkpt lat="45.84005" lon="1.1818">
        <ele>340.7</ele>
        <time>2024-11-28T13:17:25Z</time>
      </trkpt>
      <trkpt lat="45.84013" lon="1.18168">
        <ele>341</ele>
        <time>2024-11-28T13:17:28Z</time>
      </trkpt>
      <trkpt lat="45.84019" lon="1.18156">
        <ele>341.3</ele>
        <time>2024-11-28T13:17:31Z</time>
      </trkpt>
      <trkpt lat="45.84029" lon="1.18143">
        <ele>341.7</ele>
        <time>2024-11-28T13:17:34Z</time>
      </trkpt>
      <trkpt lat="45.84036" lon="1.18131">
        <ele>341.9</ele>
        <time>2024-11-28T13:17:37Z</time>
      </trkpt>
      <trkpt lat="45.84045" lon="1.18118">
        <ele>342.3</ele>
        <time>2024-11-28T13:17:40Z</time>
      </trkpt>
      <trkpt lat="45.84052" lon="1.18108">
        <ele>342.6</ele>
        <time>2024-11-28T13:17:43Z</time>
      </trkpt>
      <trkpt lat="45.84059" lon="1.18097">
        <ele>342.9</ele>
        <time>2024-11-28T13:17:46Z</time>
      </trkpt>
      <trkpt lat="45.84066" lon="1.18087">
        <ele>343.2</ele>
        <time>2024-11-28T13:17:49Z</time>
      </trkpt>
      <trkpt lat="45.84074" lon="1.18077">
        <ele>343.6</ele>
        <time>2024-11-28T13:17:52Z</time>
      </trkpt>
      <trkpt lat="45.84082" lon="1.18064">
        <ele>344.1</ele>
        <time>2024-11-28T13:17:55Z</time>
      </trkpt>
      <trkpt lat="45.84089" lon="1.18055">
        <ele>344.5</ele>
        <time>2024-11-28T13:17:58Z</time>
      </trkpt>
      <trkpt lat="45.84096" lon="1.18043">
        <ele>345</ele>
        <time>2024-11-28T13:18:01Z</time>
      </trkpt>
      <trkpt lat="45.84103" lon="1.18031">
        <ele>345.3</ele>
        <time>2024-11-28T13:18:04Z</time>
      </trkpt>
      <trkpt lat="45.8411" lon="1.1802">
        <ele>345.7</ele>
        <time>2024-11-28T13:18:07Z</time>
      </trkpt>
      <trkpt lat="45.8412" lon="1.18008">
        <ele>345.9</ele>
        <time>2024-11-28T13:18:10Z</time>
      </trkpt>
      <trkpt lat="45.84129" lon="1.17994">
        <ele>346.1</ele>
        <time>2024-11-28T13:18:13Z</time>
      </trkpt>
      <trkpt lat="45.84138" lon="1.17982">
        <ele>346.2</ele>
        <time>2024-11-28T13:18:16Z</time>
      </trkpt>
      <trkpt lat="45.84148" lon="1.17969">
        <ele>346.2</ele>
        <time>2024-11-28T13:18:19Z</time>
      </trkpt>
      <trkpt lat="45.84158" lon="1.17955">
        <ele>346.2</ele>
        <time>2024-11-28T13:18:22Z</time>
      </trkpt>
      <trkpt lat="45.84168" lon="1.17938">
        <ele>346.2</ele>
        <time>2024-11-28T13:18:25Z</time>
      </trkpt>
      <trkpt lat="45.8418" lon="1.17923">
        <ele>346.2</ele>
        <time>2024-11-28T13:18:28Z</time>
      </trkpt>
      <trkpt lat="45.8419" lon="1.17907">
        <ele>346.2</ele>
        <time>2024-11-28T13:18:31Z</time>
      </trkpt>
      <trkpt lat="45.84199" lon="1.1789">
        <ele>346.2</ele>
        <time>2024-11-28T13:18:34Z</time>
      </trkpt>
      <trkpt lat="45.8421" lon="1.17877">
        <ele>346.2</ele>
        <time>2024-11-28T13:18:37Z</time>
      </trkpt>
      <trkpt lat="45.84221" lon="1.17863">
        <ele>346.3</ele>
        <time>2024-11-28T13:18:40Z</time>
      </trkpt>
      <trkpt lat="45.8423" lon="1.17851">
        <ele>346.4</ele>
        <time>2024-11-28T13:18:43Z</time>
      </trkpt>
      <trkpt lat="45.84233" lon="1.17839">
        <ele>346.5</ele>
        <time>2024-11-28T13:18:46Z</time>
      </trkpt>
      <trkpt lat="45.84233" lon="1.17827">
        <ele>346.6</ele>
        <time>2024-11-28T13:18:49Z</time>
      </trkpt>
      <trkpt lat="45.84236" lon="1.17816">
        <ele>346.7</ele>
        <time>2024-11-28T13:18:52Z</time>
      </trkpt>
      <trkpt lat="45.84234" lon="1.17805">
        <ele>346.8</ele>
        <time>2024-11-28T13:18:55Z</time>
      </trkpt>
      <trkpt lat="45.84225" lon="1.17798">
        <ele>346.9</ele>
        <time>2024-11-28T13:18:58Z</time>
      </trkpt>
      <trkpt lat="45.84214" lon="1.17792">
        <ele>346.9</ele>
        <time>2024-11-28T13:19:01Z</time>
      </trkpt>
      <trkpt lat="45.84202" lon="1.17783">
        <ele>347.1</ele>
        <time>2024-11-28T13:19:04Z</time>
      </trkpt>
      <trkpt lat="45.8419" lon="1.17776">
        <ele>347.2</ele>
        <time>2024-11-28T13:19:07Z</time>
      </trkpt>
      <trkpt lat="45.84178" lon="1.1777">
        <ele>347.4</ele>
        <time>2024-11-28T13:19:10Z</time>
      </trkpt>
      <trkpt lat="45.84168" lon="1.17775">
        <ele>347.6</ele>
        <time>2024-11-28T13:19:13Z</time>
      </trkpt>
      <trkpt lat="45.84156" lon="1.17782">
        <ele>347.6</ele>
        <time>2024-11-28T13:19:16Z</time>
      </trkpt>
      <trkpt lat="45.84144" lon="1.17777">
        <ele>347.4</ele>
        <time>2024-11-28T13:19:19Z</time>
      </trkpt>
      <trkpt lat="45.8414" lon="1.17761">
        <ele>347.2</ele>
        <time>2024-11-28T13:19:22Z</time>
      </trkpt>
      <trkpt lat="45.84143" lon="1.17744">
        <ele>347</ele>
        <time>2024-11-28T13:19:25Z</time>
      </trkpt>
      <trkpt lat="45.8415" lon="1.17728">
        <ele>346.7</ele>
        <time>2024-11-28T13:19:28Z</time>
      </trkpt>
      <trkpt lat="45.8416" lon="1.17717">
        <ele>346.5</ele>
        <time>2024-11-28T13:19:31Z</time>
      </trkpt>
      <trkpt lat="45.84167" lon="1.17704">
        <ele>346.4</ele>
        <time>2024-11-28T13:19:34Z</time>
      </trkpt>
      <trkpt lat="45.84174" lon="1.17689">
        <ele>346.3</ele>
        <time>2024-11-28T13:19:37Z</time>
      </trkpt>
      <trkpt lat="45.84182" lon="1.17672">
        <ele>346.1</ele>
        <time>2024-11-28T13:19:40Z</time>
      </trkpt>
      <trkpt lat="45.84189" lon="1.17653">
        <ele>345.8</ele>
        <time>2024-11-28T13:19:43Z</time>
      </trkpt>
      <trkpt lat="45.84196" lon="1.17634">
        <ele>345.5</ele>
        <time>2024-11-28T13:19:46Z</time>
      </trkpt>
      <trkpt lat="45.84196" lon="1.17615">
        <ele>344.7</ele>
        <time>2024-11-28T13:19:49Z</time>
      </trkpt>
      <trkpt lat="45.84183" lon="1.17601">
        <ele>343.3</ele>
        <time>2024-11-28T13:19:52Z</time>
      </trkpt>
      <trkpt lat="45.84169" lon="1.17591">
        <ele>343</ele>
        <time>2024-11-28T13:19:55Z</time>
      </trkpt>
      <trkpt lat="45.84155" lon="1.17582">
        <ele>342.7</ele>
        <time>2024-11-28T13:19:58Z</time>
      </trkpt>
      <trkpt lat="45.84141" lon="1.17572">
        <ele>342.3</ele>
        <time>2024-11-28T13:20:01Z</time>
      </trkpt>
      <trkpt lat="45.84127" lon="1.17561">
        <ele>342</ele>
        <time>2024-11-28T13:20:04Z</time>
      </trkpt>
      <trkpt lat="45.84113" lon="1.17551">
        <ele>341.7</ele>
        <time>2024-11-28T13:20:07Z</time>
      </trkpt>
      <trkpt lat="45.84098" lon="1.17541">
        <ele>341.4</ele>
        <time>2024-11-28T13:20:10Z</time>
      </trkpt>
      <trkpt lat="45.84084" lon="1.17531">
        <ele>341.2</ele>
        <time>2024-11-28T13:20:13Z</time>
      </trkpt>
      <trkpt lat="45.8407" lon="1.17521">
        <ele>341</ele>
        <time>2024-11-28T13:20:16Z</time>
      </trkpt>
      <trkpt lat="45.84056" lon="1.17512">
        <ele>340.8</ele>
        <time>2024-11-28T13:20:19Z</time>
      </trkpt>
      <trkpt lat="45.84043" lon="1.17503">
        <ele>340.6</ele>
        <time>2024-11-28T13:20:22Z</time>
      </trkpt>
      <trkpt lat="45.84029" lon="1.17492">
        <ele>340.4</ele>
        <time>2024-11-28T13:20:25Z</time>
      </trkpt>
      <trkpt lat="45.84013" lon="1.17482">
        <ele>340.1</ele>
        <time>2024-11-28T13:20:28Z</time>
      </trkpt>
      <trkpt lat="45.83999" lon="1.17471">
        <ele>339.8</ele>
        <time>2024-11-28T13:20:31Z</time>
      </trkpt>
      <trkpt lat="45.83984" lon="1.1746">
        <ele>339.4</ele>
        <time>2024-11-28T13:20:34Z</time>
      </trkpt>
      <trkpt lat="45.83976" lon="1.17448">
        <ele>339.1</ele>
        <time>2024-11-28T13:20:37Z</time>
      </trkpt>
      <trkpt lat="45.83967" lon="1.17437">
        <ele>338.7</ele>
        <time>2024-11-28T13:20:40Z</time>
      </trkpt>
      <trkpt lat="45.83957" lon="1.17427">
        <ele>338.3</ele>
        <time>2024-11-28T13:20:43Z</time>
      </trkpt>
      <trkpt lat="45.83942" lon="1.17414">
        <ele>337.6</ele>
        <time>2024-11-28T13:20:46Z</time>
      </trkpt>
      <trkpt lat="45.83927" lon="1.17406">
        <ele>336.6</ele>
        <time>2024-11-28T13:20:49Z</time>
      </trkpt>
      <trkpt lat="45.8391" lon="1.17395">
        <ele>335</ele>
        <time>2024-11-28T13:20:52Z</time>
      </trkpt>
      <trkpt lat="45.8389" lon="1.17382">
        <ele>332.8</ele>
        <time>2024-11-28T13:20:55Z</time>
      </trkpt>
      <trkpt lat="45.83869" lon="1.1737">
        <ele>330.2</ele>
        <time>2024-11-28T13:20:58Z</time>
      </trkpt>
      <trkpt lat="45.8385" lon="1.17359">
        <ele>327.8</ele>
        <time>2024-11-28T13:21:01Z</time>
      </trkpt>
      <trkpt lat="45.83831" lon="1.17349">
        <ele>325.9</ele>
        <time>2024-11-28T13:21:04Z</time>
      </trkpt>
      <trkpt lat="45.83819" lon="1.17336">
        <ele>325</ele>
        <time>2024-11-28T13:21:07Z</time>
      </trkpt>
      <trkpt lat="45.8382" lon="1.17313">
        <ele>324.4</ele>
        <time>2024-11-28T13:21:10Z</time>
      </trkpt>
      <trkpt lat="45.83829" lon="1.17293">
        <ele>324.3</ele>
        <time>2024-11-28T13:21:13Z</time>
      </trkpt>
      <trkpt lat="45.83837" lon="1.17274">
        <ele>324.3</ele>
        <time>2024-11-28T13:21:16Z</time>
      </trkpt>
      <trkpt lat="45.83845" lon="1.17255">
        <ele>324.3</ele>
        <time>2024-11-28T13:21:19Z</time>
      </trkpt>
      <trkpt lat="45.83853" lon="1.17236">
        <ele>324.3</ele>
        <time>2024-11-28T13:21:22Z</time>
      </trkpt>
      <trkpt lat="45.83862" lon="1.17217">
        <ele>324.4</ele>
        <time>2024-11-28T13:21:25Z</time>
      </trkpt>
      <trkpt lat="45.83873" lon="1.17202">
        <ele>324.5</ele>
        <time>2024-11-28T13:21:28Z</time>
      </trkpt>
      <trkpt lat="45.83884" lon="1.17189">
        <ele>324.5</ele>
        <time>2024-11-28T13:21:31Z</time>
      </trkpt>
      <trkpt lat="45.83897" lon="1.17177">
        <ele>324.5</ele>
        <time>2024-11-28T13:21:34Z</time>
      </trkpt>
      <trkpt lat="45.83909" lon="1.17164">
        <ele>324.5</ele>
        <time>2024-11-28T13:21:37Z</time>
      </trkpt>
      <trkpt lat="45.83921" lon="1.17151">
        <ele>324.6</ele>
        <time>2024-11-28T13:21:40Z</time>
      </trkpt>
      <trkpt lat="45.83934" lon="1.17136">
        <ele>324.8</ele>
        <time>2024-11-28T13:21:43Z</time>
      </trkpt>
      <trkpt lat="45.83946" lon="1.17122">
        <ele>325.2</ele>
        <time>2024-11-28T13:21:46Z</time>
      </trkpt>
      <trkpt lat="45.83958" lon="1.17111">
        <ele>325.7</ele>
        <time>2024-11-28T13:21:49Z</time>
      </trkpt>
      <trkpt lat="45.8397" lon="1.17102">
        <ele>326.2</ele>
        <time>2024-11-28T13:21:52Z</time>
      </trkpt>
      <trkpt lat="45.83979" lon="1.17089">
        <ele>326.9</ele>
        <time>2024-11-28T13:21:55Z</time>
      </trkpt>
      <trkpt lat="45.83982" lon="1.17073">
        <ele>327.5</ele>
        <time>2024-11-28T13:21:58Z</time>
      </trkpt>
      <trkpt lat="45.83982" lon="1.17057">
        <ele>328.2</ele>
        <time>2024-11-28T13:22:01Z</time>
      </trkpt>
      <trkpt lat="45.83983" lon="1.17043">
        <ele>328.6</ele>
        <time>2024-11-28T13:22:04Z</time>
      </trkpt>
      <trkpt lat="45.83979" lon="1.17027">
        <ele>328.3</ele>
        <time>2024-11-28T13:22:07Z</time>
      </trkpt>
      <trkpt lat="45.83975" lon="1.17006">
        <ele>327.9</ele>
        <time>2024-11-28T13:22:10Z</time>
      </trkpt>
      <trkpt lat="45.83973" lon="1.16983">
        <ele>327.5</ele>
        <time>2024-11-28T13:22:13Z</time>
      </trkpt>
      <trkpt lat="45.83971" lon="1.16957">
        <ele>326.8</ele>
        <time>2024-11-28T13:22:16Z</time>
      </trkpt>
      <trkpt lat="45.83968" lon="1.16932">
        <ele>325.9</ele>
        <time>2024-11-28T13:22:19Z</time>
      </trkpt>
      <trkpt lat="45.83963" lon="1.16905">
        <ele>324.7</ele>
        <time>2024-11-28T13:22:22Z</time>
      </trkpt>
      <trkpt lat="45.83951" lon="1.16879">
        <ele>323.3</ele>
        <time>2024-11-28T13:22:25Z</time>
      </trkpt>
      <trkpt lat="45.83929" lon="1.16869">
        <ele>321.9</ele>
        <time>2024-11-28T13:22:28Z</time>
      </trkpt>
      <trkpt lat="45.83905" lon="1.16873">
        <ele>320.6</ele>
        <time>2024-11-28T13:22:31Z</time>
      </trkpt>
      <trkpt lat="45.83881" lon="1.16878">
        <ele>319.2</ele>
        <time>2024-11-28T13:22:34Z</time>
      </trkpt>
      <trkpt lat="45.83856" lon="1.16883">
        <ele>317.7</ele>
        <time>2024-11-28T13:22:37Z</time>
      </trkpt>
      <trkpt lat="45.83831" lon="1.16887">
        <ele>316.3</ele>
        <time>2024-11-28T13:22:40Z</time>
      </trkpt>
      <trkpt lat="45.83805" lon="1.16892">
        <ele>314.8</ele>
        <time>2024-11-28T13:22:43Z</time>
      </trkpt>
      <trkpt lat="45.83778" lon="1.16897">
        <ele>313.2</ele>
        <time>2024-11-28T13:22:46Z</time>
      </trkpt>
      <trkpt lat="45.83751" lon="1.16903">
        <ele>312</ele>
        <time>2024-11-28T13:22:49Z</time>
      </trkpt>
      <trkpt lat="45.83725" lon="1.16907">
        <ele>311.2</ele>
        <time>2024-11-28T13:22:52Z</time>
      </trkpt>
      <trkpt lat="45.83702" lon="1.16908">
        <ele>310.7</ele>
        <time>2024-11-28T13:22:55Z</time>
      </trkpt>
      <trkpt lat="45.8369" lon="1.16888">
        <ele>310.1</ele>
        <time>2024-11-28T13:22:58Z</time>
      </trkpt>
      <trkpt lat="45.8369" lon="1.1686">
        <ele>308.6</ele>
        <time>2024-11-28T13:23:01Z</time>
      </trkpt>
      <trkpt lat="45.83693" lon="1.16824">
        <ele>305.9</ele>
        <time>2024-11-28T13:23:04Z</time>
      </trkpt>
      <trkpt lat="45.83699" lon="1.16783">
        <ele>304.7</ele>
        <time>2024-11-28T13:23:07Z</time>
      </trkpt>
      <trkpt lat="45.83706" lon="1.16748">
        <ele>304.6</ele>
        <time>2024-11-28T13:23:10Z</time>
      </trkpt>
      <trkpt lat="45.8371" lon="1.16716">
        <ele>305.1</ele>
        <time>2024-11-28T13:23:13Z</time>
      </trkpt>
      <trkpt lat="45.83714" lon="1.16689">
        <ele>306.2</ele>
        <time>2024-11-28T13:23:16Z</time>
      </trkpt>
      <trkpt lat="45.83714" lon="1.16667">
        <ele>307.4</ele>
        <time>2024-11-28T13:23:19Z</time>
      </trkpt>
      <trkpt lat="45.83711" lon="1.1665">
        <ele>308.4</ele>
        <time>2024-11-28T13:23:22Z</time>
      </trkpt>
      <trkpt lat="45.83705" lon="1.16634">
        <ele>309.1</ele>
        <time>2024-11-28T13:23:25Z</time>
      </trkpt>
      <trkpt lat="45.83696" lon="1.16622">
        <ele>309.8</ele>
        <time>2024-11-28T13:23:28Z</time>
      </trkpt>
      <trkpt lat="45.83685" lon="1.1661">
        <ele>310.2</ele>
        <time>2024-11-28T13:23:31Z</time>
      </trkpt>
      <trkpt lat="45.83672" lon="1.16598">
        <ele>310.6</ele>
        <time>2024-11-28T13:23:34Z</time>
      </trkpt>
      <trkpt lat="45.83659" lon="1.16588">
        <ele>310.9</ele>
        <time>2024-11-28T13:23:37Z</time>
      </trkpt>
      <trkpt lat="45.83649" lon="1.16577">
        <ele>311.3</ele>
        <time>2024-11-28T13:23:40Z</time>
      </trkpt>
      <trkpt lat="45.83636" lon="1.16567">
        <ele>311.7</ele>
        <time>2024-11-28T13:23:43Z</time>
      </trkpt>
      <trkpt lat="45.83625" lon="1.16555">
        <ele>312.2</ele>
        <time>2024-11-28T13:23:46Z</time>
      </trkpt>
      <trkpt lat="45.83614" lon="1.16543">
        <ele>312.6</ele>
        <time>2024-11-28T13:23:49Z</time>
      </trkpt>
      <trkpt lat="45.83603" lon="1.16533">
        <ele>313.1</ele>
        <time>2024-11-28T13:23:52Z</time>
      </trkpt>
      <trkpt lat="45.83592" lon="1.16521">
        <ele>313.5</ele>
        <time>2024-11-28T13:23:55Z</time>
      </trkpt>
      <trkpt lat="45.83581" lon="1.1651">
        <ele>313.9</ele>
        <time>2024-11-28T13:23:58Z</time>
      </trkpt>
      <trkpt lat="45.83569" lon="1.16501">
        <ele>314.3</ele>
        <time>2024-11-28T13:24:01Z</time>
      </trkpt>
      <trkpt lat="45.83557" lon="1.16491">
        <ele>314.5</ele>
        <time>2024-11-28T13:24:04Z</time>
      </trkpt>
      <trkpt lat="45.83545" lon="1.16479">
        <ele>314.7</ele>
        <time>2024-11-28T13:24:07Z</time>
      </trkpt>
      <trkpt lat="45.83532" lon="1.16467">
        <ele>314.7</ele>
        <time>2024-11-28T13:24:10Z</time>
      </trkpt>
      <trkpt lat="45.83518" lon="1.16453">
        <ele>314.6</ele>
        <time>2024-11-28T13:24:13Z</time>
      </trkpt>
      <trkpt lat="45.83506" lon="1.16441">
        <ele>314.6</ele>
        <time>2024-11-28T13:24:16Z</time>
      </trkpt>
      <trkpt lat="45.83494" lon="1.1643">
        <ele>314.6</ele>
        <time>2024-11-28T13:24:19Z</time>
      </trkpt>
      <trkpt lat="45.83488" lon="1.16412">
        <ele>315.6</ele>
        <time>2024-11-28T13:24:22Z</time>
      </trkpt>
      <trkpt lat="45.83493" lon="1.16396">
        <ele>316.6</ele>
        <time>2024-11-28T13:24:25Z</time>
      </trkpt>
      <trkpt lat="45.835" lon="1.16381">
        <ele>317.6</ele>
        <time>2024-11-28T13:24:28Z</time>
      </trkpt>
      <trkpt lat="45.83506" lon="1.16367">
        <ele>318.5</ele>
        <time>2024-11-28T13:24:31Z</time>
      </trkpt>
      <trkpt lat="45.83512" lon="1.16352">
        <ele>319.3</ele>
        <time>2024-11-28T13:24:34Z</time>
      </trkpt>
      <trkpt lat="45.83519" lon="1.16337">
        <ele>319.9</ele>
        <time>2024-11-28T13:24:37Z</time>
      </trkpt>
      <trkpt lat="45.83527" lon="1.16323">
        <ele>320.4</ele>
        <time>2024-11-28T13:24:40Z</time>
      </trkpt>
      <trkpt lat="45.83535" lon="1.16308">
        <ele>320.7</ele>
        <time>2024-11-28T13:24:43Z</time>
      </trkpt>
      <trkpt lat="45.83542" lon="1.16293">
        <ele>320.8</ele>
        <time>2024-11-28T13:24:46Z</time>
      </trkpt>
      <trkpt lat="45.8355" lon="1.16274">
        <ele>320.8</ele>
        <time>2024-11-28T13:24:49Z</time>
      </trkpt>
      <trkpt lat="45.83559" lon="1.16254">
        <ele>320.6</ele>
        <time>2024-11-28T13:24:52Z</time>
      </trkpt>
      <trkpt lat="45.83569" lon="1.16235">
        <ele>320.3</ele>
        <time>2024-11-28T13:24:55Z</time>
      </trkpt>
      <trkpt lat="45.83578" lon="1.16217">
        <ele>320.1</ele>
        <time>2024-11-28T13:24:58Z</time>
      </trkpt>
      <trkpt lat="45.83587" lon="1.162">
        <ele>319.9</ele>
        <time>2024-11-28T13:25:01Z</time>
      </trkpt>
      <trkpt lat="45.83595" lon="1.16182">
        <ele>319.7</ele>
        <time>2024-11-28T13:25:04Z</time>
      </trkpt>
      <trkpt lat="45.83604" lon="1.16163">
        <ele>319.6</ele>
        <time>2024-11-28T13:25:07Z</time>
      </trkpt>
      <trkpt lat="45.83613" lon="1.16144">
        <ele>319.5</ele>
        <time>2024-11-28T13:25:10Z</time>
      </trkpt>
      <trkpt lat="45.83622" lon="1.16125">
        <ele>319.4</ele>
        <time>2024-11-28T13:25:13Z</time>
      </trkpt>
      <trkpt lat="45.83631" lon="1.16105">
        <ele>319.3</ele>
        <time>2024-11-28T13:25:16Z</time>
      </trkpt>
      <trkpt lat="45.83639" lon="1.16086">
        <ele>319.2</ele>
        <time>2024-11-28T13:25:19Z</time>
      </trkpt>
      <trkpt lat="45.83645" lon="1.16071">
        <ele>319.2</ele>
        <time>2024-11-28T13:25:22Z</time>
      </trkpt>
      <trkpt lat="45.83646" lon="1.16062">
        <ele>319.1</ele>
        <time>2024-11-28T13:25:25Z</time>
      </trkpt>
      <trkpt lat="45.83644" lon="1.16055">
        <ele>319</ele>
        <time>2024-11-28T13:25:28Z</time>
      </trkpt>
      <trkpt lat="45.83633" lon="1.16049">
        <ele>318.1</ele>
        <time>2024-11-28T13:25:31Z</time>
      </trkpt>
      <trkpt lat="45.83617" lon="1.16047">
        <ele>317.1</ele>
        <time>2024-11-28T13:25:34Z</time>
      </trkpt>
      <trkpt lat="45.836" lon="1.16046">
        <ele>316</ele>
        <time>2024-11-28T13:25:37Z</time>
      </trkpt>
      <trkpt lat="45.8358" lon="1.16045">
        <ele>314.9</ele>
        <time>2024-11-28T13:25:40Z</time>
      </trkpt>
      <trkpt lat="45.83566" lon="1.16043">
        <ele>314.1</ele>
        <time>2024-11-28T13:25:43Z</time>
      </trkpt>
      <trkpt lat="45.83537" lon="1.16041">
        <ele>312.5</ele>
        <time>2024-11-28T13:25:46Z</time>
      </trkpt>
      <trkpt lat="45.8352" lon="1.1604">
        <ele>311.5</ele>
        <time>2024-11-28T13:25:49Z</time>
      </trkpt>
      <trkpt lat="45.83517" lon="1.16028">
        <ele>311.1</ele>
        <time>2024-11-28T13:25:52Z</time>
      </trkpt>
      <trkpt lat="45.83523" lon="1.16015">
        <ele>311.3</ele>
        <time>2024-11-28T13:25:55Z</time>
      </trkpt>
      <trkpt lat="45.83529" lon="1.16004">
        <ele>311.6</ele>
        <time>2024-11-28T13:25:58Z</time>
      </trkpt>
      <trkpt lat="45.83537" lon="1.1599">
        <ele>312</ele>
        <time>2024-11-28T13:26:01Z</time>
      </trkpt>
      <trkpt lat="45.83546" lon="1.15978">
        <ele>312.3</ele>
        <time>2024-11-28T13:26:04Z</time>
      </trkpt>
      <trkpt lat="45.83555" lon="1.15967">
        <ele>312.6</ele>
        <time>2024-11-28T13:26:07Z</time>
      </trkpt>
      <trkpt lat="45.83562" lon="1.15955">
        <ele>312.8</ele>
        <time>2024-11-28T13:26:10Z</time>
      </trkpt>
      <trkpt lat="45.83571" lon="1.15942">
        <ele>313.1</ele>
        <time>2024-11-28T13:26:13Z</time>
      </trkpt>
      <trkpt lat="45.83582" lon="1.15923">
        <ele>313.5</ele>
        <time>2024-11-28T13:26:16Z</time>
      </trkpt>
      <trkpt lat="45.8359" lon="1.1591">
        <ele>313.9</ele>
        <time>2024-11-28T13:26:19Z</time>
      </trkpt>
      <trkpt lat="45.83601" lon="1.15894">
        <ele>314.4</ele>
        <time>2024-11-28T13:26:22Z</time>
      </trkpt>
      <trkpt lat="45.83612" lon="1.15877">
        <ele>314.9</ele>
        <time>2024-11-28T13:26:25Z</time>
      </trkpt>
      <trkpt lat="45.83621" lon="1.15863">
        <ele>315.4</ele>
        <time>2024-11-28T13:26:28Z</time>
      </trkpt>
      <trkpt lat="45.83631" lon="1.15848">
        <ele>315.9</ele>
        <time>2024-11-28T13:26:31Z</time>
      </trkpt>
      <trkpt lat="45.83638" lon="1.15835">
        <ele>316.4</ele>
        <time>2024-11-28T13:26:34Z</time>
      </trkpt>
      <trkpt lat="45.83647" lon="1.15822">
        <ele>317</ele>
        <time>2024-11-28T13:26:37Z</time>
      </trkpt>
      <trkpt lat="45.83656" lon="1.15808">
        <ele>317.3</ele>
        <time>2024-11-28T13:26:40Z</time>
      </trkpt>
      <trkpt lat="45.83667" lon="1.15794">
        <ele>317.5</ele>
        <time>2024-11-28T13:26:43Z</time>
      </trkpt>
      <trkpt lat="45.83675" lon="1.15782">
        <ele>317.6</ele>
        <time>2024-11-28T13:26:46Z</time>
      </trkpt>
      <trkpt lat="45.83675" lon="1.15768">
        <ele>317.4</ele>
        <time>2024-11-28T13:26:49Z</time>
      </trkpt>
      <trkpt lat="45.83665" lon="1.15758">
        <ele>316.9</ele>
        <time>2024-11-28T13:26:52Z</time>
      </trkpt>
      <trkpt lat="45.8365" lon="1.15746">
        <ele>316.1</ele>
        <time>2024-11-28T13:26:55Z</time>
      </trkpt>
      <trkpt lat="45.83635" lon="1.15734">
        <ele>315.2</ele>
        <time>2024-11-28T13:26:58Z</time>
      </trkpt>
      <trkpt lat="45.83618" lon="1.15719">
        <ele>314.4</ele>
        <time>2024-11-28T13:27:01Z</time>
      </trkpt>
      <trkpt lat="45.83605" lon="1.15709">
        <ele>313.8</ele>
        <time>2024-11-28T13:27:04Z</time>
      </trkpt>
      <trkpt lat="45.83597" lon="1.15696">
        <ele>313.3</ele>
        <time>2024-11-28T13:27:07Z</time>
      </trkpt>
      <trkpt lat="45.83598" lon="1.15688">
        <ele>313.1</ele>
        <time>2024-11-28T13:27:10Z</time>
      </trkpt>
      <trkpt lat="45.83598" lon="1.15688">
        <ele>313.1</ele>
        <time>2024-11-28T13:27:13Z</time>
      </trkpt>
      <trkpt lat="45.83598" lon="1.15688">
        <ele>313.1</ele>
        <time>2024-11-28T13:27:16Z</time>
      </trkpt>
      <trkpt lat="45.83598" lon="1.15688">
        <ele>313.1</ele>
        <time>2024-11-28T13:27:19Z</time>
      </trkpt>
      <trkpt lat="45.83598" lon="1.15689">
        <ele>313</ele>
        <time>2024-11-28T13:27:22Z</time>
      </trkpt>
      <trkpt lat="45.83599" lon="1.15688">
        <ele>313</ele>
        <time>2024-11-28T13:27:25Z</time>
      </trkpt>
      <trkpt lat="45.83598" lon="1.15688">
        <ele>313</ele>
        <time>2024-11-28T13:27:28Z</time>
      </trkpt>
      <trkpt lat="45.83596" lon="1.15692">
        <ele>312.9</ele>
        <time>2024-11-28T13:27:31Z</time>
      </trkpt>
      <trkpt lat="45.8359" lon="1.15693">
        <ele>312.7</ele>
        <time>2024-11-28T13:27:34Z</time>
      </trkpt>
      <trkpt lat="45.83585" lon="1.15691">
        <ele>312.7</ele>
        <time>2024-11-28T13:27:37Z</time>
      </trkpt>
      <trkpt lat="45.83581" lon="1.15687">
        <ele>312.7</ele>
        <time>2024-11-28T13:27:40Z</time>
      </trkpt>
      <trkpt lat="45.83579" lon="1.15684">
        <ele>312.8</ele>
        <time>2024-11-28T13:27:43Z</time>
      </trkpt>
      <trkpt lat="45.83579" lon="1.15685">
        <ele>312.8</ele>
        <time>2024-11-28T13:27:46Z</time>
      </trkpt>
      <trkpt lat="45.83578" lon="1.15685">
        <ele>312.8</ele>
        <time>2024-11-28T13:27:49Z</time>
      </trkpt>
      <trkpt lat="45.83579" lon="1.15684">
        <ele>312.8</ele>
        <time>2024-11-28T13:27:52Z</time>
      </trkpt>
      <trkpt lat="45.83582" lon="1.15686">
        <ele>312.9</ele>
        <time>2024-11-28T13:27:55Z</time>
      </trkpt>
      <trkpt lat="45.83586" lon="1.15688">
        <ele>312.9</ele>
        <time>2024-11-28T13:27:58Z</time>
      </trkpt>
      <trkpt lat="45.8359" lon="1.15686">
        <ele>313</ele>
        <time>2024-11-28T13:28:01Z</time>
      </trkpt>
      <trkpt lat="45.83589" lon="1.15683">
        <ele>313</ele>
        <time>2024-11-28T13:28:04Z</time>
      </trkpt>
      <trkpt lat="45.8359" lon="1.15679">
        <ele>313</ele>
        <time>2024-11-28T13:28:07Z</time>
      </trkpt>
      <trkpt lat="45.83591" lon="1.15677">
        <ele>313.1</ele>
        <time>2024-11-28T13:28:10Z</time>
      </trkpt>
      <trkpt lat="45.83593" lon="1.15674">
        <ele>313.1</ele>
        <time>2024-11-28T13:28:13Z</time>
      </trkpt>
      <trkpt lat="45.83594" lon="1.15673">
        <ele>313.1</ele>
        <time>2024-11-28T13:28:16Z</time>
      </trkpt>
      <trkpt lat="45.83595" lon="1.15673">
        <ele>313.2</ele>
        <time>2024-11-28T13:28:19Z</time>
      </trkpt>
      <trkpt lat="45.83598" lon="1.15673">
        <ele>313.2</ele>
        <time>2024-11-28T13:28:22Z</time>
      </trkpt>
      <trkpt lat="45.836" lon="1.15672">
        <ele>313.2</ele>
        <time>2024-11-28T13:28:25Z</time>
      </trkpt>
      <trkpt lat="45.83601" lon="1.15671">
        <ele>313.3</ele>
        <time>2024-11-28T13:28:28Z</time>
      </trkpt>
      <trkpt lat="45.83602" lon="1.15665">
        <ele>313.3</ele>
        <time>2024-11-28T13:28:31Z</time>
      </trkpt>
      <trkpt lat="45.83606" lon="1.15655">
        <ele>313.5</ele>
        <time>2024-11-28T13:28:34Z</time>
      </trkpt>
      <trkpt lat="45.83611" lon="1.15642">
        <ele>313.7</ele>
        <time>2024-11-28T13:28:37Z</time>
      </trkpt>
      <trkpt lat="45.83616" lon="1.15629">
        <ele>313.9</ele>
        <time>2024-11-28T13:28:40Z</time>
      </trkpt>
      <trkpt lat="45.8362" lon="1.15616">
        <ele>314.1</ele>
        <time>2024-11-28T13:28:43Z</time>
      </trkpt>
      <trkpt lat="45.83625" lon="1.15602">
        <ele>314.3</ele>
        <time>2024-11-28T13:28:46Z</time>
      </trkpt>
      <trkpt lat="45.83629" lon="1.15588">
        <ele>314.5</ele>
        <time>2024-11-28T13:28:49Z</time>
      </trkpt>
      <trkpt lat="45.83633" lon="1.15575">
        <ele>314.7</ele>
        <time>2024-11-28T13:28:52Z</time>
      </trkpt>
      <trkpt lat="45.83638" lon="1.15561">
        <ele>314.9</ele>
        <time>2024-11-28T13:28:55Z</time>
      </trkpt>
      <trkpt lat="45.83643" lon="1.15546">
        <ele>315.1</ele>
        <time>2024-11-28T13:28:58Z</time>
      </trkpt>
      <trkpt lat="45.83648" lon="1.1553">
        <ele>315.2</ele>
        <time>2024-11-28T13:29:01Z</time>
      </trkpt>
      <trkpt lat="45.83653" lon="1.15514">
        <ele>315.4</ele>
        <time>2024-11-28T13:29:04Z</time>
      </trkpt>
      <trkpt lat="45.83658" lon="1.15499">
        <ele>315.5</ele>
        <time>2024-11-28T13:29:07Z</time>
      </trkpt>
      <trkpt lat="45.83663" lon="1.15483">
        <ele>315.6</ele>
        <time>2024-11-28T13:29:10Z</time>
      </trkpt>
      <trkpt lat="45.83666" lon="1.15467">
        <ele>315.7</ele>
        <time>2024-11-28T13:29:13Z</time>
      </trkpt>
      <trkpt lat="45.83669" lon="1.15453">
        <ele>315.8</ele>
        <time>2024-11-28T13:29:16Z</time>
      </trkpt>
      <trkpt lat="45.83673" lon="1.15438">
        <ele>315.8</ele>
        <time>2024-11-28T13:29:19Z</time>
      </trkpt>
      <trkpt lat="45.83676" lon="1.15422">
        <ele>315.9</ele>
        <time>2024-11-28T13:29:22Z</time>
      </trkpt>
      <trkpt lat="45.83678" lon="1.15405">
        <ele>316</ele>
        <time>2024-11-28T13:29:25Z</time>
      </trkpt>
      <trkpt lat="45.83679" lon="1.15391">
        <ele>316.2</ele>
        <time>2024-11-28T13:29:28Z</time>
      </trkpt>
      <trkpt lat="45.8369" lon="1.15386">
        <ele>316.4</ele>
        <time>2024-11-28T13:29:31Z</time>
      </trkpt>
      <trkpt lat="45.83702" lon="1.15384">
        <ele>316.5</ele>
        <time>2024-11-28T13:29:34Z</time>
      </trkpt>
      <trkpt lat="45.83708" lon="1.15383">
        <ele>316.7</ele>
        <time>2024-11-28T13:29:37Z</time>
      </trkpt>
      <trkpt lat="45.83713" lon="1.15382">
        <ele>316.8</ele>
        <time>2024-11-28T13:29:40Z</time>
      </trkpt>
      <trkpt lat="45.83724" lon="1.15383">
        <ele>317</ele>
        <time>2024-11-28T13:29:43Z</time>
      </trkpt>
      <trkpt lat="45.83734" lon="1.15378">
        <ele>317.2</ele>
        <time>2024-11-28T13:29:46Z</time>
      </trkpt>
      <trkpt lat="45.83743" lon="1.15383">
        <ele>317.3</ele>
        <time>2024-11-28T13:29:49Z</time>
      </trkpt>
      <trkpt lat="45.83753" lon="1.15388">
        <ele>317.5</ele>
        <time>2024-11-28T13:29:52Z</time>
      </trkpt>
      <trkpt lat="45.83763" lon="1.15389">
        <ele>317.6</ele>
        <time>2024-11-28T13:29:55Z</time>
      </trkpt>
      <trkpt lat="45.83772" lon="1.15386">
        <ele>317.7</ele>
        <time>2024-11-28T13:29:58Z</time>
      </trkpt>
      <trkpt lat="45.83784" lon="1.15378">
        <ele>317.8</ele>
        <time>2024-11-28T13:30:01Z</time>
      </trkpt>
      <trkpt lat="45.83796" lon="1.15375">
        <ele>318</ele>
        <time>2024-11-28T13:30:04Z</time>
      </trkpt>
      <trkpt lat="45.83806" lon="1.15378">
        <ele>318.3</ele>
        <time>2024-11-28T13:30:07Z</time>
      </trkpt>
      <trkpt lat="45.83816" lon="1.15383">
        <ele>318.6</ele>
        <time>2024-11-28T13:30:10Z</time>
      </trkpt>
      <trkpt lat="45.83825" lon="1.15387">
        <ele>318.9</ele>
        <time>2024-11-28T13:30:13Z</time>
      </trkpt>
      <trkpt lat="45.83833" lon="1.1539">
        <ele>319.1</ele>
        <time>2024-11-28T13:30:16Z</time>
      </trkpt>
      <trkpt lat="45.83843" lon="1.15395">
        <ele>319.5</ele>
        <time>2024-11-28T13:30:19Z</time>
      </trkpt>
      <trkpt lat="45.83853" lon="1.15401">
        <ele>319.9</ele>
        <time>2024-11-28T13:30:22Z</time>
      </trkpt>
      <trkpt lat="45.83865" lon="1.15403">
        <ele>320.4</ele>
        <time>2024-11-28T13:30:25Z</time>
      </trkpt>
      <trkpt lat="45.83877" lon="1.15409">
        <ele>320.7</ele>
        <time>2024-11-28T13:30:28Z</time>
      </trkpt>
      <trkpt lat="45.83888" lon="1.15415">
        <ele>321</ele>
        <time>2024-11-28T13:30:31Z</time>
      </trkpt>
      <trkpt lat="45.83898" lon="1.1542">
        <ele>321.3</ele>
        <time>2024-11-28T13:30:34Z</time>
      </trkpt>
      <trkpt lat="45.83909" lon="1.15426">
        <ele>321.5</ele>
        <time>2024-11-28T13:30:37Z</time>
      </trkpt>
      <trkpt lat="45.83917" lon="1.15432">
        <ele>321.7</ele>
        <time>2024-11-28T13:30:40Z</time>
      </trkpt>
      <trkpt lat="45.83929" lon="1.15438">
        <ele>321.8</ele>
        <time>2024-11-28T13:30:43Z</time>
      </trkpt>
      <trkpt lat="45.83939" lon="1.15442">
        <ele>322.1</ele>
        <time>2024-11-28T13:30:46Z</time>
      </trkpt>
      <trkpt lat="45.83945" lon="1.15444">
        <ele>322.3</ele>
        <time>2024-11-28T13:30:49Z</time>
      </trkpt>
      <trkpt lat="45.83953" lon="1.15448">
        <ele>322.5</ele>
        <time>2024-11-28T13:30:52Z</time>
      </trkpt>
      <trkpt lat="45.8396" lon="1.1545">
        <ele>322.8</ele>
        <time>2024-11-28T13:30:55Z</time>
      </trkpt>
      <trkpt lat="45.8397" lon="1.15441">
        <ele>323</ele>
        <time>2024-11-28T13:30:58Z</time>
      </trkpt>
      <trkpt lat="45.83979" lon="1.15431">
        <ele>323</ele>
        <time>2024-11-28T13:31:01Z</time>
      </trkpt>
      <trkpt lat="45.8399" lon="1.1542">
        <ele>323.1</ele>
        <time>2024-11-28T13:31:04Z</time>
      </trkpt>
      <trkpt lat="45.84001" lon="1.15408">
        <ele>323.4</ele>
        <time>2024-11-28T13:31:07Z</time>
      </trkpt>
      <trkpt lat="45.84012" lon="1.15394">
        <ele>323.8</ele>
        <time>2024-11-28T13:31:10Z</time>
      </trkpt>
      <trkpt lat="45.84022" lon="1.15384">
        <ele>324.4</ele>
        <time>2024-11-28T13:31:13Z</time>
      </trkpt>
      <trkpt lat="45.84031" lon="1.15374">
        <ele>325</ele>
        <time>2024-11-28T13:31:16Z</time>
      </trkpt>
      <trkpt lat="45.8404" lon="1.15365">
        <ele>325.6</ele>
        <time>2024-11-28T13:31:19Z</time>
      </trkpt>
      <trkpt lat="45.84049" lon="1.15355">
        <ele>326.1</ele>
        <time>2024-11-28T13:31:22Z</time>
      </trkpt>
      <trkpt lat="45.84059" lon="1.15343">
        <ele>326.5</ele>
        <time>2024-11-28T13:31:25Z</time>
      </trkpt>
      <trkpt lat="45.8407" lon="1.15331">
        <ele>326.9</ele>
        <time>2024-11-28T13:31:28Z</time>
      </trkpt>
      <trkpt lat="45.8408" lon="1.15319">
        <ele>327.2</ele>
        <time>2024-11-28T13:31:31Z</time>
      </trkpt>
      <trkpt lat="45.8409" lon="1.15308">
        <ele>327.4</ele>
        <time>2024-11-28T13:31:34Z</time>
      </trkpt>
      <trkpt lat="45.84099" lon="1.15296">
        <ele>327.6</ele>
        <time>2024-11-28T13:31:37Z</time>
      </trkpt>
      <trkpt lat="45.8411" lon="1.15284">
        <ele>327.8</ele>
        <time>2024-11-28T13:31:40Z</time>
      </trkpt>
      <trkpt lat="45.8412" lon="1.15273">
        <ele>328</ele>
        <time>2024-11-28T13:31:43Z</time>
      </trkpt>
      <trkpt lat="45.8413" lon="1.15261">
        <ele>328.3</ele>
        <time>2024-11-28T13:31:46Z</time>
      </trkpt>
      <trkpt lat="45.8414" lon="1.15248">
        <ele>328.4</ele>
        <time>2024-11-28T13:31:49Z</time>
      </trkpt>
      <trkpt lat="45.84151" lon="1.15234">
        <ele>328.4</ele>
        <time>2024-11-28T13:31:52Z</time>
      </trkpt>
      <trkpt lat="45.84162" lon="1.15221">
        <ele>328.2</ele>
        <time>2024-11-28T13:31:55Z</time>
      </trkpt>
      <trkpt lat="45.84175" lon="1.15207">
        <ele>328</ele>
        <time>2024-11-28T13:31:58Z</time>
      </trkpt>
      <trkpt lat="45.84187" lon="1.15194">
        <ele>327.7</ele>
        <time>2024-11-28T13:32:01Z</time>
      </trkpt>
      <trkpt lat="45.84199" lon="1.15179">
        <ele>327.4</ele>
        <time>2024-11-28T13:32:04Z</time>
      </trkpt>
      <trkpt lat="45.84212" lon="1.15165">
        <ele>327</ele>
        <time>2024-11-28T13:32:07Z</time>
      </trkpt>
      <trkpt lat="45.84225" lon="1.15151">
        <ele>326.7</ele>
        <time>2024-11-28T13:32:10Z</time>
      </trkpt>
      <trkpt lat="45.84237" lon="1.15135">
        <ele>326.6</ele>
        <time>2024-11-28T13:32:13Z</time>
      </trkpt>
      <trkpt lat="45.84247" lon="1.1512">
        <ele>326.8</ele>
        <time>2024-11-28T13:32:16Z</time>
      </trkpt>
      <trkpt lat="45.84255" lon="1.15105">
        <ele>327</ele>
        <time>2024-11-28T13:32:19Z</time>
      </trkpt>
      <trkpt lat="45.84252" lon="1.1509">
        <ele>326.4</ele>
        <time>2024-11-28T13:32:22Z</time>
      </trkpt>
      <trkpt lat="45.84237" lon="1.15077">
        <ele>324.5</ele>
        <time>2024-11-28T13:32:25Z</time>
      </trkpt>
      <trkpt lat="45.84217" lon="1.15064">
        <ele>321.4</ele>
        <time>2024-11-28T13:32:28Z</time>
      </trkpt>
      <trkpt lat="45.84193" lon="1.1505">
        <ele>318.7</ele>
        <time>2024-11-28T13:32:31Z</time>
      </trkpt>
      <trkpt lat="45.84169" lon="1.15041">
        <ele>318</ele>
        <time>2024-11-28T13:32:34Z</time>
      </trkpt>
      <trkpt lat="45.84146" lon="1.15035">
        <ele>318.6</ele>
        <time>2024-11-28T13:32:37Z</time>
      </trkpt>
      <trkpt lat="45.84127" lon="1.1503">
        <ele>319.5</ele>
        <time>2024-11-28T13:32:40Z</time>
      </trkpt>
      <trkpt lat="45.8411" lon="1.15027">
        <ele>320.7</ele>
        <time>2024-11-28T13:32:43Z</time>
      </trkpt>
      <trkpt lat="45.84095" lon="1.15023">
        <ele>321.9</ele>
        <time>2024-11-28T13:32:46Z</time>
      </trkpt>
      <trkpt lat="45.84081" lon="1.1502">
        <ele>323.4</ele>
        <time>2024-11-28T13:32:49Z</time>
      </trkpt>
      <trkpt lat="45.8407" lon="1.15018">
        <ele>324.4</ele>
        <time>2024-11-28T13:32:52Z</time>
      </trkpt>
      <trkpt lat="45.84061" lon="1.15012">
        <ele>324.7</ele>
        <time>2024-11-28T13:32:55Z</time>
      </trkpt>
      <trkpt lat="45.84048" lon="1.15008">
        <ele>324.8</ele>
        <time>2024-11-28T13:32:58Z</time>
      </trkpt>
      <trkpt lat="45.84034" lon="1.15003">
        <ele>324.7</ele>
        <time>2024-11-28T13:33:01Z</time>
      </trkpt>
      <trkpt lat="45.8402" lon="1.14999">
        <ele>324.6</ele>
        <time>2024-11-28T13:33:04Z</time>
      </trkpt>
      <trkpt lat="45.84008" lon="1.14995">
        <ele>324.3</ele>
        <time>2024-11-28T13:33:07Z</time>
      </trkpt>
      <trkpt lat="45.83984" lon="1.14985">
        <ele>323.3</ele>
        <time>2024-11-28T13:33:10Z</time>
      </trkpt>
      <trkpt lat="45.83966" lon="1.14977">
        <ele>321.9</ele>
        <time>2024-11-28T13:33:13Z</time>
      </trkpt>
      <trkpt lat="45.83949" lon="1.14966">
        <ele>320.4</ele>
        <time>2024-11-28T13:33:16Z</time>
      </trkpt>
      <trkpt lat="45.83931" lon="1.14957">
        <ele>319</ele>
        <time>2024-11-28T13:33:19Z</time>
      </trkpt>
      <trkpt lat="45.83916" lon="1.14949">
        <ele>317.2</ele>
        <time>2024-11-28T13:33:22Z</time>
      </trkpt>
      <trkpt lat="45.83901" lon="1.14941">
        <ele>314.7</ele>
        <time>2024-11-28T13:33:25Z</time>
      </trkpt>
      <trkpt lat="45.83888" lon="1.14932">
        <ele>307.1</ele>
        <time>2024-11-28T13:33:28Z</time>
      </trkpt>
      <trkpt lat="45.83874" lon="1.14929">
        <ele>298.8</ele>
        <time>2024-11-28T13:33:31Z</time>
      </trkpt>
      <trkpt lat="45.83855" lon="1.14919">
        <ele>297.6</ele>
        <time>2024-11-28T13:33:34Z</time>
      </trkpt>
      <trkpt lat="45.83837" lon="1.1491">
        <ele>296.6</ele>
        <time>2024-11-28T13:33:37Z</time>
      </trkpt>
      <trkpt lat="45.83819" lon="1.14902">
        <ele>295.6</ele>
        <time>2024-11-28T13:33:40Z</time>
      </trkpt>
      <trkpt lat="45.83801" lon="1.14895">
        <ele>294.5</ele>
        <time>2024-11-28T13:33:43Z</time>
      </trkpt>
      <trkpt lat="45.83783" lon="1.14886">
        <ele>293.5</ele>
        <time>2024-11-28T13:33:46Z</time>
      </trkpt>
      <trkpt lat="45.83766" lon="1.1488">
        <ele>292.5</ele>
        <time>2024-11-28T13:33:49Z</time>
      </trkpt>
      <trkpt lat="45.83749" lon="1.14873">
        <ele>291.4</ele>
        <time>2024-11-28T13:33:52Z</time>
      </trkpt>
      <trkpt lat="45.83732" lon="1.14867">
        <ele>290.3</ele>
        <time>2024-11-28T13:33:55Z</time>
      </trkpt>
      <trkpt lat="45.83719" lon="1.14859">
        <ele>289.5</ele>
        <time>2024-11-28T13:33:58Z</time>
      </trkpt>
      <trkpt lat="45.83705" lon="1.14853">
        <ele>288.7</ele>
        <time>2024-11-28T13:34:01Z</time>
      </trkpt>
      <trkpt lat="45.83689" lon="1.14849">
        <ele>287.9</ele>
        <time>2024-11-28T13:34:04Z</time>
      </trkpt>
      <trkpt lat="45.83674" lon="1.14846">
        <ele>287.1</ele>
        <time>2024-11-28T13:34:07Z</time>
      </trkpt>
      <trkpt lat="45.83659" lon="1.1484">
        <ele>286.3</ele>
        <time>2024-11-28T13:34:10Z</time>
      </trkpt>
      <trkpt lat="45.83645" lon="1.14838">
        <ele>285.6</ele>
        <time>2024-11-28T13:34:13Z</time>
      </trkpt>
      <trkpt lat="45.83638" lon="1.14838">
        <ele>285.3</ele>
        <time>2024-11-28T13:34:16Z</time>
      </trkpt>
      <trkpt lat="45.83633" lon="1.14838">
        <ele>285</ele>
        <time>2024-11-28T13:34:19Z</time>
      </trkpt>
      <trkpt lat="45.83627" lon="1.14836">
        <ele>284.6</ele>
        <time>2024-11-28T13:34:22Z</time>
      </trkpt>
      <trkpt lat="45.83621" lon="1.14831">
        <ele>284.2</ele>
        <time>2024-11-28T13:34:25Z</time>
      </trkpt>
      <trkpt lat="45.83614" lon="1.14828">
        <ele>283.8</ele>
        <time>2024-11-28T13:34:28Z</time>
      </trkpt>
      <trkpt lat="45.83604" lon="1.14829">
        <ele>283.3</ele>
        <time>2024-11-28T13:34:31Z</time>
      </trkpt>
      <trkpt lat="45.83595" lon="1.14829">
        <ele>282.8</ele>
        <time>2024-11-28T13:34:34Z</time>
      </trkpt>
      <trkpt lat="45.83586" lon="1.14829">
        <ele>282.3</ele>
        <time>2024-11-28T13:34:37Z</time>
      </trkpt>
      <trkpt lat="45.83577" lon="1.1483">
        <ele>283.7</ele>
        <time>2024-11-28T13:34:40Z</time>
      </trkpt>
      <trkpt lat="45.83568" lon="1.14832">
        <ele>285.1</ele>
        <time>2024-11-28T13:34:43Z</time>
      </trkpt>
      <trkpt lat="45.83558" lon="1.14832">
        <ele>286.8</ele>
        <time>2024-11-28T13:34:46Z</time>
      </trkpt>
      <trkpt lat="45.83548" lon="1.14831">
        <ele>288.3</ele>
        <time>2024-11-28T13:34:49Z</time>
      </trkpt>
      <trkpt lat="45.83537" lon="1.1483">
        <ele>289.9</ele>
        <time>2024-11-28T13:34:52Z</time>
      </trkpt>
      <trkpt lat="45.83526" lon="1.14831">
        <ele>291.2</ele>
        <time>2024-11-28T13:34:55Z</time>
      </trkpt>
      <trkpt lat="45.83517" lon="1.14836">
        <ele>291.1</ele>
        <time>2024-11-28T13:34:58Z</time>
      </trkpt>
      <trkpt lat="45.83512" lon="1.14847">
        <ele>291</ele>
        <time>2024-11-28T13:35:01Z</time>
      </trkpt>
      <trkpt lat="45.83506" lon="1.14858">
        <ele>291</ele>
        <time>2024-11-28T13:35:04Z</time>
      </trkpt>
      <trkpt lat="45.835" lon="1.14868">
        <ele>291.1</ele>
        <time>2024-11-28T13:35:07Z</time>
      </trkpt>
      <trkpt lat="45.83492" lon="1.14876">
        <ele>291.3</ele>
        <time>2024-11-28T13:35:10Z</time>
      </trkpt>
      <trkpt lat="45.83483" lon="1.1488">
        <ele>291.3</ele>
        <time>2024-11-28T13:35:13Z</time>
      </trkpt>
      <trkpt lat="45.83472" lon="1.14883">
        <ele>291.1</ele>
        <time>2024-11-28T13:35:16Z</time>
      </trkpt>
      <trkpt lat="45.83459" lon="1.14889">
        <ele>290.5</ele>
        <time>2024-11-28T13:35:19Z</time>
      </trkpt>
      <trkpt lat="45.83445" lon="1.14897">
        <ele>289.7</ele>
        <time>2024-11-28T13:35:22Z</time>
      </trkpt>
      <trkpt lat="45.8343" lon="1.14906">
        <ele>288.7</ele>
        <time>2024-11-28T13:35:25Z</time>
      </trkpt>
      <trkpt lat="45.83418" lon="1.1492">
        <ele>287.9</ele>
        <time>2024-11-28T13:35:28Z</time>
      </trkpt>
      <trkpt lat="45.83406" lon="1.14929">
        <ele>287.2</ele>
        <time>2024-11-28T13:35:31Z</time>
      </trkpt>
      <trkpt lat="45.83393" lon="1.1494">
        <ele>286.5</ele>
        <time>2024-11-28T13:35:34Z</time>
      </trkpt>
      <trkpt lat="45.83382" lon="1.14945">
        <ele>285.9</ele>
        <time>2024-11-28T13:35:37Z</time>
      </trkpt>
      <trkpt lat="45.83377" lon="1.14939">
        <ele>285.1</ele>
        <time>2024-11-28T13:35:40Z</time>
      </trkpt>
      <trkpt lat="45.83382" lon="1.14927">
        <ele>285.2</ele>
        <time>2024-11-28T13:35:43Z</time>
      </trkpt>
      <trkpt lat="45.83389" lon="1.14912">
        <ele>285.3</ele>
        <time>2024-11-28T13:35:46Z</time>
      </trkpt>
      <trkpt lat="45.83397" lon="1.14897">
        <ele>285.4</ele>
        <time>2024-11-28T13:35:49Z</time>
      </trkpt>
      <trkpt lat="45.83406" lon="1.14884">
        <ele>285.5</ele>
        <time>2024-11-28T13:35:52Z</time>
      </trkpt>
      <trkpt lat="45.83418" lon="1.14874">
        <ele>285.7</ele>
        <time>2024-11-28T13:35:55Z</time>
      </trkpt>
      <trkpt lat="45.83431" lon="1.1487">
        <ele>285.8</ele>
        <time>2024-11-28T13:35:58Z</time>
      </trkpt>
      <trkpt lat="45.83445" lon="1.14867">
        <ele>285.9</ele>
        <time>2024-11-28T13:36:01Z</time>
      </trkpt>
      <trkpt lat="45.8346" lon="1.14866">
        <ele>285.9</ele>
        <time>2024-11-28T13:36:04Z</time>
      </trkpt>
      <trkpt lat="45.83474" lon="1.14863">
        <ele>285.9</ele>
        <time>2024-11-28T13:36:07Z</time>
      </trkpt>
      <trkpt lat="45.83489" lon="1.14855">
        <ele>285.8</ele>
        <time>2024-11-28T13:36:10Z</time>
      </trkpt>
      <trkpt lat="45.835" lon="1.14838">
        <ele>285.5</ele>
        <time>2024-11-28T13:36:13Z</time>
      </trkpt>
      <trkpt lat="45.83505" lon="1.14815">
        <ele>285.2</ele>
        <time>2024-11-28T13:36:16Z</time>
      </trkpt>
      <trkpt lat="45.83507" lon="1.14792">
        <ele>284.9</ele>
        <time>2024-11-28T13:36:19Z</time>
      </trkpt>
      <trkpt lat="45.8351" lon="1.14768">
        <ele>284.6</ele>
        <time>2024-11-28T13:36:22Z</time>
      </trkpt>
      <trkpt lat="45.8351" lon="1.14745">
        <ele>284.2</ele>
        <time>2024-11-28T13:36:25Z</time>
      </trkpt>
      <trkpt lat="45.83502" lon="1.14729">
        <ele>283.8</ele>
        <time>2024-11-28T13:36:28Z</time>
      </trkpt>
      <trkpt lat="45.83489" lon="1.14723">
        <ele>283</ele>
        <time>2024-11-28T13:36:31Z</time>
      </trkpt>
      <trkpt lat="45.83476" lon="1.14718">
        <ele>281.6</ele>
        <time>2024-11-28T13:36:34Z</time>
      </trkpt>
      <trkpt lat="45.83466" lon="1.14709">
        <ele>279.9</ele>
        <time>2024-11-28T13:36:37Z</time>
      </trkpt>
      <trkpt lat="45.83464" lon="1.14689">
        <ele>278</ele>
        <time>2024-11-28T13:36:40Z</time>
      </trkpt>
      <trkpt lat="45.83468" lon="1.14672">
        <ele>277.5</ele>
        <time>2024-11-28T13:36:43Z</time>
      </trkpt>
      <trkpt lat="45.83471" lon="1.14659">
        <ele>277.1</ele>
        <time>2024-11-28T13:36:46Z</time>
      </trkpt>
      <trkpt lat="45.83473" lon="1.14652">
        <ele>277</ele>
        <time>2024-11-28T13:36:49Z</time>
      </trkpt>
      <trkpt lat="45.83477" lon="1.14634">
        <ele>277.2</ele>
        <time>2024-11-28T13:36:52Z</time>
      </trkpt>
      <trkpt lat="45.83476" lon="1.14618">
        <ele>277.9</ele>
        <time>2024-11-28T13:36:55Z</time>
      </trkpt>
      <trkpt lat="45.83475" lon="1.14608">
        <ele>278.5</ele>
        <time>2024-11-28T13:36:58Z</time>
      </trkpt>
      <trkpt lat="45.83474" lon="1.14595">
        <ele>279.6</ele>
        <time>2024-11-28T13:37:01Z</time>
      </trkpt>
      <trkpt lat="45.83474" lon="1.14581">
        <ele>280.9</ele>
        <time>2024-11-28T13:37:04Z</time>
      </trkpt>
      <trkpt lat="45.83474" lon="1.1457">
        <ele>282.2</ele>
        <time>2024-11-28T13:37:07Z</time>
      </trkpt>
      <trkpt lat="45.83473" lon="1.14559">
        <ele>283.5</ele>
        <time>2024-11-28T13:37:10Z</time>
      </trkpt>
      <trkpt lat="45.83475" lon="1.1455">
        <ele>284.6</ele>
        <time>2024-11-28T13:37:13Z</time>
      </trkpt>
      <trkpt lat="45.83477" lon="1.14541">
        <ele>285.8</ele>
        <time>2024-11-28T13:37:16Z</time>
      </trkpt>
      <trkpt lat="45.83481" lon="1.14531">
        <ele>287.1</ele>
        <time>2024-11-28T13:37:19Z</time>
      </trkpt>
      <trkpt lat="45.83485" lon="1.14524">
        <ele>288.3</ele>
        <time>2024-11-28T13:37:22Z</time>
      </trkpt>
      <trkpt lat="45.83489" lon="1.14516">
        <ele>289.5</ele>
        <time>2024-11-28T13:37:25Z</time>
      </trkpt>
      <trkpt lat="45.83492" lon="1.14507">
        <ele>290.6</ele>
        <time>2024-11-28T13:37:28Z</time>
      </trkpt>
      <trkpt lat="45.83495" lon="1.14498">
        <ele>291.9</ele>
        <time>2024-11-28T13:37:31Z</time>
      </trkpt>
      <trkpt lat="45.83498" lon="1.14489">
        <ele>293</ele>
        <time>2024-11-28T13:37:34Z</time>
      </trkpt>
      <trkpt lat="45.83501" lon="1.1448">
        <ele>294</ele>
        <time>2024-11-28T13:37:37Z</time>
      </trkpt>
      <trkpt lat="45.83503" lon="1.14471">
        <ele>295</ele>
        <time>2024-11-28T13:37:40Z</time>
      </trkpt>
      <trkpt lat="45.83506" lon="1.14461">
        <ele>295.9</ele>
        <time>2024-11-28T13:37:43Z</time>
      </trkpt>
      <trkpt lat="45.83509" lon="1.1445">
        <ele>296.8</ele>
        <time>2024-11-28T13:37:46Z</time>
      </trkpt>
      <trkpt lat="45.83512" lon="1.1444">
        <ele>297.6</ele>
        <time>2024-11-28T13:37:49Z</time>
      </trkpt>
      <trkpt lat="45.83515" lon="1.14429">
        <ele>298.3</ele>
        <time>2024-11-28T13:37:52Z</time>
      </trkpt>
      <trkpt lat="45.83517" lon="1.14418">
        <ele>299</ele>
        <time>2024-11-28T13:37:55Z</time>
      </trkpt>
      <trkpt lat="45.83517" lon="1.14407">
        <ele>299.6</ele>
        <time>2024-11-28T13:37:58Z</time>
      </trkpt>
      <trkpt lat="45.83519" lon="1.14396">
        <ele>300.3</ele>
        <time>2024-11-28T13:38:01Z</time>
      </trkpt>
      <trkpt lat="45.83522" lon="1.14386">
        <ele>300.9</ele>
        <time>2024-11-28T13:38:04Z</time>
      </trkpt>
      <trkpt lat="45.83523" lon="1.14374">
        <ele>301.5</ele>
        <time>2024-11-28T13:38:07Z</time>
      </trkpt>
      <trkpt lat="45.83525" lon="1.14362">
        <ele>302.3</ele>
        <time>2024-11-28T13:38:10Z</time>
      </trkpt>
      <trkpt lat="45.83526" lon="1.14351">
        <ele>303</ele>
        <time>2024-11-28T13:38:13Z</time>
      </trkpt>
      <trkpt lat="45.83527" lon="1.14341">
        <ele>303.7</ele>
        <time>2024-11-28T13:38:16Z</time>
      </trkpt>
      <trkpt lat="45.83528" lon="1.1433">
        <ele>304.3</ele>
        <time>2024-11-28T13:38:19Z</time>
      </trkpt>
      <trkpt lat="45.8353" lon="1.14319">
        <ele>305.1</ele>
        <time>2024-11-28T13:38:22Z</time>
      </trkpt>
      <trkpt lat="45.83533" lon="1.14308">
        <ele>305.8</ele>
        <time>2024-11-28T13:38:25Z</time>
      </trkpt>
      <trkpt lat="45.83535" lon="1.14296">
        <ele>306.5</ele>
        <time>2024-11-28T13:38:28Z</time>
      </trkpt>
      <trkpt lat="45.83537" lon="1.14283">
        <ele>307.1</ele>
        <time>2024-11-28T13:38:31Z</time>
      </trkpt>
      <trkpt lat="45.83538" lon="1.1427">
        <ele>307.8</ele>
        <time>2024-11-28T13:38:34Z</time>
      </trkpt>
      <trkpt lat="45.8354" lon="1.14259">
        <ele>308.3</ele>
        <time>2024-11-28T13:38:37Z</time>
      </trkpt>
      <trkpt lat="45.83542" lon="1.14246">
        <ele>308.9</ele>
        <time>2024-11-28T13:38:40Z</time>
      </trkpt>
      <trkpt lat="45.83543" lon="1.14234">
        <ele>309.4</ele>
        <time>2024-11-28T13:38:43Z</time>
      </trkpt>
      <trkpt lat="45.83544" lon="1.14221">
        <ele>309.9</ele>
        <time>2024-11-28T13:38:46Z</time>
      </trkpt>
      <trkpt lat="45.83545" lon="1.14209">
        <ele>310.4</ele>
        <time>2024-11-28T13:38:49Z</time>
      </trkpt>
      <trkpt lat="45.83546" lon="1.14195">
        <ele>310.9</ele>
        <time>2024-11-28T13:38:52Z</time>
      </trkpt>
      <trkpt lat="45.83546" lon="1.14182">
        <ele>311.4</ele>
        <time>2024-11-28T13:38:55Z</time>
      </trkpt>
      <trkpt lat="45.83547" lon="1.14167">
        <ele>311.9</ele>
        <time>2024-11-28T13:38:58Z</time>
      </trkpt>
      <trkpt lat="45.83548" lon="1.14153">
        <ele>312.3</ele>
        <time>2024-11-28T13:39:01Z</time>
      </trkpt>
      <trkpt lat="45.83549" lon="1.14138">
        <ele>312.7</ele>
        <time>2024-11-28T13:39:04Z</time>
      </trkpt>
      <trkpt lat="45.83551" lon="1.14123">
        <ele>313</ele>
        <time>2024-11-28T13:39:07Z</time>
      </trkpt>
      <trkpt lat="45.83552" lon="1.14105">
        <ele>313.3</ele>
        <time>2024-11-28T13:39:10Z</time>
      </trkpt>
      <trkpt lat="45.83554" lon="1.14088">
        <ele>313.6</ele>
        <time>2024-11-28T13:39:13Z</time>
      </trkpt>
      <trkpt lat="45.83557" lon="1.14075">
        <ele>313.7</ele>
        <time>2024-11-28T13:39:16Z</time>
      </trkpt>
      <trkpt lat="45.83559" lon="1.14059">
        <ele>313.3</ele>
        <time>2024-11-28T13:39:19Z</time>
      </trkpt>
      <trkpt lat="45.83563" lon="1.1404">
        <ele>312.7</ele>
        <time>2024-11-28T13:39:22Z</time>
      </trkpt>
      <trkpt lat="45.83568" lon="1.14018">
        <ele>311.9</ele>
        <time>2024-11-28T13:39:25Z</time>
      </trkpt>
      <trkpt lat="45.83574" lon="1.13992">
        <ele>310.8</ele>
        <time>2024-11-28T13:39:28Z</time>
      </trkpt>
      <trkpt lat="45.83579" lon="1.13965">
        <ele>309.7</ele>
        <time>2024-11-28T13:39:31Z</time>
      </trkpt>
      <trkpt lat="45.83585" lon="1.13937">
        <ele>308.7</ele>
        <time>2024-11-28T13:39:34Z</time>
      </trkpt>
      <trkpt lat="45.83592" lon="1.13907">
        <ele>307.9</ele>
        <time>2024-11-28T13:39:37Z</time>
      </trkpt>
      <trkpt lat="45.83599" lon="1.13878">
        <ele>307.3</ele>
        <time>2024-11-28T13:39:40Z</time>
      </trkpt>
      <trkpt lat="45.83606" lon="1.13849">
        <ele>306.7</ele>
        <time>2024-11-28T13:39:43Z</time>
      </trkpt>
      <trkpt lat="45.83612" lon="1.13821">
        <ele>306.1</ele>
        <time>2024-11-28T13:39:46Z</time>
      </trkpt>
      <trkpt lat="45.83619" lon="1.13791">
        <ele>305.3</ele>
        <time>2024-11-28T13:39:49Z</time>
      </trkpt>
      <trkpt lat="45.83626" lon="1.13762">
        <ele>304.4</ele>
        <time>2024-11-28T13:39:52Z</time>
      </trkpt>
      <trkpt lat="45.83632" lon="1.13733">
        <ele>303.6</ele>
        <time>2024-11-28T13:39:55Z</time>
      </trkpt>
      <trkpt lat="45.83639" lon="1.13702">
        <ele>302.8</ele>
        <time>2024-11-28T13:39:58Z</time>
      </trkpt>
      <trkpt lat="45.83646" lon="1.13673">
        <ele>301.9</ele>
        <time>2024-11-28T13:40:01Z</time>
      </trkpt>
      <trkpt lat="45.83653" lon="1.13642">
        <ele>300.9</ele>
        <time>2024-11-28T13:40:04Z</time>
      </trkpt>
      <trkpt lat="45.8366" lon="1.13611">
        <ele>299.9</ele>
        <time>2024-11-28T13:40:07Z</time>
      </trkpt>
      <trkpt lat="45.83667" lon="1.1358">
        <ele>298.7</ele>
        <time>2024-11-28T13:40:10Z</time>
      </trkpt>
      <trkpt lat="45.83674" lon="1.13548">
        <ele>297.5</ele>
        <time>2024-11-28T13:40:13Z</time>
      </trkpt>
      <trkpt lat="45.83682" lon="1.13515">
        <ele>296.4</ele>
        <time>2024-11-28T13:40:16Z</time>
      </trkpt>
      <trkpt lat="45.83689" lon="1.13482">
        <ele>295.6</ele>
        <time>2024-11-28T13:40:19Z</time>
      </trkpt>
      <trkpt lat="45.83695" lon="1.1345">
        <ele>295</ele>
        <time>2024-11-28T13:40:22Z</time>
      </trkpt>
      <trkpt lat="45.83702" lon="1.13425">
        <ele>294.5</ele>
        <time>2024-11-28T13:40:25Z</time>
      </trkpt>
      <trkpt lat="45.83705" lon="1.13408">
        <ele>294.2</ele>
        <time>2024-11-28T13:40:28Z</time>
      </trkpt>
      <trkpt lat="45.83711" lon="1.13397">
        <ele>293.9</ele>
        <time>2024-11-28T13:40:31Z</time>
      </trkpt>
      <trkpt lat="45.83716" lon="1.13387">
        <ele>293.6</ele>
        <time>2024-11-28T13:40:34Z</time>
      </trkpt>
      <trkpt lat="45.83721" lon="1.13376">
        <ele>293.2</ele>
        <time>2024-11-28T13:40:37Z</time>
      </trkpt>
      <trkpt lat="45.83728" lon="1.13365">
        <ele>292.6</ele>
        <time>2024-11-28T13:40:40Z</time>
      </trkpt>
      <trkpt lat="45.83737" lon="1.13355">
        <ele>291.9</ele>
        <time>2024-11-28T13:40:43Z</time>
      </trkpt>
      <trkpt lat="45.83745" lon="1.13345">
        <ele>291.1</ele>
        <time>2024-11-28T13:40:46Z</time>
      </trkpt>
      <trkpt lat="45.83755" lon="1.13336">
        <ele>290.2</ele>
        <time>2024-11-28T13:40:49Z</time>
      </trkpt>
      <trkpt lat="45.83762" lon="1.1333">
        <ele>289.5</ele>
        <time>2024-11-28T13:40:52Z</time>
      </trkpt>
      <trkpt lat="45.83769" lon="1.13324">
        <ele>288.7</ele>
        <time>2024-11-28T13:40:55Z</time>
      </trkpt>
      <trkpt lat="45.83773" lon="1.13319">
        <ele>288.2</ele>
        <time>2024-11-28T13:40:58Z</time>
      </trkpt>
      <trkpt lat="45.83775" lon="1.13315">
        <ele>287.7</ele>
        <time>2024-11-28T13:41:01Z</time>
      </trkpt>
      <trkpt lat="45.83775" lon="1.13316">
        <ele>287.6</ele>
        <time>2024-11-28T13:41:04Z</time>
      </trkpt>
      <trkpt lat="45.83774" lon="1.13316">
        <ele>287.5</ele>
        <time>2024-11-28T13:41:07Z</time>
      </trkpt>
      <trkpt lat="45.83774" lon="1.13314">
        <ele>287.4</ele>
        <time>2024-11-28T13:41:10Z</time>
      </trkpt>
      <trkpt lat="45.83775" lon="1.13302">
        <ele>286.3</ele>
        <time>2024-11-28T13:41:13Z</time>
      </trkpt>
      <trkpt lat="45.83776" lon="1.13285">
        <ele>284.8</ele>
        <time>2024-11-28T13:41:16Z</time>
      </trkpt>
      <trkpt lat="45.83779" lon="1.13267">
        <ele>282.9</ele>
        <time>2024-11-28T13:41:19Z</time>
      </trkpt>
      <trkpt lat="45.83781" lon="1.13247">
        <ele>280.9</ele>
        <time>2024-11-28T13:41:22Z</time>
      </trkpt>
      <trkpt lat="45.83783" lon="1.1323">
        <ele>279.3</ele>
        <time>2024-11-28T13:41:25Z</time>
      </trkpt>
      <trkpt lat="45.83787" lon="1.13208">
        <ele>277.7</ele>
        <time>2024-11-28T13:41:28Z</time>
      </trkpt>
      <trkpt lat="45.83789" lon="1.13188">
        <ele>276.4</ele>
        <time>2024-11-28T13:41:31Z</time>
      </trkpt>
      <trkpt lat="45.83794" lon="1.13172">
        <ele>275.2</ele>
        <time>2024-11-28T13:41:34Z</time>
      </trkpt>
      <trkpt lat="45.838" lon="1.13157">
        <ele>273.8</ele>
        <time>2024-11-28T13:41:37Z</time>
      </trkpt>
      <trkpt lat="45.83803" lon="1.13144">
        <ele>272.8</ele>
        <time>2024-11-28T13:41:40Z</time>
      </trkpt>
      <trkpt lat="45.83804" lon="1.13129">
        <ele>272</ele>
        <time>2024-11-28T13:41:43Z</time>
      </trkpt>
      <trkpt lat="45.83811" lon="1.13113">
        <ele>271.1</ele>
        <time>2024-11-28T13:41:46Z</time>
      </trkpt>
      <trkpt lat="45.83823" lon="1.13097">
        <ele>270.1</ele>
        <time>2024-11-28T13:41:49Z</time>
      </trkpt>
      <trkpt lat="45.83834" lon="1.1308">
        <ele>269</ele>
        <time>2024-11-28T13:41:52Z</time>
      </trkpt>
      <trkpt lat="45.83839" lon="1.13066">
        <ele>268</ele>
        <time>2024-11-28T13:41:55Z</time>
      </trkpt>
      <trkpt lat="45.83841" lon="1.13049">
        <ele>266.5</ele>
        <time>2024-11-28T13:41:58Z</time>
      </trkpt>
      <trkpt lat="45.83845" lon="1.1303">
        <ele>264.4</ele>
        <time>2024-11-28T13:42:01Z</time>
      </trkpt>
      <trkpt lat="45.83846" lon="1.13015">
        <ele>262.8</ele>
        <time>2024-11-28T13:42:04Z</time>
      </trkpt>
      <trkpt lat="45.83849" lon="1.13002">
        <ele>261.3</ele>
        <time>2024-11-28T13:42:07Z</time>
      </trkpt>
      <trkpt lat="45.83853" lon="1.12981">
        <ele>258.8</ele>
        <time>2024-11-28T13:42:10Z</time>
      </trkpt>
      <trkpt lat="45.83858" lon="1.12971">
        <ele>257.3</ele>
        <time>2024-11-28T13:42:13Z</time>
      </trkpt>
      <trkpt lat="45.83862" lon="1.1296">
        <ele>256</ele>
        <time>2024-11-28T13:42:16Z</time>
      </trkpt>
      <trkpt lat="45.83867" lon="1.12945">
        <ele>254.3</ele>
        <time>2024-11-28T13:42:19Z</time>
      </trkpt>
      <trkpt lat="45.83873" lon="1.12929">
        <ele>252.7</ele>
        <time>2024-11-28T13:42:22Z</time>
      </trkpt>
      <trkpt lat="45.8388" lon="1.12913">
        <ele>251.2</ele>
        <time>2024-11-28T13:42:25Z</time>
      </trkpt>
      <trkpt lat="45.83884" lon="1.12901">
        <ele>249.8</ele>
        <time>2024-11-28T13:42:28Z</time>
      </trkpt>
      <trkpt lat="45.8389" lon="1.12889">
        <ele>248.2</ele>
        <time>2024-11-28T13:42:31Z</time>
      </trkpt>
      <trkpt lat="45.83895" lon="1.12871">
        <ele>245.9</ele>
        <time>2024-11-28T13:42:34Z</time>
      </trkpt>
      <trkpt lat="45.83905" lon="1.12852">
        <ele>243.5</ele>
        <time>2024-11-28T13:42:37Z</time>
      </trkpt>
      <trkpt lat="45.83912" lon="1.12839">
        <ele>242.3</ele>
        <time>2024-11-28T13:42:40Z</time>
      </trkpt>
      <trkpt lat="45.83912" lon="1.1284">
        <ele>242.3</ele>
        <time>2024-11-28T13:42:43Z</time>
      </trkpt>
      <trkpt lat="45.83912" lon="1.1284">
        <ele>242.2</ele>
        <time>2024-11-28T13:42:46Z</time>
      </trkpt>
      <trkpt lat="45.83911" lon="1.12841">
        <ele>242.2</ele>
        <time>2024-11-28T13:42:49Z</time>
      </trkpt>
      <trkpt lat="45.83912" lon="1.12841">
        <ele>242.2</ele>
        <time>2024-11-28T13:42:52Z</time>
      </trkpt>
      <trkpt lat="45.83912" lon="1.12843">
        <ele>242.1</ele>
        <time>2024-11-28T13:42:55Z</time>
      </trkpt>
      <trkpt lat="45.83913" lon="1.12844">
        <ele>242.1</ele>
        <time>2024-11-28T13:42:58Z</time>
      </trkpt>
      <trkpt lat="45.83914" lon="1.12844">
        <ele>242</ele>
        <time>2024-11-28T13:43:01Z</time>
      </trkpt>
      <trkpt lat="45.83914" lon="1.12844">
        <ele>242</ele>
        <time>2024-11-28T13:43:04Z</time>
      </trkpt>
      <trkpt lat="45.83915" lon="1.12844">
        <ele>242</ele>
        <time>2024-11-28T13:43:07Z</time>
      </trkpt>
      <trkpt lat="45.83914" lon="1.12845">
        <ele>242</ele>
        <time>2024-11-28T13:43:10Z</time>
      </trkpt>
      <trkpt lat="45.83914" lon="1.12845">
        <ele>241.9</ele>
        <time>2024-11-28T13:43:13Z</time>
      </trkpt>
      <trkpt lat="45.83914" lon="1.12844">
        <ele>241.9</ele>
        <time>2024-11-28T13:43:16Z</time>
      </trkpt>
      <trkpt lat="45.83913" lon="1.12844">
        <ele>241.9</ele>
        <time>2024-11-28T13:43:19Z</time>
      </trkpt>
      <trkpt lat="45.83914" lon="1.12845">
        <ele>241.9</ele>
        <time>2024-11-28T13:43:22Z</time>
      </trkpt>
      <trkpt lat="45.83914" lon="1.12845">
        <ele>241.9</ele>
        <time>2024-11-28T13:43:25Z</time>
      </trkpt>
      <trkpt lat="45.83914" lon="1.12844">
        <ele>241.8</ele>
        <time>2024-11-28T13:43:28Z</time>
      </trkpt>
      <trkpt lat="45.83915" lon="1.12843">
        <ele>241.8</ele>
        <time>2024-11-28T13:43:31Z</time>
      </trkpt>
      <trkpt lat="45.83915" lon="1.12842">
        <ele>241.7</ele>
        <time>2024-11-28T13:43:34Z</time>
      </trkpt>
      <trkpt lat="45.83915" lon="1.12841">
        <ele>241.7</ele>
        <time>2024-11-28T13:43:37Z</time>
      </trkpt>
      <trkpt lat="45.83914" lon="1.1284">
        <ele>241.6</ele>
        <time>2024-11-28T13:43:40Z</time>
      </trkpt>
      <trkpt lat="45.83914" lon="1.12839">
        <ele>241.6</ele>
        <time>2024-11-28T13:43:43Z</time>
      </trkpt>
      <trkpt lat="45.83914" lon="1.12839">
        <ele>241.6</ele>
        <time>2024-11-28T13:43:46Z</time>
      </trkpt>
      <trkpt lat="45.83913" lon="1.12839">
        <ele>241.5</ele>
        <time>2024-11-28T13:43:49Z</time>
      </trkpt>
      <trkpt lat="45.83913" lon="1.1284">
        <ele>241.5</ele>
        <time>2024-11-28T13:43:52Z</time>
      </trkpt>
      <trkpt lat="45.83913" lon="1.1284">
        <ele>241.5</ele>
        <time>2024-11-28T13:43:55Z</time>
      </trkpt>
      <trkpt lat="45.83913" lon="1.1284">
        <ele>241.5</ele>
        <time>2024-11-28T13:43:58Z</time>
      </trkpt>
      <trkpt lat="45.83912" lon="1.12839">
        <ele>241.5</ele>
        <time>2024-11-28T13:44:01Z</time>
      </trkpt>
      <trkpt lat="45.83912" lon="1.12837">
        <ele>241.4</ele>
        <time>2024-11-28T13:44:04Z</time>
      </trkpt>
      <trkpt lat="45.83912" lon="1.12836">
        <ele>241.4</ele>
        <time>2024-11-28T13:44:07Z</time>
      </trkpt>
      <trkpt lat="45.83912" lon="1.12836">
        <ele>241.4</ele>
        <time>2024-11-28T13:44:10Z</time>
      </trkpt>
      <trkpt lat="45.83912" lon="1.12834">
        <ele>241.3</ele>
        <time>2024-11-28T13:44:13Z</time>
      </trkpt>
      <trkpt lat="45.83918" lon="1.12832">
        <ele>241.1</ele>
        <time>2024-11-28T13:44:16Z</time>
      </trkpt>
      <trkpt lat="45.83926" lon="1.12838">
        <ele>240.8</ele>
        <time>2024-11-28T13:44:19Z</time>
      </trkpt>
      <trkpt lat="45.83937" lon="1.12849">
        <ele>240.6</ele>
        <time>2024-11-28T13:44:22Z</time>
      </trkpt>
      <trkpt lat="45.8395" lon="1.12857">
        <ele>241.1</ele>
        <time>2024-11-28T13:44:25Z</time>
      </trkpt>
      <trkpt lat="45.83962" lon="1.12861">
        <ele>241.8</ele>
        <time>2024-11-28T13:44:28Z</time>
      </trkpt>
      <trkpt lat="45.83974" lon="1.12864">
        <ele>242.8</ele>
        <time>2024-11-28T13:44:31Z</time>
      </trkpt>
      <trkpt lat="45.83983" lon="1.12868">
        <ele>243.8</ele>
        <time>2024-11-28T13:44:34Z</time>
      </trkpt>
      <trkpt lat="45.83991" lon="1.12872">
        <ele>244.9</ele>
        <time>2024-11-28T13:44:37Z</time>
      </trkpt>
      <trkpt lat="45.83999" lon="1.12875">
        <ele>246.1</ele>
        <time>2024-11-28T13:44:40Z</time>
      </trkpt>
      <trkpt lat="45.84007" lon="1.12876">
        <ele>247.1</ele>
        <time>2024-11-28T13:44:43Z</time>
      </trkpt>
      <trkpt lat="45.84014" lon="1.12876">
        <ele>248.2</ele>
        <time>2024-11-28T13:44:46Z</time>
      </trkpt>
      <trkpt lat="45.84019" lon="1.12876">
        <ele>248.9</ele>
        <time>2024-11-28T13:44:49Z</time>
      </trkpt>
      <trkpt lat="45.84024" lon="1.12876">
        <ele>249.5</ele>
        <time>2024-11-28T13:44:52Z</time>
      </trkpt>
      <trkpt lat="45.84028" lon="1.12875">
        <ele>250.1</ele>
        <time>2024-11-28T13:44:55Z</time>
      </trkpt>
      <trkpt lat="45.84032" lon="1.12874">
        <ele>250.6</ele>
        <time>2024-11-28T13:44:58Z</time>
      </trkpt>
      <trkpt lat="45.84036" lon="1.12874">
        <ele>251.1</ele>
        <time>2024-11-28T13:45:01Z</time>
      </trkpt>
      <trkpt lat="45.84041" lon="1.12873">
        <ele>251.7</ele>
        <time>2024-11-28T13:45:04Z</time>
      </trkpt>
      <trkpt lat="45.84047" lon="1.12872">
        <ele>252.3</ele>
        <time>2024-11-28T13:45:07Z</time>
      </trkpt>
      <trkpt lat="45.84052" lon="1.12872">
        <ele>252.9</ele>
        <time>2024-11-28T13:45:10Z</time>
      </trkpt>
      <trkpt lat="45.84057" lon="1.12871">
        <ele>253.5</ele>
        <time>2024-11-28T13:45:13Z</time>
      </trkpt>
      <trkpt lat="45.84062" lon="1.1287">
        <ele>254</ele>
        <time>2024-11-28T13:45:16Z</time>
      </trkpt>
      <trkpt lat="45.84067" lon="1.12867">
        <ele>254.7</ele>
        <time>2024-11-28T13:45:19Z</time>
      </trkpt>
      <trkpt lat="45.84073" lon="1.12867">
        <ele>255.4</ele>
        <time>2024-11-28T13:45:22Z</time>
      </trkpt>
      <trkpt lat="45.84078" lon="1.12866">
        <ele>256.1</ele>
        <time>2024-11-28T13:45:25Z</time>
      </trkpt>
      <trkpt lat="45.84083" lon="1.12864">
        <ele>256.8</ele>
        <time>2024-11-28T13:45:28Z</time>
      </trkpt>
      <trkpt lat="45.84088" lon="1.12863">
        <ele>257.5</ele>
        <time>2024-11-28T13:45:31Z</time>
      </trkpt>
      <trkpt lat="45.84094" lon="1.12863">
        <ele>258.3</ele>
        <time>2024-11-28T13:45:34Z</time>
      </trkpt>
      <trkpt lat="45.84098" lon="1.12863">
        <ele>258.9</ele>
        <time>2024-11-28T13:45:37Z</time>
      </trkpt>
      <trkpt lat="45.84104" lon="1.12862">
        <ele>259.7</ele>
        <time>2024-11-28T13:45:40Z</time>
      </trkpt>
      <trkpt lat="45.84109" lon="1.12862">
        <ele>260.4</ele>
        <time>2024-11-28T13:45:43Z</time>
      </trkpt>
      <trkpt lat="45.84113" lon="1.12861">
        <ele>261</ele>
        <time>2024-11-28T13:45:46Z</time>
      </trkpt>
      <trkpt lat="45.84119" lon="1.1286">
        <ele>261.8</ele>
        <time>2024-11-28T13:45:49Z</time>
      </trkpt>
      <trkpt lat="45.84125" lon="1.1286">
        <ele>262.6</ele>
        <time>2024-11-28T13:45:52Z</time>
      </trkpt>
      <trkpt lat="45.84131" lon="1.1286">
        <ele>263.3</ele>
        <time>2024-11-28T13:45:55Z</time>
      </trkpt>
      <trkpt lat="45.84136" lon="1.12859">
        <ele>263.9</ele>
        <time>2024-11-28T13:45:58Z</time>
      </trkpt>
      <trkpt lat="45.84141" lon="1.1286">
        <ele>264.5</ele>
        <time>2024-11-28T13:46:01Z</time>
      </trkpt>
      <trkpt lat="45.84146" lon="1.12861">
        <ele>265</ele>
        <time>2024-11-28T13:46:04Z</time>
      </trkpt>
      <trkpt lat="45.84151" lon="1.12863">
        <ele>265.6</ele>
        <time>2024-11-28T13:46:07Z</time>
      </trkpt>
      <trkpt lat="45.84156" lon="1.12864">
        <ele>266.1</ele>
        <time>2024-11-28T13:46:10Z</time>
      </trkpt>
      <trkpt lat="45.84162" lon="1.12865">
        <ele>266.5</ele>
        <time>2024-11-28T13:46:13Z</time>
      </trkpt>
      <trkpt lat="45.84166" lon="1.12863">
        <ele>266.8</ele>
        <time>2024-11-28T13:46:16Z</time>
      </trkpt>
      <trkpt lat="45.84171" lon="1.12861">
        <ele>267.1</ele>
        <time>2024-11-28T13:46:19Z</time>
      </trkpt>
      <trkpt lat="45.84177" lon="1.12861">
        <ele>267.3</ele>
        <time>2024-11-28T13:46:22Z</time>
      </trkpt>
      <trkpt lat="45.84182" lon="1.12866">
        <ele>267.7</ele>
        <time>2024-11-28T13:46:25Z</time>
      </trkpt>
      <trkpt lat="45.84187" lon="1.12871">
        <ele>268.1</ele>
        <time>2024-11-28T13:46:28Z</time>
      </trkpt>
      <trkpt lat="45.84192" lon="1.12877">
        <ele>268.5</ele>
        <time>2024-11-28T13:46:31Z</time>
      </trkpt>
      <trkpt lat="45.84197" lon="1.12883">
        <ele>268.9</ele>
        <time>2024-11-28T13:46:34Z</time>
      </trkpt>
      <trkpt lat="45.84203" lon="1.12887">
        <ele>269.3</ele>
        <time>2024-11-28T13:46:37Z</time>
      </trkpt>
      <trkpt lat="45.84209" lon="1.12891">
        <ele>269.7</ele>
        <time>2024-11-28T13:46:40Z</time>
      </trkpt>
      <trkpt lat="45.84214" lon="1.12896">
        <ele>270.1</ele>
        <time>2024-11-28T13:46:43Z</time>
      </trkpt>
      <trkpt lat="45.84219" lon="1.12903">
        <ele>270.5</ele>
        <time>2024-11-28T13:46:46Z</time>
      </trkpt>
      <trkpt lat="45.84223" lon="1.1291">
        <ele>271</ele>
        <time>2024-11-28T13:46:49Z</time>
      </trkpt>
      <trkpt lat="45.84228" lon="1.12918">
        <ele>271.4</ele>
        <time>2024-11-28T13:46:52Z</time>
      </trkpt>
      <trkpt lat="45.84232" lon="1.12925">
        <ele>271.9</ele>
        <time>2024-11-28T13:46:55Z</time>
      </trkpt>
      <trkpt lat="45.84237" lon="1.12931">
        <ele>272.4</ele>
        <time>2024-11-28T13:46:58Z</time>
      </trkpt>
      <trkpt lat="45.84242" lon="1.12936">
        <ele>273</ele>
        <time>2024-11-28T13:47:01Z</time>
      </trkpt>
      <trkpt lat="45.84247" lon="1.12937">
        <ele>273.6</ele>
        <time>2024-11-28T13:47:04Z</time>
      </trkpt>
      <trkpt lat="45.84253" lon="1.12937">
        <ele>274.3</ele>
        <time>2024-11-28T13:47:07Z</time>
      </trkpt>
      <trkpt lat="45.84259" lon="1.12934">
        <ele>275</ele>
        <time>2024-11-28T13:47:10Z</time>
      </trkpt>
      <trkpt lat="45.84265" lon="1.12931">
        <ele>275.6</ele>
        <time>2024-11-28T13:47:13Z</time>
      </trkpt>
      <trkpt lat="45.8427" lon="1.12926">
        <ele>276.1</ele>
        <time>2024-11-28T13:47:16Z</time>
      </trkpt>
      <trkpt lat="45.84275" lon="1.1292">
        <ele>276.7</ele>
        <time>2024-11-28T13:47:19Z</time>
      </trkpt>
      <trkpt lat="45.84278" lon="1.12911">
        <ele>277.2</ele>
        <time>2024-11-28T13:47:22Z</time>
      </trkpt>
      <trkpt lat="45.84281" lon="1.12903">
        <ele>277.7</ele>
        <time>2024-11-28T13:47:25Z</time>
      </trkpt>
      <trkpt lat="45.84283" lon="1.12894">
        <ele>278.1</ele>
        <time>2024-11-28T13:47:28Z</time>
      </trkpt>
      <trkpt lat="45.84284" lon="1.12885">
        <ele>278.4</ele>
        <time>2024-11-28T13:47:31Z</time>
      </trkpt>
      <trkpt lat="45.84287" lon="1.12874">
        <ele>278.7</ele>
        <time>2024-11-28T13:47:34Z</time>
      </trkpt>
      <trkpt lat="45.84291" lon="1.12861">
        <ele>278.9</ele>
        <time>2024-11-28T13:47:37Z</time>
      </trkpt>
      <trkpt lat="45.84297" lon="1.12847">
        <ele>278.9</ele>
        <time>2024-11-28T13:47:40Z</time>
      </trkpt>
      <trkpt lat="45.84303" lon="1.12834">
        <ele>279</ele>
        <time>2024-11-28T13:47:43Z</time>
      </trkpt>
      <trkpt lat="45.8431" lon="1.12822">
        <ele>279</ele>
        <time>2024-11-28T13:47:46Z</time>
      </trkpt>
      <trkpt lat="45.84318" lon="1.12809">
        <ele>279</ele>
        <time>2024-11-28T13:47:49Z</time>
      </trkpt>
      <trkpt lat="45.84326" lon="1.12797">
        <ele>279.2</ele>
        <time>2024-11-28T13:47:52Z</time>
      </trkpt>
      <trkpt lat="45.84336" lon="1.1279">
        <ele>279.4</ele>
        <time>2024-11-28T13:47:55Z</time>
      </trkpt>
      <trkpt lat="45.84343" lon="1.12789">
        <ele>279.8</ele>
        <time>2024-11-28T13:47:58Z</time>
      </trkpt>
      <trkpt lat="45.84353" lon="1.12793">
        <ele>280.6</ele>
        <time>2024-11-28T13:48:01Z</time>
      </trkpt>
      <trkpt lat="45.8436" lon="1.12798">
        <ele>281.2</ele>
        <time>2024-11-28T13:48:04Z</time>
      </trkpt>
      <trkpt lat="45.84364" lon="1.12803">
        <ele>281.8</ele>
        <time>2024-11-28T13:48:07Z</time>
      </trkpt>
      <trkpt lat="45.84369" lon="1.12809">
        <ele>282.5</ele>
        <time>2024-11-28T13:48:10Z</time>
      </trkpt>
      <trkpt lat="45.84374" lon="1.12817">
        <ele>283.3</ele>
        <time>2024-11-28T13:48:13Z</time>
      </trkpt>
      <trkpt lat="45.84379" lon="1.12828">
        <ele>284.1</ele>
        <time>2024-11-28T13:48:16Z</time>
      </trkpt>
      <trkpt lat="45.84384" lon="1.12836">
        <ele>284.8</ele>
        <time>2024-11-28T13:48:19Z</time>
      </trkpt>
      <trkpt lat="45.84387" lon="1.12844">
        <ele>285.5</ele>
        <time>2024-11-28T13:48:22Z</time>
      </trkpt>
      <trkpt lat="45.84389" lon="1.12854">
        <ele>286.1</ele>
        <time>2024-11-28T13:48:25Z</time>
      </trkpt>
      <trkpt lat="45.8439" lon="1.12862">
        <ele>286.7</ele>
        <time>2024-11-28T13:48:28Z</time>
      </trkpt>
      <trkpt lat="45.84389" lon="1.12872">
        <ele>287.3</ele>
        <time>2024-11-28T13:48:31Z</time>
      </trkpt>
      <trkpt lat="45.84389" lon="1.12882">
        <ele>287.9</ele>
        <time>2024-11-28T13:48:34Z</time>
      </trkpt>
      <trkpt lat="45.84387" lon="1.12892">
        <ele>288.6</ele>
        <time>2024-11-28T13:48:37Z</time>
      </trkpt>
      <trkpt lat="45.84384" lon="1.12901">
        <ele>289.1</ele>
        <time>2024-11-28T13:48:40Z</time>
      </trkpt>
      <trkpt lat="45.84382" lon="1.12911">
        <ele>289.6</ele>
        <time>2024-11-28T13:48:43Z</time>
      </trkpt>
      <trkpt lat="45.84378" lon="1.1292">
        <ele>290.2</ele>
        <time>2024-11-28T13:48:46Z</time>
      </trkpt>
      <trkpt lat="45.84375" lon="1.12928">
        <ele>290.6</ele>
        <time>2024-11-28T13:48:49Z</time>
      </trkpt>
      <trkpt lat="45.84373" lon="1.12935">
        <ele>291</ele>
        <time>2024-11-28T13:48:52Z</time>
      </trkpt>
      <trkpt lat="45.84371" lon="1.12944">
        <ele>291.5</ele>
        <time>2024-11-28T13:48:55Z</time>
      </trkpt>
      <trkpt lat="45.8437" lon="1.12953">
        <ele>291.9</ele>
        <time>2024-11-28T13:48:58Z</time>
      </trkpt>
      <trkpt lat="45.84372" lon="1.12965">
        <ele>292.5</ele>
        <time>2024-11-28T13:49:01Z</time>
      </trkpt>
      <trkpt lat="45.84375" lon="1.12974">
        <ele>293</ele>
        <time>2024-11-28T13:49:04Z</time>
      </trkpt>
      <trkpt lat="45.84378" lon="1.12982">
        <ele>293.7</ele>
        <time>2024-11-28T13:49:07Z</time>
      </trkpt>
      <trkpt lat="45.84383" lon="1.12989">
        <ele>294.4</ele>
        <time>2024-11-28T13:49:10Z</time>
      </trkpt>
      <trkpt lat="45.84388" lon="1.12994">
        <ele>295.2</ele>
        <time>2024-11-28T13:49:13Z</time>
      </trkpt>
      <trkpt lat="45.84394" lon="1.12996">
        <ele>295.9</ele>
        <time>2024-11-28T13:49:16Z</time>
      </trkpt>
      <trkpt lat="45.84401" lon="1.12997">
        <ele>296.7</ele>
        <time>2024-11-28T13:49:19Z</time>
      </trkpt>
      <trkpt lat="45.84407" lon="1.12994">
        <ele>297.5</ele>
        <time>2024-11-28T13:49:22Z</time>
      </trkpt>
      <trkpt lat="45.84411" lon="1.12989">
        <ele>298.2</ele>
        <time>2024-11-28T13:49:25Z</time>
      </trkpt>
      <trkpt lat="45.84415" lon="1.12981">
        <ele>298.9</ele>
        <time>2024-11-28T13:49:28Z</time>
      </trkpt>
      <trkpt lat="45.84419" lon="1.12972">
        <ele>299.6</ele>
        <time>2024-11-28T13:49:31Z</time>
      </trkpt>
      <trkpt lat="45.84422" lon="1.12962">
        <ele>300.1</ele>
        <time>2024-11-28T13:49:34Z</time>
      </trkpt>
      <trkpt lat="45.84426" lon="1.12954">
        <ele>300.6</ele>
        <time>2024-11-28T13:49:37Z</time>
      </trkpt>
      <trkpt lat="45.8443" lon="1.12944">
        <ele>301.1</ele>
        <time>2024-11-28T13:49:40Z</time>
      </trkpt>
      <trkpt lat="45.84436" lon="1.12937">
        <ele>301.7</ele>
        <time>2024-11-28T13:49:43Z</time>
      </trkpt>
      <trkpt lat="45.84441" lon="1.12933">
        <ele>302.2</ele>
        <time>2024-11-28T13:49:46Z</time>
      </trkpt>
      <trkpt lat="45.84448" lon="1.12932">
        <ele>302.8</ele>
        <time>2024-11-28T13:49:49Z</time>
      </trkpt>
      <trkpt lat="45.84454" lon="1.12932">
        <ele>303.4</ele>
        <time>2024-11-28T13:49:52Z</time>
      </trkpt>
      <trkpt lat="45.8446" lon="1.12935">
        <ele>304</ele>
        <time>2024-11-28T13:49:55Z</time>
      </trkpt>
      <trkpt lat="45.84465" lon="1.12939">
        <ele>304.6</ele>
        <time>2024-11-28T13:49:58Z</time>
      </trkpt>
      <trkpt lat="45.84471" lon="1.12942">
        <ele>305.2</ele>
        <time>2024-11-28T13:50:01Z</time>
      </trkpt>
      <trkpt lat="45.84476" lon="1.12946">
        <ele>305.8</ele>
        <time>2024-11-28T13:50:04Z</time>
      </trkpt>
      <trkpt lat="45.84482" lon="1.1295">
        <ele>306.4</ele>
        <time>2024-11-28T13:50:07Z</time>
      </trkpt>
      <trkpt lat="45.84488" lon="1.12954">
        <ele>307.1</ele>
        <time>2024-11-28T13:50:10Z</time>
      </trkpt>
      <trkpt lat="45.84494" lon="1.12958">
        <ele>307.7</ele>
        <time>2024-11-28T13:50:13Z</time>
      </trkpt>
      <trkpt lat="45.845" lon="1.12962">
        <ele>308.3</ele>
        <time>2024-11-28T13:50:16Z</time>
      </trkpt>
      <trkpt lat="45.84507" lon="1.12966">
        <ele>308.9</ele>
        <time>2024-11-28T13:50:19Z</time>
      </trkpt>
      <trkpt lat="45.84512" lon="1.12969">
        <ele>309.5</ele>
        <time>2024-11-28T13:50:22Z</time>
      </trkpt>
      <trkpt lat="45.84519" lon="1.12972">
        <ele>310.2</ele>
        <time>2024-11-28T13:50:25Z</time>
      </trkpt>
      <trkpt lat="45.84526" lon="1.12975">
        <ele>310.9</ele>
        <time>2024-11-28T13:50:28Z</time>
      </trkpt>
      <trkpt lat="45.84533" lon="1.12976">
        <ele>311.7</ele>
        <time>2024-11-28T13:50:31Z</time>
      </trkpt>
      <trkpt lat="45.8454" lon="1.12978">
        <ele>312.3</ele>
        <time>2024-11-28T13:50:34Z</time>
      </trkpt>
      <trkpt lat="45.84547" lon="1.12978">
        <ele>313.1</ele>
        <time>2024-11-28T13:50:37Z</time>
      </trkpt>
      <trkpt lat="45.84553" lon="1.12977">
        <ele>313.8</ele>
        <time>2024-11-28T13:50:40Z</time>
      </trkpt>
      <trkpt lat="45.8456" lon="1.12976">
        <ele>314.5</ele>
        <time>2024-11-28T13:50:43Z</time>
      </trkpt>
      <trkpt lat="45.84566" lon="1.12976">
        <ele>315.1</ele>
        <time>2024-11-28T13:50:46Z</time>
      </trkpt>
      <trkpt lat="45.84573" lon="1.12975">
        <ele>315.7</ele>
        <time>2024-11-28T13:50:49Z</time>
      </trkpt>
      <trkpt lat="45.8458" lon="1.12974">
        <ele>316.2</ele>
        <time>2024-11-28T13:50:52Z</time>
      </trkpt>
      <trkpt lat="45.84587" lon="1.12973">
        <ele>316.8</ele>
        <time>2024-11-28T13:50:55Z</time>
      </trkpt>
      <trkpt lat="45.84595" lon="1.12973">
        <ele>317.3</ele>
        <time>2024-11-28T13:50:58Z</time>
      </trkpt>
      <trkpt lat="45.84601" lon="1.12974">
        <ele>317.8</ele>
        <time>2024-11-28T13:51:01Z</time>
      </trkpt>
      <trkpt lat="45.84608" lon="1.12977">
        <ele>318.2</ele>
        <time>2024-11-28T13:51:04Z</time>
      </trkpt>
      <trkpt lat="45.84615" lon="1.12981">
        <ele>318.6</ele>
        <time>2024-11-28T13:51:07Z</time>
      </trkpt>
      <trkpt lat="45.84623" lon="1.12985">
        <ele>319</ele>
        <time>2024-11-28T13:51:10Z</time>
      </trkpt>
      <trkpt lat="45.84629" lon="1.1299">
        <ele>319.2</ele>
        <time>2024-11-28T13:51:13Z</time>
      </trkpt>
      <trkpt lat="45.84631" lon="1.12996">
        <ele>319.4</ele>
        <time>2024-11-28T13:51:16Z</time>
      </trkpt>
      <trkpt lat="45.84631" lon="1.12997">
        <ele>319.4</ele>
        <time>2024-11-28T13:51:19Z</time>
      </trkpt>
      <trkpt lat="45.84632" lon="1.12998">
        <ele>319.4</ele>
        <time>2024-11-28T13:51:22Z</time>
      </trkpt>
      <trkpt lat="45.84632" lon="1.12998">
        <ele>319.4</ele>
        <time>2024-11-28T13:51:25Z</time>
      </trkpt>
      <trkpt lat="45.84633" lon="1.12998">
        <ele>319.4</ele>
        <time>2024-11-28T13:51:28Z</time>
      </trkpt>
      <trkpt lat="45.84633" lon="1.12999">
        <ele>319.4</ele>
        <time>2024-11-28T13:51:31Z</time>
      </trkpt>
      <trkpt lat="45.84633" lon="1.12998">
        <ele>319.4</ele>
        <time>2024-11-28T13:51:34Z</time>
      </trkpt>
      <trkpt lat="45.84633" lon="1.12998">
        <ele>319.4</ele>
        <time>2024-11-28T13:51:37Z</time>
      </trkpt>
      <trkpt lat="45.84633" lon="1.12998">
        <ele>319.4</ele>
        <time>2024-11-28T13:51:40Z</time>
      </trkpt>
      <trkpt lat="45.84633" lon="1.12997">
        <ele>319.4</ele>
        <time>2024-11-28T13:51:43Z</time>
      </trkpt>
      <trkpt lat="45.84634" lon="1.12997">
        <ele>319.4</ele>
        <time>2024-11-28T13:51:46Z</time>
      </trkpt>
      <trkpt lat="45.84634" lon="1.12997">
        <ele>319.4</ele>
        <time>2024-11-28T13:51:49Z</time>
      </trkpt>
      <trkpt lat="45.84633" lon="1.12997">
        <ele>319.3</ele>
        <time>2024-11-28T13:51:52Z</time>
      </trkpt>
      <trkpt lat="45.84633" lon="1.12997">
        <ele>319.3</ele>
        <time>2024-11-28T13:51:55Z</time>
      </trkpt>
      <trkpt lat="45.84634" lon="1.12997">
        <ele>319.3</ele>
        <time>2024-11-28T13:51:58Z</time>
      </trkpt>
      <trkpt lat="45.84633" lon="1.12997">
        <ele>319.3</ele>
        <time>2024-11-28T13:52:01Z</time>
      </trkpt>
      <trkpt lat="45.84633" lon="1.12997">
        <ele>319.3</ele>
        <time>2024-11-28T13:52:04Z</time>
      </trkpt>
      <trkpt lat="45.84633" lon="1.12997">
        <ele>319.3</ele>
        <time>2024-11-28T13:52:07Z</time>
      </trkpt>
      <trkpt lat="45.84632" lon="1.12997">
        <ele>319.3</ele>
        <time>2024-11-28T13:52:10Z</time>
      </trkpt>
      <trkpt lat="45.84632" lon="1.12997">
        <ele>319.2</ele>
        <time>2024-11-28T13:52:13Z</time>
      </trkpt>
      <trkpt lat="45.84632" lon="1.12996">
        <ele>319.2</ele>
        <time>2024-11-28T13:52:16Z</time>
      </trkpt>
      <trkpt lat="45.84632" lon="1.12996">
        <ele>319.2</ele>
        <time>2024-11-28T13:52:19Z</time>
      </trkpt>
      <trkpt lat="45.84632" lon="1.12996">
        <ele>319.2</ele>
        <time>2024-11-28T13:52:22Z</time>
      </trkpt>
      <trkpt lat="45.84632" lon="1.12996">
        <ele>319.2</ele>
        <time>2024-11-28T13:52:25Z</time>
      </trkpt>
      <trkpt lat="45.84632" lon="1.12996">
        <ele>319.2</ele>
        <time>2024-11-28T13:52:28Z</time>
      </trkpt>
      <trkpt lat="45.84632" lon="1.12995">
        <ele>319.2</ele>
        <time>2024-11-28T13:52:31Z</time>
      </trkpt>
      <trkpt lat="45.84632" lon="1.12995">
        <ele>319.2</ele>
        <time>2024-11-28T13:52:34Z</time>
      </trkpt>
      <trkpt lat="45.84633" lon="1.12996">
        <ele>319.1</ele>
        <time>2024-11-28T13:52:37Z</time>
      </trkpt>
      <trkpt lat="45.84633" lon="1.12998">
        <ele>319.1</ele>
        <time>2024-11-28T13:52:40Z</time>
      </trkpt>
      <trkpt lat="45.84633" lon="1.12998">
        <ele>319.1</ele>
        <time>2024-11-28T13:52:43Z</time>
      </trkpt>
      <trkpt lat="45.84633" lon="1.13003">
        <ele>318.9</ele>
        <time>2024-11-28T13:52:46Z</time>
      </trkpt>
      <trkpt lat="45.84629" lon="1.13013">
        <ele>318.3</ele>
        <time>2024-11-28T13:52:49Z</time>
      </trkpt>
      <trkpt lat="45.84622" lon="1.13026">
        <ele>317.5</ele>
        <time>2024-11-28T13:52:52Z</time>
      </trkpt>
      <trkpt lat="45.84615" lon="1.13045">
        <ele>316.4</ele>
        <time>2024-11-28T13:52:55Z</time>
      </trkpt>
      <trkpt lat="45.84608" lon="1.13065">
        <ele>315.1</ele>
        <time>2024-11-28T13:52:58Z</time>
      </trkpt>
      <trkpt lat="45.84603" lon="1.13092">
        <ele>313.5</ele>
        <time>2024-11-28T13:53:01Z</time>
      </trkpt>
      <trkpt lat="45.84601" lon="1.13125">
        <ele>312.1</ele>
        <time>2024-11-28T13:53:04Z</time>
      </trkpt>
      <trkpt lat="45.84599" lon="1.1316">
        <ele>310.6</ele>
        <time>2024-11-28T13:53:07Z</time>
      </trkpt>
      <trkpt lat="45.84593" lon="1.13194">
        <ele>309.2</ele>
        <time>2024-11-28T13:53:10Z</time>
      </trkpt>
      <trkpt lat="45.84584" lon="1.13228">
        <ele>307.9</ele>
        <time>2024-11-28T13:53:13Z</time>
      </trkpt>
      <trkpt lat="45.84572" lon="1.13258">
        <ele>306.8</ele>
        <time>2024-11-28T13:53:16Z</time>
      </trkpt>
      <trkpt lat="45.84556" lon="1.13282">
        <ele>305.6</ele>
        <time>2024-11-28T13:53:19Z</time>
      </trkpt>
      <trkpt lat="45.84532" lon="1.13299">
        <ele>303.7</ele>
        <time>2024-11-28T13:53:22Z</time>
      </trkpt>
      <trkpt lat="45.8451" lon="1.13321">
        <ele>301.3</ele>
        <time>2024-11-28T13:53:25Z</time>
      </trkpt>
      <trkpt lat="45.84493" lon="1.13351">
        <ele>298.8</ele>
        <time>2024-11-28T13:53:28Z</time>
      </trkpt>
      <trkpt lat="45.84487" lon="1.13391">
        <ele>296.5</ele>
        <time>2024-11-28T13:53:31Z</time>
      </trkpt>
      <trkpt lat="45.84493" lon="1.13433">
        <ele>294.2</ele>
        <time>2024-11-28T13:53:34Z</time>
      </trkpt>
      <trkpt lat="45.84497" lon="1.13471">
        <ele>291.5</ele>
        <time>2024-11-28T13:53:37Z</time>
      </trkpt>
      <trkpt lat="45.84483" lon="1.13505">
        <ele>289.5</ele>
        <time>2024-11-28T13:53:40Z</time>
      </trkpt>
      <trkpt lat="45.84455" lon="1.13514">
        <ele>290.3</ele>
        <time>2024-11-28T13:53:43Z</time>
      </trkpt>
      <trkpt lat="45.84439" lon="1.13505">
        <ele>291.6</ele>
        <time>2024-11-28T13:53:46Z</time>
      </trkpt>
      <trkpt lat="45.84429" lon="1.13491">
        <ele>292.7</ele>
        <time>2024-11-28T13:53:49Z</time>
      </trkpt>
      <trkpt lat="45.84421" lon="1.13475">
        <ele>293.8</ele>
        <time>2024-11-28T13:53:52Z</time>
      </trkpt>
      <trkpt lat="45.84412" lon="1.13461">
        <ele>294.9</ele>
        <time>2024-11-28T13:53:55Z</time>
      </trkpt>
      <trkpt lat="45.84404" lon="1.13449">
        <ele>295.8</ele>
        <time>2024-11-28T13:53:58Z</time>
      </trkpt>
      <trkpt lat="45.84394" lon="1.13441">
        <ele>296.8</ele>
        <time>2024-11-28T13:54:01Z</time>
      </trkpt>
      <trkpt lat="45.84382" lon="1.13439">
        <ele>297.9</ele>
        <time>2024-11-28T13:54:04Z</time>
      </trkpt>
      <trkpt lat="45.84372" lon="1.13445">
        <ele>298.8</ele>
        <time>2024-11-28T13:54:07Z</time>
      </trkpt>
      <trkpt lat="45.84364" lon="1.13456">
        <ele>299.7</ele>
        <time>2024-11-28T13:54:10Z</time>
      </trkpt>
      <trkpt lat="45.84356" lon="1.13467">
        <ele>300.3</ele>
        <time>2024-11-28T13:54:13Z</time>
      </trkpt>
      <trkpt lat="45.84348" lon="1.1348">
        <ele>300.8</ele>
        <time>2024-11-28T13:54:16Z</time>
      </trkpt>
      <trkpt lat="45.8434" lon="1.13492">
        <ele>301.3</ele>
        <time>2024-11-28T13:54:19Z</time>
      </trkpt>
      <trkpt lat="45.84333" lon="1.13505">
        <ele>301.6</ele>
        <time>2024-11-28T13:54:22Z</time>
      </trkpt>
      <trkpt lat="45.84324" lon="1.13517">
        <ele>301.8</ele>
        <time>2024-11-28T13:54:25Z</time>
      </trkpt>
      <trkpt lat="45.84315" lon="1.13532">
        <ele>301.8</ele>
        <time>2024-11-28T13:54:28Z</time>
      </trkpt>
      <trkpt lat="45.84304" lon="1.13548">
        <ele>301.6</ele>
        <time>2024-11-28T13:54:31Z</time>
      </trkpt>
      <trkpt lat="45.84292" lon="1.13565">
        <ele>301.1</ele>
        <time>2024-11-28T13:54:34Z</time>
      </trkpt>
      <trkpt lat="45.84281" lon="1.13581">
        <ele>300.5</ele>
        <time>2024-11-28T13:54:37Z</time>
      </trkpt>
      <trkpt lat="45.84268" lon="1.13597">
        <ele>300</ele>
        <time>2024-11-28T13:54:40Z</time>
      </trkpt>
      <trkpt lat="45.84254" lon="1.13615">
        <ele>299.5</ele>
        <time>2024-11-28T13:54:43Z</time>
      </trkpt>
      <trkpt lat="45.8424" lon="1.13633">
        <ele>299.1</ele>
        <time>2024-11-28T13:54:46Z</time>
      </trkpt>
      <trkpt lat="45.84227" lon="1.13652">
        <ele>298.6</ele>
        <time>2024-11-28T13:54:49Z</time>
      </trkpt>
      <trkpt lat="45.84215" lon="1.13673">
        <ele>298.2</ele>
        <time>2024-11-28T13:54:52Z</time>
      </trkpt>
      <trkpt lat="45.84204" lon="1.13692">
        <ele>297.9</ele>
        <time>2024-11-28T13:54:55Z</time>
      </trkpt>
      <trkpt lat="45.84192" lon="1.13712">
        <ele>297.7</ele>
        <time>2024-11-28T13:54:58Z</time>
      </trkpt>
      <trkpt lat="45.84182" lon="1.1373">
        <ele>297.5</ele>
        <time>2024-11-28T13:55:01Z</time>
      </trkpt>
      <trkpt lat="45.84171" lon="1.13746">
        <ele>297.4</ele>
        <time>2024-11-28T13:55:04Z</time>
      </trkpt>
      <trkpt lat="45.8416" lon="1.13762">
        <ele>297.2</ele>
        <time>2024-11-28T13:55:07Z</time>
      </trkpt>
      <trkpt lat="45.84149" lon="1.13778">
        <ele>296.8</ele>
        <time>2024-11-28T13:55:10Z</time>
      </trkpt>
      <trkpt lat="45.8414" lon="1.13793">
        <ele>296.4</ele>
        <time>2024-11-28T13:55:13Z</time>
      </trkpt>
      <trkpt lat="45.84132" lon="1.13805">
        <ele>296.2</ele>
        <time>2024-11-28T13:55:16Z</time>
      </trkpt>
      <trkpt lat="45.84121" lon="1.13822">
        <ele>295.8</ele>
        <time>2024-11-28T13:55:19Z</time>
      </trkpt>
      <trkpt lat="45.84111" lon="1.1384">
        <ele>295.5</ele>
        <time>2024-11-28T13:55:22Z</time>
      </trkpt>
      <trkpt lat="45.841" lon="1.13858">
        <ele>295.3</ele>
        <time>2024-11-28T13:55:25Z</time>
      </trkpt>
      <trkpt lat="45.84089" lon="1.13874">
        <ele>295.2</ele>
        <time>2024-11-28T13:55:28Z</time>
      </trkpt>
      <trkpt lat="45.84081" lon="1.13887">
        <ele>295.3</ele>
        <time>2024-11-28T13:55:31Z</time>
      </trkpt>
      <trkpt lat="45.84076" lon="1.13894">
        <ele>295.4</ele>
        <time>2024-11-28T13:55:34Z</time>
      </trkpt>
      <trkpt lat="45.84073" lon="1.13897">
        <ele>295.4</ele>
        <time>2024-11-28T13:55:37Z</time>
      </trkpt>
      <trkpt lat="45.84073" lon="1.13896">
        <ele>295.4</ele>
        <time>2024-11-28T13:55:40Z</time>
      </trkpt>
      <trkpt lat="45.84073" lon="1.13897">
        <ele>295.4</ele>
        <time>2024-11-28T13:55:43Z</time>
      </trkpt>
      <trkpt lat="45.84072" lon="1.13897">
        <ele>295.4</ele>
        <time>2024-11-28T13:55:46Z</time>
      </trkpt>
      <trkpt lat="45.84069" lon="1.139">
        <ele>295.4</ele>
        <time>2024-11-28T13:55:49Z</time>
      </trkpt>
      <trkpt lat="45.84066" lon="1.13907">
        <ele>295.5</ele>
        <time>2024-11-28T13:55:52Z</time>
      </trkpt>
      <trkpt lat="45.84063" lon="1.13915">
        <ele>295.6</ele>
        <time>2024-11-28T13:55:55Z</time>
      </trkpt>
      <trkpt lat="45.84059" lon="1.13924">
        <ele>295.8</ele>
        <time>2024-11-28T13:55:58Z</time>
      </trkpt>
      <trkpt lat="45.84055" lon="1.13933">
        <ele>296</ele>
        <time>2024-11-28T13:56:01Z</time>
      </trkpt>
      <trkpt lat="45.8405" lon="1.13942">
        <ele>296.2</ele>
        <time>2024-11-28T13:56:04Z</time>
      </trkpt>
      <trkpt lat="45.84045" lon="1.13952">
        <ele>296.5</ele>
        <time>2024-11-28T13:56:07Z</time>
      </trkpt>
      <trkpt lat="45.8404" lon="1.13965">
        <ele>296.8</ele>
        <time>2024-11-28T13:56:10Z</time>
      </trkpt>
      <trkpt lat="45.84036" lon="1.13978">
        <ele>297.1</ele>
        <time>2024-11-28T13:56:13Z</time>
      </trkpt>
      <trkpt lat="45.84029" lon="1.13991">
        <ele>297.4</ele>
        <time>2024-11-28T13:56:16Z</time>
      </trkpt>
      <trkpt lat="45.84023" lon="1.14005">
        <ele>297.8</ele>
        <time>2024-11-28T13:56:19Z</time>
      </trkpt>
      <trkpt lat="45.84015" lon="1.14018">
        <ele>298.2</ele>
        <time>2024-11-28T13:56:22Z</time>
      </trkpt>
      <trkpt lat="45.84007" lon="1.14029">
        <ele>298.7</ele>
        <time>2024-11-28T13:56:25Z</time>
      </trkpt>
      <trkpt lat="45.83999" lon="1.14038">
        <ele>299.1</ele>
        <time>2024-11-28T13:56:28Z</time>
      </trkpt>
      <trkpt lat="45.8399" lon="1.14045">
        <ele>299.6</ele>
        <time>2024-11-28T13:56:31Z</time>
      </trkpt>
      <trkpt lat="45.83983" lon="1.14052">
        <ele>300.1</ele>
        <time>2024-11-28T13:56:34Z</time>
      </trkpt>
      <trkpt lat="45.83974" lon="1.14058">
        <ele>300.6</ele>
        <time>2024-11-28T13:56:37Z</time>
      </trkpt>
      <trkpt lat="45.83965" lon="1.14063">
        <ele>301.2</ele>
        <time>2024-11-28T13:56:40Z</time>
      </trkpt>
      <trkpt lat="45.83956" lon="1.1407">
        <ele>301.7</ele>
        <time>2024-11-28T13:56:43Z</time>
      </trkpt>
      <trkpt lat="45.83948" lon="1.14077">
        <ele>302.2</ele>
        <time>2024-11-28T13:56:46Z</time>
      </trkpt>
      <trkpt lat="45.83939" lon="1.14084">
        <ele>302.7</ele>
        <time>2024-11-28T13:56:49Z</time>
      </trkpt>
      <trkpt lat="45.83931" lon="1.14089">
        <ele>303.2</ele>
        <time>2024-11-28T13:56:52Z</time>
      </trkpt>
      <trkpt lat="45.83924" lon="1.14096">
        <ele>303.6</ele>
        <time>2024-11-28T13:56:55Z</time>
      </trkpt>
      <trkpt lat="45.83916" lon="1.14102">
        <ele>304</ele>
        <time>2024-11-28T13:56:58Z</time>
      </trkpt>
      <trkpt lat="45.8391" lon="1.14105">
        <ele>304.4</ele>
        <time>2024-11-28T13:57:01Z</time>
      </trkpt>
      <trkpt lat="45.83901" lon="1.1411">
        <ele>304.7</ele>
        <time>2024-11-28T13:57:04Z</time>
      </trkpt>
      <trkpt lat="45.83892" lon="1.14115">
        <ele>304.8</ele>
        <time>2024-11-28T13:57:07Z</time>
      </trkpt>
      <trkpt lat="45.83882" lon="1.14121">
        <ele>305</ele>
        <time>2024-11-28T13:57:10Z</time>
      </trkpt>
      <trkpt lat="45.83875" lon="1.14126">
        <ele>305.1</ele>
        <time>2024-11-28T13:57:13Z</time>
      </trkpt>
      <trkpt lat="45.83868" lon="1.1413">
        <ele>305.2</ele>
        <time>2024-11-28T13:57:16Z</time>
      </trkpt>
      <trkpt lat="45.83861" lon="1.14136">
        <ele>305.3</ele>
        <time>2024-11-28T13:57:19Z</time>
      </trkpt>
      <trkpt lat="45.83855" lon="1.14143">
        <ele>305.5</ele>
        <time>2024-11-28T13:57:22Z</time>
      </trkpt>
      <trkpt lat="45.83847" lon="1.14149">
        <ele>305.7</ele>
        <time>2024-11-28T13:57:25Z</time>
      </trkpt>
      <trkpt lat="45.8384" lon="1.14156">
        <ele>305.9</ele>
        <time>2024-11-28T13:57:28Z</time>
      </trkpt>
      <trkpt lat="45.83836" lon="1.14162">
        <ele>306</ele>
        <time>2024-11-28T13:57:31Z</time>
      </trkpt>
      <trkpt lat="45.8383" lon="1.14164">
        <ele>306.1</ele>
        <time>2024-11-28T13:57:34Z</time>
      </trkpt>
      <trkpt lat="45.83825" lon="1.14169">
        <ele>306.3</ele>
        <time>2024-11-28T13:57:37Z</time>
      </trkpt>
      <trkpt lat="45.83829" lon="1.14172">
        <ele>306.4</ele>
        <time>2024-11-28T13:57:40Z</time>
      </trkpt>
      <trkpt lat="45.83834" lon="1.14168">
        <ele>306.5</ele>
        <time>2024-11-28T13:57:43Z</time>
      </trkpt>
      <trkpt lat="45.83837" lon="1.14162">
        <ele>306.7</ele>
        <time>2024-11-28T13:57:46Z</time>
      </trkpt>
      <trkpt lat="45.83841" lon="1.14158">
        <ele>306.8</ele>
        <time>2024-11-28T13:57:49Z</time>
      </trkpt>
      <trkpt lat="45.83844" lon="1.14155">
        <ele>306.9</ele>
        <time>2024-11-28T13:57:52Z</time>
      </trkpt>
      <trkpt lat="45.83842" lon="1.14151">
        <ele>307</ele>
        <time>2024-11-28T13:57:55Z</time>
      </trkpt>
      <trkpt lat="45.83842" lon="1.14154">
        <ele>307</ele>
        <time>2024-11-28T13:57:58Z</time>
      </trkpt>
      <trkpt lat="45.83846" lon="1.14154">
        <ele>307.1</ele>
        <time>2024-11-28T13:58:01Z</time>
      </trkpt>
      <trkpt lat="45.83842" lon="1.1415">
        <ele>307.3</ele>
        <time>2024-11-28T13:58:04Z</time>
      </trkpt>
      <trkpt lat="45.83837" lon="1.14158">
        <ele>307.5</ele>
        <time>2024-11-28T13:58:07Z</time>
      </trkpt>
      <trkpt lat="45.83832" lon="1.14164">
        <ele>307.7</ele>
        <time>2024-11-28T13:58:10Z</time>
      </trkpt>
      <trkpt lat="45.83826" lon="1.14173">
        <ele>308.1</ele>
        <time>2024-11-28T13:58:13Z</time>
      </trkpt>
      <trkpt lat="45.83821" lon="1.14183">
        <ele>308.6</ele>
        <time>2024-11-28T13:58:16Z</time>
      </trkpt>
      <trkpt lat="45.83815" lon="1.14193">
        <ele>309</ele>
        <time>2024-11-28T13:58:19Z</time>
      </trkpt>
      <trkpt lat="45.83809" lon="1.14201">
        <ele>309.5</ele>
        <time>2024-11-28T13:58:22Z</time>
      </trkpt>
      <trkpt lat="45.83802" lon="1.14212">
        <ele>310</ele>
        <time>2024-11-28T13:58:25Z</time>
      </trkpt>
      <trkpt lat="45.83796" lon="1.14223">
        <ele>310.5</ele>
        <time>2024-11-28T13:58:28Z</time>
      </trkpt>
      <trkpt lat="45.8379" lon="1.14233">
        <ele>311</ele>
        <time>2024-11-28T13:58:31Z</time>
      </trkpt>
      <trkpt lat="45.83783" lon="1.14245">
        <ele>311.6</ele>
        <time>2024-11-28T13:58:34Z</time>
      </trkpt>
      <trkpt lat="45.83777" lon="1.14256">
        <ele>311.9</ele>
        <time>2024-11-28T13:58:37Z</time>
      </trkpt>
      <trkpt lat="45.83772" lon="1.14267">
        <ele>312.1</ele>
        <time>2024-11-28T13:58:40Z</time>
      </trkpt>
      <trkpt lat="45.83768" lon="1.14278">
        <ele>312.3</ele>
        <time>2024-11-28T13:58:43Z</time>
      </trkpt>
      <trkpt lat="45.83763" lon="1.1429">
        <ele>312.4</ele>
        <time>2024-11-28T13:58:46Z</time>
      </trkpt>
      <trkpt lat="45.83759" lon="1.14302">
        <ele>312.4</ele>
        <time>2024-11-28T13:58:49Z</time>
      </trkpt>
      <trkpt lat="45.83752" lon="1.14315">
        <ele>312.2</ele>
        <time>2024-11-28T13:58:52Z</time>
      </trkpt>
      <trkpt lat="45.83746" lon="1.14329">
        <ele>311.7</ele>
        <time>2024-11-28T13:58:55Z</time>
      </trkpt>
      <trkpt lat="45.8374" lon="1.14347">
        <ele>310.8</ele>
        <time>2024-11-28T13:58:58Z</time>
      </trkpt>
      <trkpt lat="45.83738" lon="1.14371">
        <ele>309.4</ele>
        <time>2024-11-28T13:59:01Z</time>
      </trkpt>
      <trkpt lat="45.8374" lon="1.144">
        <ele>307.6</ele>
        <time>2024-11-28T13:59:04Z</time>
      </trkpt>
      <trkpt lat="45.83743" lon="1.14432">
        <ele>305.5</ele>
        <time>2024-11-28T13:59:07Z</time>
      </trkpt>
      <trkpt lat="45.83737" lon="1.14466">
        <ele>303.2</ele>
        <time>2024-11-28T13:59:10Z</time>
      </trkpt>
      <trkpt lat="45.83722" lon="1.14497">
        <ele>301</ele>
        <time>2024-11-28T13:59:13Z</time>
      </trkpt>
      <trkpt lat="45.83703" lon="1.1453">
        <ele>298.7</ele>
        <time>2024-11-28T13:59:16Z</time>
      </trkpt>
      <trkpt lat="45.83678" lon="1.14556">
        <ele>296.1</ele>
        <time>2024-11-28T13:59:19Z</time>
      </trkpt>
      <trkpt lat="45.83661" lon="1.14595">
        <ele>293.4</ele>
        <time>2024-11-28T13:59:22Z</time>
      </trkpt>
      <trkpt lat="45.83655" lon="1.14641">
        <ele>290.6</ele>
        <time>2024-11-28T13:59:25Z</time>
      </trkpt>
      <trkpt lat="45.83641" lon="1.1468">
        <ele>288.2</ele>
        <time>2024-11-28T13:59:28Z</time>
      </trkpt>
      <trkpt lat="45.83611" lon="1.14697">
        <ele>285.6</ele>
        <time>2024-11-28T13:59:31Z</time>
      </trkpt>
      <trkpt lat="45.83577" lon="1.147">
        <ele>283.6</ele>
        <time>2024-11-28T13:59:34Z</time>
      </trkpt>
      <trkpt lat="45.83546" lon="1.147">
        <ele>283.1</ele>
        <time>2024-11-28T13:59:37Z</time>
      </trkpt>
      <trkpt lat="45.83521" lon="1.14715">
        <ele>283.5</ele>
        <time>2024-11-28T13:59:40Z</time>
      </trkpt>
      <trkpt lat="45.83511" lon="1.14742">
        <ele>284.2</ele>
        <time>2024-11-28T13:59:43Z</time>
      </trkpt>
      <trkpt lat="45.83508" lon="1.14769">
        <ele>284.6</ele>
        <time>2024-11-28T13:59:46Z</time>
      </trkpt>
      <trkpt lat="45.83505" lon="1.14792">
        <ele>284.9</ele>
        <time>2024-11-28T13:59:49Z</time>
      </trkpt>
      <trkpt lat="45.83503" lon="1.14812">
        <ele>285.1</ele>
        <time>2024-11-28T13:59:52Z</time>
      </trkpt>
      <trkpt lat="45.835" lon="1.14831">
        <ele>285.4</ele>
        <time>2024-11-28T13:59:55Z</time>
      </trkpt>
      <trkpt lat="45.83494" lon="1.14848">
        <ele>285.7</ele>
        <time>2024-11-28T13:59:58Z</time>
      </trkpt>
      <trkpt lat="45.83481" lon="1.14857">
        <ele>285.9</ele>
        <time>2024-11-28T14:00:01Z</time>
      </trkpt>
      <trkpt lat="45.83467" lon="1.14862">
        <ele>285.9</ele>
        <time>2024-11-28T14:00:04Z</time>
      </trkpt>
      <trkpt lat="45.83451" lon="1.14865">
        <ele>285.9</ele>
        <time>2024-11-28T14:00:07Z</time>
      </trkpt>
      <trkpt lat="45.83435" lon="1.14865">
        <ele>285.8</ele>
        <time>2024-11-28T14:00:10Z</time>
      </trkpt>
      <trkpt lat="45.83418" lon="1.14871">
        <ele>285.7</ele>
        <time>2024-11-28T14:00:13Z</time>
      </trkpt>
      <trkpt lat="45.83405" lon="1.14883">
        <ele>285.5</ele>
        <time>2024-11-28T14:00:16Z</time>
      </trkpt>
      <trkpt lat="45.83395" lon="1.14901">
        <ele>285.4</ele>
        <time>2024-11-28T14:00:19Z</time>
      </trkpt>
      <trkpt lat="45.83386" lon="1.14918">
        <ele>285.3</ele>
        <time>2024-11-28T14:00:22Z</time>
      </trkpt>
      <trkpt lat="45.8338" lon="1.14936">
        <ele>285.2</ele>
        <time>2024-11-28T14:00:25Z</time>
      </trkpt>
      <trkpt lat="45.83374" lon="1.14953">
        <ele>285</ele>
        <time>2024-11-28T14:00:28Z</time>
      </trkpt>
      <trkpt lat="45.8337" lon="1.14971">
        <ele>284.8</ele>
        <time>2024-11-28T14:00:31Z</time>
      </trkpt>
      <trkpt lat="45.83366" lon="1.1499">
        <ele>284.7</ele>
        <time>2024-11-28T14:00:34Z</time>
      </trkpt>
      <trkpt lat="45.83361" lon="1.15011">
        <ele>284.6</ele>
        <time>2024-11-28T14:00:37Z</time>
      </trkpt>
      <trkpt lat="45.83357" lon="1.15032">
        <ele>284.6</ele>
        <time>2024-11-28T14:00:40Z</time>
      </trkpt>
      <trkpt lat="45.83352" lon="1.15052">
        <ele>284.6</ele>
        <time>2024-11-28T14:00:43Z</time>
      </trkpt>
      <trkpt lat="45.83348" lon="1.15074">
        <ele>284.6</ele>
        <time>2024-11-28T14:00:46Z</time>
      </trkpt>
      <trkpt lat="45.83342" lon="1.15099">
        <ele>284.5</ele>
        <time>2024-11-28T14:00:49Z</time>
      </trkpt>
      <trkpt lat="45.83337" lon="1.15121">
        <ele>284.3</ele>
        <time>2024-11-28T14:00:52Z</time>
      </trkpt>
      <trkpt lat="45.83332" lon="1.15144">
        <ele>284.1</ele>
        <time>2024-11-28T14:00:55Z</time>
      </trkpt>
      <trkpt lat="45.83328" lon="1.15168">
        <ele>283.9</ele>
        <time>2024-11-28T14:00:58Z</time>
      </trkpt>
      <trkpt lat="45.83323" lon="1.15191">
        <ele>283.7</ele>
        <time>2024-11-28T14:01:01Z</time>
      </trkpt>
      <trkpt lat="45.83317" lon="1.15214">
        <ele>283.7</ele>
        <time>2024-11-28T14:01:04Z</time>
      </trkpt>
      <trkpt lat="45.8331" lon="1.15237">
        <ele>283.7</ele>
        <time>2024-11-28T14:01:07Z</time>
      </trkpt>
      <trkpt lat="45.83303" lon="1.15256">
        <ele>283.7</ele>
        <time>2024-11-28T14:01:10Z</time>
      </trkpt>
      <trkpt lat="45.83296" lon="1.15275">
        <ele>283.7</ele>
        <time>2024-11-28T14:01:13Z</time>
      </trkpt>
      <trkpt lat="45.83286" lon="1.15292">
        <ele>283.6</ele>
        <time>2024-11-28T14:01:16Z</time>
      </trkpt>
      <trkpt lat="45.83278" lon="1.1531">
        <ele>283.5</ele>
        <time>2024-11-28T14:01:19Z</time>
      </trkpt>
      <trkpt lat="45.8327" lon="1.15329">
        <ele>283.6</ele>
        <time>2024-11-28T14:01:22Z</time>
      </trkpt>
      <trkpt lat="45.83261" lon="1.15349">
        <ele>283.8</ele>
        <time>2024-11-28T14:01:25Z</time>
      </trkpt>
      <trkpt lat="45.83255" lon="1.15365">
        <ele>284.1</ele>
        <time>2024-11-28T14:01:28Z</time>
      </trkpt>
      <trkpt lat="45.8325" lon="1.1538">
        <ele>284.3</ele>
        <time>2024-11-28T14:01:31Z</time>
      </trkpt>
      <trkpt lat="45.83246" lon="1.15396">
        <ele>284.6</ele>
        <time>2024-11-28T14:01:34Z</time>
      </trkpt>
      <trkpt lat="45.83248" lon="1.1541">
        <ele>285.2</ele>
        <time>2024-11-28T14:01:37Z</time>
      </trkpt>
      <trkpt lat="45.83255" lon="1.15419">
        <ele>285.9</ele>
        <time>2024-11-28T14:01:40Z</time>
      </trkpt>
      <trkpt lat="45.83261" lon="1.15423">
        <ele>286.5</ele>
        <time>2024-11-28T14:01:43Z</time>
      </trkpt>
      <trkpt lat="45.83267" lon="1.15429">
        <ele>287.2</ele>
        <time>2024-11-28T14:01:46Z</time>
      </trkpt>
      <trkpt lat="45.83274" lon="1.15434">
        <ele>288</ele>
        <time>2024-11-28T14:01:49Z</time>
      </trkpt>
      <trkpt lat="45.83281" lon="1.1544">
        <ele>288.8</ele>
        <time>2024-11-28T14:01:52Z</time>
      </trkpt>
      <trkpt lat="45.83288" lon="1.15445">
        <ele>289.6</ele>
        <time>2024-11-28T14:01:55Z</time>
      </trkpt>
      <trkpt lat="45.83294" lon="1.15451">
        <ele>290.4</ele>
        <time>2024-11-28T14:01:58Z</time>
      </trkpt>
      <trkpt lat="45.83302" lon="1.15457">
        <ele>291.2</ele>
        <time>2024-11-28T14:02:01Z</time>
      </trkpt>
      <trkpt lat="45.83307" lon="1.15464">
        <ele>291.9</ele>
        <time>2024-11-28T14:02:04Z</time>
      </trkpt>
      <trkpt lat="45.83311" lon="1.15472">
        <ele>292.6</ele>
        <time>2024-11-28T14:02:07Z</time>
      </trkpt>
      <trkpt lat="45.83314" lon="1.15482">
        <ele>293</ele>
        <time>2024-11-28T14:02:10Z</time>
      </trkpt>
      <trkpt lat="45.83316" lon="1.15494">
        <ele>293.1</ele>
        <time>2024-11-28T14:02:13Z</time>
      </trkpt>
      <trkpt lat="45.83315" lon="1.15507">
        <ele>293.1</ele>
        <time>2024-11-28T14:02:16Z</time>
      </trkpt>
      <trkpt lat="45.83312" lon="1.15524">
        <ele>292.9</ele>
        <time>2024-11-28T14:02:19Z</time>
      </trkpt>
      <trkpt lat="45.83308" lon="1.15542">
        <ele>292.6</ele>
        <time>2024-11-28T14:02:22Z</time>
      </trkpt>
      <trkpt lat="45.83302" lon="1.15562">
        <ele>292.2</ele>
        <time>2024-11-28T14:02:25Z</time>
      </trkpt>
      <trkpt lat="45.83297" lon="1.15585">
        <ele>291.4</ele>
        <time>2024-11-28T14:02:28Z</time>
      </trkpt>
      <trkpt lat="45.83288" lon="1.15611">
        <ele>290</ele>
        <time>2024-11-28T14:02:31Z</time>
      </trkpt>
      <trkpt lat="45.83275" lon="1.15635">
        <ele>288.1</ele>
        <time>2024-11-28T14:02:34Z</time>
      </trkpt>
      <trkpt lat="45.83256" lon="1.15658">
        <ele>286.1</ele>
        <time>2024-11-28T14:02:37Z</time>
      </trkpt>
      <trkpt lat="45.83235" lon="1.15682">
        <ele>284.4</ele>
        <time>2024-11-28T14:02:40Z</time>
      </trkpt>
      <trkpt lat="45.83213" lon="1.15706">
        <ele>283.2</ele>
        <time>2024-11-28T14:02:43Z</time>
      </trkpt>
      <trkpt lat="45.83192" lon="1.15731">
        <ele>283.1</ele>
        <time>2024-11-28T14:02:46Z</time>
      </trkpt>
      <trkpt lat="45.83175" lon="1.15755">
        <ele>284</ele>
        <time>2024-11-28T14:02:49Z</time>
      </trkpt>
      <trkpt lat="45.83164" lon="1.15775">
        <ele>285.2</ele>
        <time>2024-11-28T14:02:52Z</time>
      </trkpt>
      <trkpt lat="45.83156" lon="1.15793">
        <ele>286.3</ele>
        <time>2024-11-28T14:02:55Z</time>
      </trkpt>
      <trkpt lat="45.8315" lon="1.15806">
        <ele>287.2</ele>
        <time>2024-11-28T14:02:58Z</time>
      </trkpt>
      <trkpt lat="45.83146" lon="1.15819">
        <ele>288</ele>
        <time>2024-11-28T14:03:01Z</time>
      </trkpt>
      <trkpt lat="45.83142" lon="1.15834">
        <ele>289</ele>
        <time>2024-11-28T14:03:04Z</time>
      </trkpt>
      <trkpt lat="45.83139" lon="1.15849">
        <ele>289.9</ele>
        <time>2024-11-28T14:03:07Z</time>
      </trkpt>
      <trkpt lat="45.83134" lon="1.15863">
        <ele>290.7</ele>
        <time>2024-11-28T14:03:10Z</time>
      </trkpt>
      <trkpt lat="45.83132" lon="1.15877">
        <ele>291.5</ele>
        <time>2024-11-28T14:03:13Z</time>
      </trkpt>
      <trkpt lat="45.8313" lon="1.15891">
        <ele>292.2</ele>
        <time>2024-11-28T14:03:16Z</time>
      </trkpt>
      <trkpt lat="45.8313" lon="1.15905">
        <ele>292.8</ele>
        <time>2024-11-28T14:03:19Z</time>
      </trkpt>
      <trkpt lat="45.83131" lon="1.15914">
        <ele>293.2</ele>
        <time>2024-11-28T14:03:22Z</time>
      </trkpt>
      <trkpt lat="45.83133" lon="1.15932">
        <ele>294.1</ele>
        <time>2024-11-28T14:03:25Z</time>
      </trkpt>
      <trkpt lat="45.83135" lon="1.15945">
        <ele>294.7</ele>
        <time>2024-11-28T14:03:28Z</time>
      </trkpt>
      <trkpt lat="45.83138" lon="1.15957">
        <ele>295.3</ele>
        <time>2024-11-28T14:03:31Z</time>
      </trkpt>
      <trkpt lat="45.83143" lon="1.15969">
        <ele>295.9</ele>
        <time>2024-11-28T14:03:34Z</time>
      </trkpt>
      <trkpt lat="45.83147" lon="1.15981">
        <ele>296.5</ele>
        <time>2024-11-28T14:03:37Z</time>
      </trkpt>
      <trkpt lat="45.8315" lon="1.15994">
        <ele>297</ele>
        <time>2024-11-28T14:03:40Z</time>
      </trkpt>
      <trkpt lat="45.83147" lon="1.16006">
        <ele>297.4</ele>
        <time>2024-11-28T14:03:43Z</time>
      </trkpt>
      <trkpt lat="45.83138" lon="1.16014">
        <ele>297</ele>
        <time>2024-11-28T14:03:46Z</time>
      </trkpt>
      <trkpt lat="45.83126" lon="1.16023">
        <ele>296.4</ele>
        <time>2024-11-28T14:03:49Z</time>
      </trkpt>
      <trkpt lat="45.83115" lon="1.16035">
        <ele>295.6</ele>
        <time>2024-11-28T14:03:52Z</time>
      </trkpt>
      <trkpt lat="45.83105" lon="1.16053">
        <ele>294.8</ele>
        <time>2024-11-28T14:03:55Z</time>
      </trkpt>
      <trkpt lat="45.83098" lon="1.16076">
        <ele>293.8</ele>
        <time>2024-11-28T14:03:58Z</time>
      </trkpt>
      <trkpt lat="45.83094" lon="1.16103">
        <ele>292.8</ele>
        <time>2024-11-28T14:04:01Z</time>
      </trkpt>
      <trkpt lat="45.83092" lon="1.16132">
        <ele>291.8</ele>
        <time>2024-11-28T14:04:04Z</time>
      </trkpt>
      <trkpt lat="45.8309" lon="1.16161">
        <ele>290.7</ele>
        <time>2024-11-28T14:04:07Z</time>
      </trkpt>
      <trkpt lat="45.83087" lon="1.16193">
        <ele>289.5</ele>
        <time>2024-11-28T14:04:10Z</time>
      </trkpt>
      <trkpt lat="45.83084" lon="1.16225">
        <ele>288.4</ele>
        <time>2024-11-28T14:04:13Z</time>
      </trkpt>
      <trkpt lat="45.8308" lon="1.16259">
        <ele>287.1</ele>
        <time>2024-11-28T14:04:16Z</time>
      </trkpt>
      <trkpt lat="45.83079" lon="1.16294">
        <ele>286</ele>
        <time>2024-11-28T14:04:19Z</time>
      </trkpt>
      <trkpt lat="45.83076" lon="1.16316">
        <ele>285.4</ele>
        <time>2024-11-28T14:04:22Z</time>
      </trkpt>
      <trkpt lat="45.83078" lon="1.16357">
        <ele>285</ele>
        <time>2024-11-28T14:04:25Z</time>
      </trkpt>
      <trkpt lat="45.83082" lon="1.16379">
        <ele>285.3</ele>
        <time>2024-11-28T14:04:28Z</time>
      </trkpt>
      <trkpt lat="45.83079" lon="1.1639">
        <ele>285.1</ele>
        <time>2024-11-28T14:04:31Z</time>
      </trkpt>
      <trkpt lat="45.8307" lon="1.16407">
        <ele>284.2</ele>
        <time>2024-11-28T14:04:34Z</time>
      </trkpt>
      <trkpt lat="45.83061" lon="1.16423">
        <ele>283.4</ele>
        <time>2024-11-28T14:04:37Z</time>
      </trkpt>
      <trkpt lat="45.83049" lon="1.16438">
        <ele>282.7</ele>
        <time>2024-11-28T14:04:40Z</time>
      </trkpt>
      <trkpt lat="45.83037" lon="1.16453">
        <ele>282.1</ele>
        <time>2024-11-28T14:04:43Z</time>
      </trkpt>
      <trkpt lat="45.83024" lon="1.16465">
        <ele>281.7</ele>
        <time>2024-11-28T14:04:46Z</time>
      </trkpt>
      <trkpt lat="45.83011" lon="1.16476">
        <ele>281.6</ele>
        <time>2024-11-28T14:04:49Z</time>
      </trkpt>
      <trkpt lat="45.82997" lon="1.16486">
        <ele>281.7</ele>
        <time>2024-11-28T14:04:52Z</time>
      </trkpt>
      <trkpt lat="45.82985" lon="1.16493">
        <ele>282</ele>
        <time>2024-11-28T14:04:55Z</time>
      </trkpt>
      <trkpt lat="45.82973" lon="1.16501">
        <ele>282.5</ele>
        <time>2024-11-28T14:04:58Z</time>
      </trkpt>
      <trkpt lat="45.82961" lon="1.16507">
        <ele>283</ele>
        <time>2024-11-28T14:05:01Z</time>
      </trkpt>
      <trkpt lat="45.82955" lon="1.16521">
        <ele>284.6</ele>
        <time>2024-11-28T14:05:04Z</time>
      </trkpt>
      <trkpt lat="45.8296" lon="1.16538">
        <ele>285.7</ele>
        <time>2024-11-28T14:05:07Z</time>
      </trkpt>
      <trkpt lat="45.82966" lon="1.16552">
        <ele>286.9</ele>
        <time>2024-11-28T14:05:10Z</time>
      </trkpt>
      <trkpt lat="45.82971" lon="1.16563">
        <ele>287.7</ele>
        <time>2024-11-28T14:05:13Z</time>
      </trkpt>
      <trkpt lat="45.82978" lon="1.16572">
        <ele>288.1</ele>
        <time>2024-11-28T14:05:16Z</time>
      </trkpt>
      <trkpt lat="45.82986" lon="1.16581">
        <ele>288.5</ele>
        <time>2024-11-28T14:05:19Z</time>
      </trkpt>
      <trkpt lat="45.82996" lon="1.16587">
        <ele>288.8</ele>
        <time>2024-11-28T14:05:22Z</time>
      </trkpt>
      <trkpt lat="45.83006" lon="1.16592">
        <ele>289.2</ele>
        <time>2024-11-28T14:05:25Z</time>
      </trkpt>
      <trkpt lat="45.83016" lon="1.16591">
        <ele>289.6</ele>
        <time>2024-11-28T14:05:28Z</time>
      </trkpt>
      <trkpt lat="45.83023" lon="1.16595">
        <ele>289.9</ele>
        <time>2024-11-28T14:05:31Z</time>
      </trkpt>
      <trkpt lat="45.83031" lon="1.16603">
        <ele>290.3</ele>
        <time>2024-11-28T14:05:34Z</time>
      </trkpt>
      <trkpt lat="45.83038" lon="1.16613">
        <ele>291</ele>
        <time>2024-11-28T14:05:37Z</time>
      </trkpt>
      <trkpt lat="45.83044" lon="1.16623">
        <ele>291.2</ele>
        <time>2024-11-28T14:05:40Z</time>
      </trkpt>
      <trkpt lat="45.83048" lon="1.16637">
        <ele>291.5</ele>
        <time>2024-11-28T14:05:43Z</time>
      </trkpt>
      <trkpt lat="45.83053" lon="1.16649">
        <ele>291.7</ele>
        <time>2024-11-28T14:05:46Z</time>
      </trkpt>
      <trkpt lat="45.83055" lon="1.16661">
        <ele>291.7</ele>
        <time>2024-11-28T14:05:49Z</time>
      </trkpt>
      <trkpt lat="45.83059" lon="1.1668">
        <ele>291.3</ele>
        <time>2024-11-28T14:05:52Z</time>
      </trkpt>
      <trkpt lat="45.83064" lon="1.16702">
        <ele>290.8</ele>
        <time>2024-11-28T14:05:55Z</time>
      </trkpt>
      <trkpt lat="45.83076" lon="1.16715">
        <ele>290.7</ele>
        <time>2024-11-28T14:05:58Z</time>
      </trkpt>
      <trkpt lat="45.83087" lon="1.16724">
        <ele>290.9</ele>
        <time>2024-11-28T14:06:01Z</time>
      </trkpt>
      <trkpt lat="45.83095" lon="1.16732">
        <ele>291.5</ele>
        <time>2024-11-28T14:06:04Z</time>
      </trkpt>
      <trkpt lat="45.83103" lon="1.16741">
        <ele>291.9</ele>
        <time>2024-11-28T14:06:07Z</time>
      </trkpt>
      <trkpt lat="45.83108" lon="1.1674">
        <ele>292.2</ele>
        <time>2024-11-28T14:06:10Z</time>
      </trkpt>
      <trkpt lat="45.83115" lon="1.16741">
        <ele>292.5</ele>
        <time>2024-11-28T14:06:13Z</time>
      </trkpt>
      <trkpt lat="45.83119" lon="1.16743">
        <ele>292.7</ele>
        <time>2024-11-28T14:06:16Z</time>
      </trkpt>
      <trkpt lat="45.83123" lon="1.16742">
        <ele>292.9</ele>
        <time>2024-11-28T14:06:19Z</time>
      </trkpt>
      <trkpt lat="45.83121" lon="1.16738">
        <ele>293.1</ele>
        <time>2024-11-28T14:06:22Z</time>
      </trkpt>
      <trkpt lat="45.83115" lon="1.16741">
        <ele>293.4</ele>
        <time>2024-11-28T14:06:25Z</time>
      </trkpt>
      <trkpt lat="45.8311" lon="1.16747">
        <ele>293.7</ele>
        <time>2024-11-28T14:06:28Z</time>
      </trkpt>
      <trkpt lat="45.83111" lon="1.16755">
        <ele>294</ele>
        <time>2024-11-28T14:06:31Z</time>
      </trkpt>
      <trkpt lat="45.83118" lon="1.16763">
        <ele>294.7</ele>
        <time>2024-11-28T14:06:34Z</time>
      </trkpt>
      <trkpt lat="45.83122" lon="1.16772">
        <ele>295.5</ele>
        <time>2024-11-28T14:06:37Z</time>
      </trkpt>
      <trkpt lat="45.83125" lon="1.16782">
        <ele>296.3</ele>
        <time>2024-11-28T14:06:40Z</time>
      </trkpt>
      <trkpt lat="45.83131" lon="1.16791">
        <ele>297.2</ele>
        <time>2024-11-28T14:06:43Z</time>
      </trkpt>
      <trkpt lat="45.83136" lon="1.16799">
        <ele>298.1</ele>
        <time>2024-11-28T14:06:46Z</time>
      </trkpt>
      <trkpt lat="45.8314" lon="1.16807">
        <ele>298.9</ele>
        <time>2024-11-28T14:06:49Z</time>
      </trkpt>
      <trkpt lat="45.83143" lon="1.16817">
        <ele>299.8</ele>
        <time>2024-11-28T14:06:52Z</time>
      </trkpt>
      <trkpt lat="45.83146" lon="1.16826">
        <ele>300.5</ele>
        <time>2024-11-28T14:06:55Z</time>
      </trkpt>
      <trkpt lat="45.8315" lon="1.16833">
        <ele>301.3</ele>
        <time>2024-11-28T14:06:58Z</time>
      </trkpt>
      <trkpt lat="45.83154" lon="1.16844">
        <ele>302.1</ele>
        <time>2024-11-28T14:07:01Z</time>
      </trkpt>
      <trkpt lat="45.83158" lon="1.16855">
        <ele>303</ele>
        <time>2024-11-28T14:07:04Z</time>
      </trkpt>
      <trkpt lat="45.83162" lon="1.16865">
        <ele>303.8</ele>
        <time>2024-11-28T14:07:07Z</time>
      </trkpt>
      <trkpt lat="45.83167" lon="1.16872">
        <ele>304.5</ele>
        <time>2024-11-28T14:07:10Z</time>
      </trkpt>
      <trkpt lat="45.83171" lon="1.16882">
        <ele>305.2</ele>
        <time>2024-11-28T14:07:13Z</time>
      </trkpt>
      <trkpt lat="45.83174" lon="1.16888">
        <ele>305.6</ele>
        <time>2024-11-28T14:07:16Z</time>
      </trkpt>
      <trkpt lat="45.83179" lon="1.16904">
        <ele>306.6</ele>
        <time>2024-11-28T14:07:19Z</time>
      </trkpt>
      <trkpt lat="45.83184" lon="1.16915">
        <ele>307.3</ele>
        <time>2024-11-28T14:07:22Z</time>
      </trkpt>
      <trkpt lat="45.83188" lon="1.16925">
        <ele>307.8</ele>
        <time>2024-11-28T14:07:25Z</time>
      </trkpt>
      <trkpt lat="45.83193" lon="1.16936">
        <ele>308.4</ele>
        <time>2024-11-28T14:07:28Z</time>
      </trkpt>
      <trkpt lat="45.83196" lon="1.16946">
        <ele>308.7</ele>
        <time>2024-11-28T14:07:31Z</time>
      </trkpt>
      <trkpt lat="45.83201" lon="1.16957">
        <ele>309</ele>
        <time>2024-11-28T14:07:34Z</time>
      </trkpt>
      <trkpt lat="45.83206" lon="1.16968">
        <ele>309.3</ele>
        <time>2024-11-28T14:07:37Z</time>
      </trkpt>
      <trkpt lat="45.83209" lon="1.16981">
        <ele>309.5</ele>
        <time>2024-11-28T14:07:40Z</time>
      </trkpt>
      <trkpt lat="45.83213" lon="1.16993">
        <ele>309.6</ele>
        <time>2024-11-28T14:07:43Z</time>
      </trkpt>
      <trkpt lat="45.83216" lon="1.17009">
        <ele>309.7</ele>
        <time>2024-11-28T14:07:46Z</time>
      </trkpt>
      <trkpt lat="45.83219" lon="1.17025">
        <ele>309.7</ele>
        <time>2024-11-28T14:07:49Z</time>
      </trkpt>
      <trkpt lat="45.83221" lon="1.1704">
        <ele>309.7</ele>
        <time>2024-11-28T14:07:52Z</time>
      </trkpt>
      <trkpt lat="45.83224" lon="1.17057">
        <ele>309.3</ele>
        <time>2024-11-28T14:07:55Z</time>
      </trkpt>
      <trkpt lat="45.83227" lon="1.17076">
        <ele>308.6</ele>
        <time>2024-11-28T14:07:58Z</time>
      </trkpt>
      <trkpt lat="45.83233" lon="1.17102">
        <ele>307.6</ele>
        <time>2024-11-28T14:08:01Z</time>
      </trkpt>
      <trkpt lat="45.8324" lon="1.17127">
        <ele>307.1</ele>
        <time>2024-11-28T14:08:04Z</time>
      </trkpt>
      <trkpt lat="45.83242" lon="1.17155">
        <ele>306.5</ele>
        <time>2024-11-28T14:08:07Z</time>
      </trkpt>
      <trkpt lat="45.83245" lon="1.17172">
        <ele>306.2</ele>
        <time>2024-11-28T14:08:10Z</time>
      </trkpt>
      <trkpt lat="45.83251" lon="1.17194">
        <ele>305.6</ele>
        <time>2024-11-28T14:08:13Z</time>
      </trkpt>
      <trkpt lat="45.83254" lon="1.17214">
        <ele>305.3</ele>
        <time>2024-11-28T14:08:16Z</time>
      </trkpt>
      <trkpt lat="45.83259" lon="1.17234">
        <ele>304.9</ele>
        <time>2024-11-28T14:08:19Z</time>
      </trkpt>
      <trkpt lat="45.83264" lon="1.17252">
        <ele>304.3</ele>
        <time>2024-11-28T14:08:22Z</time>
      </trkpt>
      <trkpt lat="45.83274" lon="1.17272">
        <ele>303.5</ele>
        <time>2024-11-28T14:08:25Z</time>
      </trkpt>
      <trkpt lat="45.83285" lon="1.17285">
        <ele>302.9</ele>
        <time>2024-11-28T14:08:28Z</time>
      </trkpt>
      <trkpt lat="45.83297" lon="1.17291">
        <ele>302.5</ele>
        <time>2024-11-28T14:08:31Z</time>
      </trkpt>
      <trkpt lat="45.83303" lon="1.17309">
        <ele>302.7</ele>
        <time>2024-11-28T14:08:34Z</time>
      </trkpt>
      <trkpt lat="45.83303" lon="1.1732">
        <ele>303.1</ele>
        <time>2024-11-28T14:08:37Z</time>
      </trkpt>
      <trkpt lat="45.833" lon="1.17329">
        <ele>303.5</ele>
        <time>2024-11-28T14:08:40Z</time>
      </trkpt>
      <trkpt lat="45.83296" lon="1.17343">
        <ele>303.9</ele>
        <time>2024-11-28T14:08:43Z</time>
      </trkpt>
      <trkpt lat="45.83295" lon="1.17364">
        <ele>304</ele>
        <time>2024-11-28T14:08:46Z</time>
      </trkpt>
      <trkpt lat="45.83286" lon="1.17385">
        <ele>304.1</ele>
        <time>2024-11-28T14:08:49Z</time>
      </trkpt>
      <trkpt lat="45.83283" lon="1.17397">
        <ele>304.3</ele>
        <time>2024-11-28T14:08:52Z</time>
      </trkpt>
      <trkpt lat="45.83282" lon="1.17414">
        <ele>304.7</ele>
        <time>2024-11-28T14:08:55Z</time>
      </trkpt>
      <trkpt lat="45.83282" lon="1.17426">
        <ele>305</ele>
        <time>2024-11-28T14:08:58Z</time>
      </trkpt>
      <trkpt lat="45.83279" lon="1.17435">
        <ele>305.2</ele>
        <time>2024-11-28T14:09:01Z</time>
      </trkpt>
      <trkpt lat="45.83275" lon="1.17447">
        <ele>305.6</ele>
        <time>2024-11-28T14:09:04Z</time>
      </trkpt>
      <trkpt lat="45.8327" lon="1.17464">
        <ele>306.2</ele>
        <time>2024-11-28T14:09:07Z</time>
      </trkpt>
      <trkpt lat="45.83267" lon="1.17477">
        <ele>306.6</ele>
        <time>2024-11-28T14:09:10Z</time>
      </trkpt>
      <trkpt lat="45.83267" lon="1.17486">
        <ele>307</ele>
        <time>2024-11-28T14:09:13Z</time>
      </trkpt>
      <trkpt lat="45.83265" lon="1.17502">
        <ele>307.4</ele>
        <time>2024-11-28T14:09:16Z</time>
      </trkpt>
      <trkpt lat="45.83262" lon="1.17515">
        <ele>307.7</ele>
        <time>2024-11-28T14:09:19Z</time>
      </trkpt>
      <trkpt lat="45.83253" lon="1.17526">
        <ele>308.2</ele>
        <time>2024-11-28T14:09:22Z</time>
      </trkpt>
      <trkpt lat="45.83241" lon="1.1753">
        <ele>308.9</ele>
        <time>2024-11-28T14:09:25Z</time>
      </trkpt>
      <trkpt lat="45.83232" lon="1.17535">
        <ele>309.4</ele>
        <time>2024-11-28T14:09:28Z</time>
      </trkpt>
      <trkpt lat="45.83228" lon="1.17544">
        <ele>309.7</ele>
        <time>2024-11-28T14:09:31Z</time>
      </trkpt>
      <trkpt lat="45.83225" lon="1.17558">
        <ele>309.9</ele>
        <time>2024-11-28T14:09:34Z</time>
      </trkpt>
      <trkpt lat="45.83222" lon="1.1757">
        <ele>310.2</ele>
        <time>2024-11-28T14:09:37Z</time>
      </trkpt>
      <trkpt lat="45.83222" lon="1.1758">
        <ele>310.4</ele>
        <time>2024-11-28T14:09:40Z</time>
      </trkpt>
      <trkpt lat="45.8322" lon="1.17592">
        <ele>310.6</ele>
        <time>2024-11-28T14:09:43Z</time>
      </trkpt>
      <trkpt lat="45.83217" lon="1.17603">
        <ele>310.9</ele>
        <time>2024-11-28T14:09:46Z</time>
      </trkpt>
      <trkpt lat="45.83214" lon="1.17614">
        <ele>311.1</ele>
        <time>2024-11-28T14:09:49Z</time>
      </trkpt>
      <trkpt lat="45.8321" lon="1.17624">
        <ele>311.4</ele>
        <time>2024-11-28T14:09:52Z</time>
      </trkpt>
      <trkpt lat="45.83205" lon="1.17636">
        <ele>311.7</ele>
        <time>2024-11-28T14:09:55Z</time>
      </trkpt>
      <trkpt lat="45.83199" lon="1.1765">
        <ele>312</ele>
        <time>2024-11-28T14:09:58Z</time>
      </trkpt>
      <trkpt lat="45.83197" lon="1.17661">
        <ele>312.1</ele>
        <time>2024-11-28T14:10:01Z</time>
      </trkpt>
      <trkpt lat="45.83201" lon="1.17668">
        <ele>312.2</ele>
        <time>2024-11-28T14:10:04Z</time>
      </trkpt>
      <trkpt lat="45.8321" lon="1.17672">
        <ele>312</ele>
        <time>2024-11-28T14:10:07Z</time>
      </trkpt>
      <trkpt lat="45.8322" lon="1.17681">
        <ele>312.3</ele>
        <time>2024-11-28T14:10:10Z</time>
      </trkpt>
      <trkpt lat="45.83228" lon="1.17689">
        <ele>312.9</ele>
        <time>2024-11-28T14:10:13Z</time>
      </trkpt>
      <trkpt lat="45.83237" lon="1.17696">
        <ele>313.6</ele>
        <time>2024-11-28T14:10:16Z</time>
      </trkpt>
      <trkpt lat="45.83247" lon="1.177">
        <ele>314.4</ele>
        <time>2024-11-28T14:10:19Z</time>
      </trkpt>
      <trkpt lat="45.83255" lon="1.17703">
        <ele>315.1</ele>
        <time>2024-11-28T14:10:22Z</time>
      </trkpt>
      <trkpt lat="45.83263" lon="1.17709">
        <ele>315.8</ele>
        <time>2024-11-28T14:10:25Z</time>
      </trkpt>
      <trkpt lat="45.83272" lon="1.17712">
        <ele>316.4</ele>
        <time>2024-11-28T14:10:28Z</time>
      </trkpt>
      <trkpt lat="45.83279" lon="1.17715">
        <ele>316.9</ele>
        <time>2024-11-28T14:10:31Z</time>
      </trkpt>
      <trkpt lat="45.83286" lon="1.17716">
        <ele>317.2</ele>
        <time>2024-11-28T14:10:34Z</time>
      </trkpt>
      <trkpt lat="45.83296" lon="1.17715">
        <ele>317.5</ele>
        <time>2024-11-28T14:10:37Z</time>
      </trkpt>
      <trkpt lat="45.83307" lon="1.17711">
        <ele>317.7</ele>
        <time>2024-11-28T14:10:40Z</time>
      </trkpt>
      <trkpt lat="45.83318" lon="1.17708">
        <ele>317.5</ele>
        <time>2024-11-28T14:10:43Z</time>
      </trkpt>
      <trkpt lat="45.83335" lon="1.17708">
        <ele>317</ele>
        <time>2024-11-28T14:10:46Z</time>
      </trkpt>
      <trkpt lat="45.83351" lon="1.17705">
        <ele>316</ele>
        <time>2024-11-28T14:10:49Z</time>
      </trkpt>
      <trkpt lat="45.83368" lon="1.17699">
        <ele>314.3</ele>
        <time>2024-11-28T14:10:52Z</time>
      </trkpt>
      <trkpt lat="45.83389" lon="1.17696">
        <ele>312.2</ele>
        <time>2024-11-28T14:10:55Z</time>
      </trkpt>
      <trkpt lat="45.83415" lon="1.17691">
        <ele>310.5</ele>
        <time>2024-11-28T14:10:58Z</time>
      </trkpt>
      <trkpt lat="45.83439" lon="1.1769">
        <ele>310.2</ele>
        <time>2024-11-28T14:11:01Z</time>
      </trkpt>
      <trkpt lat="45.83459" lon="1.17688">
        <ele>310.7</ele>
        <time>2024-11-28T14:11:04Z</time>
      </trkpt>
      <trkpt lat="45.83475" lon="1.17685">
        <ele>311.4</ele>
        <time>2024-11-28T14:11:07Z</time>
      </trkpt>
      <trkpt lat="45.83487" lon="1.17683">
        <ele>312</ele>
        <time>2024-11-28T14:11:10Z</time>
      </trkpt>
      <trkpt lat="45.83499" lon="1.17682">
        <ele>312.6</ele>
        <time>2024-11-28T14:11:13Z</time>
      </trkpt>
      <trkpt lat="45.8351" lon="1.17682">
        <ele>313</ele>
        <time>2024-11-28T14:11:16Z</time>
      </trkpt>
      <trkpt lat="45.83519" lon="1.17681">
        <ele>313.3</ele>
        <time>2024-11-28T14:11:19Z</time>
      </trkpt>
      <trkpt lat="45.83528" lon="1.1768">
        <ele>313.5</ele>
        <time>2024-11-28T14:11:22Z</time>
      </trkpt>
      <trkpt lat="45.83535" lon="1.17678">
        <ele>313.7</ele>
        <time>2024-11-28T14:11:25Z</time>
      </trkpt>
      <trkpt lat="45.83545" lon="1.17679">
        <ele>313.9</ele>
        <time>2024-11-28T14:11:28Z</time>
      </trkpt>
      <trkpt lat="45.83555" lon="1.17679">
        <ele>314.1</ele>
        <time>2024-11-28T14:11:31Z</time>
      </trkpt>
      <trkpt lat="45.83565" lon="1.17677">
        <ele>314.2</ele>
        <time>2024-11-28T14:11:34Z</time>
      </trkpt>
      <trkpt lat="45.83575" lon="1.17672">
        <ele>314.4</ele>
        <time>2024-11-28T14:11:37Z</time>
      </trkpt>
      <trkpt lat="45.83585" lon="1.17671">
        <ele>314.5</ele>
        <time>2024-11-28T14:11:40Z</time>
      </trkpt>
      <trkpt lat="45.83595" lon="1.17671">
        <ele>314.8</ele>
        <time>2024-11-28T14:11:43Z</time>
      </trkpt>
      <trkpt lat="45.83605" lon="1.17668">
        <ele>315.2</ele>
        <time>2024-11-28T14:11:46Z</time>
      </trkpt>
      <trkpt lat="45.83615" lon="1.17668">
        <ele>315.5</ele>
        <time>2024-11-28T14:11:49Z</time>
      </trkpt>
      <trkpt lat="45.83625" lon="1.17666">
        <ele>315.9</ele>
        <time>2024-11-28T14:11:52Z</time>
      </trkpt>
      <trkpt lat="45.83635" lon="1.17663">
        <ele>316.4</ele>
        <time>2024-11-28T14:11:55Z</time>
      </trkpt>
      <trkpt lat="45.83644" lon="1.17661">
        <ele>316.9</ele>
        <time>2024-11-28T14:11:58Z</time>
      </trkpt>
      <trkpt lat="45.83651" lon="1.1766">
        <ele>317.3</ele>
        <time>2024-11-28T14:12:01Z</time>
      </trkpt>
      <trkpt lat="45.83661" lon="1.17656">
        <ele>318</ele>
        <time>2024-11-28T14:12:04Z</time>
      </trkpt>
      <trkpt lat="45.83669" lon="1.17659">
        <ele>318.4</ele>
        <time>2024-11-28T14:12:07Z</time>
      </trkpt>
      <trkpt lat="45.83669" lon="1.17671">
        <ele>318.7</ele>
        <time>2024-11-28T14:12:10Z</time>
      </trkpt>
      <trkpt lat="45.8367" lon="1.17686">
        <ele>319.1</ele>
        <time>2024-11-28T14:12:13Z</time>
      </trkpt>
      <trkpt lat="45.83671" lon="1.177">
        <ele>319.4</ele>
        <time>2024-11-28T14:12:16Z</time>
      </trkpt>
      <trkpt lat="45.83672" lon="1.17714">
        <ele>319.7</ele>
        <time>2024-11-28T14:12:19Z</time>
      </trkpt>
      <trkpt lat="45.83673" lon="1.17729">
        <ele>320</ele>
        <time>2024-11-28T14:12:22Z</time>
      </trkpt>
      <trkpt lat="45.83673" lon="1.17743">
        <ele>320.2</ele>
        <time>2024-11-28T14:12:25Z</time>
      </trkpt>
      <trkpt lat="45.83673" lon="1.17759">
        <ele>320.4</ele>
        <time>2024-11-28T14:12:28Z</time>
      </trkpt>
      <trkpt lat="45.83673" lon="1.17774">
        <ele>320.5</ele>
        <time>2024-11-28T14:12:31Z</time>
      </trkpt>
      <trkpt lat="45.83673" lon="1.17791">
        <ele>320.5</ele>
        <time>2024-11-28T14:12:34Z</time>
      </trkpt>
      <trkpt lat="45.83674" lon="1.17809">
        <ele>320.3</ele>
        <time>2024-11-28T14:12:37Z</time>
      </trkpt>
      <trkpt lat="45.83675" lon="1.17827">
        <ele>320</ele>
        <time>2024-11-28T14:12:40Z</time>
      </trkpt>
      <trkpt lat="45.83675" lon="1.17847">
        <ele>319.6</ele>
        <time>2024-11-28T14:12:43Z</time>
      </trkpt>
      <trkpt lat="45.83675" lon="1.17865">
        <ele>319.3</ele>
        <time>2024-11-28T14:12:46Z</time>
      </trkpt>
      <trkpt lat="45.83677" lon="1.17884">
        <ele>319.2</ele>
        <time>2024-11-28T14:12:49Z</time>
      </trkpt>
      <trkpt lat="45.83679" lon="1.17906">
        <ele>319.2</ele>
        <time>2024-11-28T14:12:52Z</time>
      </trkpt>
      <trkpt lat="45.83679" lon="1.17924">
        <ele>319.2</ele>
        <time>2024-11-28T14:12:55Z</time>
      </trkpt>
      <trkpt lat="45.83678" lon="1.17943">
        <ele>319.3</ele>
        <time>2024-11-28T14:12:58Z</time>
      </trkpt>
      <trkpt lat="45.83679" lon="1.1796">
        <ele>319.4</ele>
        <time>2024-11-28T14:13:01Z</time>
      </trkpt>
      <trkpt lat="45.8368" lon="1.17977">
        <ele>319.5</ele>
        <time>2024-11-28T14:13:04Z</time>
      </trkpt>
      <trkpt lat="45.83682" lon="1.17995">
        <ele>319.7</ele>
        <time>2024-11-28T14:13:07Z</time>
      </trkpt>
      <trkpt lat="45.83683" lon="1.18011">
        <ele>320</ele>
        <time>2024-11-28T14:13:10Z</time>
      </trkpt>
      <trkpt lat="45.83684" lon="1.18025">
        <ele>320.2</ele>
        <time>2024-11-28T14:13:13Z</time>
      </trkpt>
      <trkpt lat="45.83686" lon="1.18039">
        <ele>320.5</ele>
        <time>2024-11-28T14:13:16Z</time>
      </trkpt>
      <trkpt lat="45.83688" lon="1.18056">
        <ele>320.9</ele>
        <time>2024-11-28T14:13:19Z</time>
      </trkpt>
      <trkpt lat="45.83688" lon="1.18074">
        <ele>321.3</ele>
        <time>2024-11-28T14:13:22Z</time>
      </trkpt>
      <trkpt lat="45.83688" lon="1.18092">
        <ele>321.7</ele>
        <time>2024-11-28T14:13:25Z</time>
      </trkpt>
      <trkpt lat="45.83688" lon="1.1811">
        <ele>322.1</ele>
        <time>2024-11-28T14:13:28Z</time>
      </trkpt>
      <trkpt lat="45.83688" lon="1.18127">
        <ele>322.4</ele>
        <time>2024-11-28T14:13:31Z</time>
      </trkpt>
      <trkpt lat="45.83686" lon="1.18146">
        <ele>322.9</ele>
        <time>2024-11-28T14:13:34Z</time>
      </trkpt>
      <trkpt lat="45.83686" lon="1.18163">
        <ele>323.4</ele>
        <time>2024-11-28T14:13:37Z</time>
      </trkpt>
      <trkpt lat="45.83686" lon="1.18179">
        <ele>323.9</ele>
        <time>2024-11-28T14:13:40Z</time>
      </trkpt>
      <trkpt lat="45.83687" lon="1.18195">
        <ele>324.5</ele>
        <time>2024-11-28T14:13:43Z</time>
      </trkpt>
      <trkpt lat="45.83687" lon="1.18212">
        <ele>325</ele>
        <time>2024-11-28T14:13:46Z</time>
      </trkpt>
      <trkpt lat="45.83686" lon="1.18227">
        <ele>325.6</ele>
        <time>2024-11-28T14:13:49Z</time>
      </trkpt>
      <trkpt lat="45.83684" lon="1.18239">
        <ele>326.2</ele>
        <time>2024-11-28T14:13:52Z</time>
      </trkpt>
      <trkpt lat="45.83675" lon="1.18244">
        <ele>326.1</ele>
        <time>2024-11-28T14:13:55Z</time>
      </trkpt>
      <trkpt lat="45.83662" lon="1.18242">
        <ele>325.9</ele>
        <time>2024-11-28T14:13:58Z</time>
      </trkpt>
      <trkpt lat="45.83649" lon="1.18239">
        <ele>325.6</ele>
        <time>2024-11-28T14:14:01Z</time>
      </trkpt>
      <trkpt lat="45.83635" lon="1.18234">
        <ele>325.2</ele>
        <time>2024-11-28T14:14:04Z</time>
      </trkpt>
      <trkpt lat="45.83617" lon="1.18232">
        <ele>324.7</ele>
        <time>2024-11-28T14:14:07Z</time>
      </trkpt>
      <trkpt lat="45.836" lon="1.18229">
        <ele>324.2</ele>
        <time>2024-11-28T14:14:10Z</time>
      </trkpt>
      <trkpt lat="45.83584" lon="1.18223">
        <ele>323.7</ele>
        <time>2024-11-28T14:14:13Z</time>
      </trkpt>
      <trkpt lat="45.83568" lon="1.18219">
        <ele>323.3</ele>
        <time>2024-11-28T14:14:16Z</time>
      </trkpt>
      <trkpt lat="45.83552" lon="1.18216">
        <ele>322.8</ele>
        <time>2024-11-28T14:14:19Z</time>
      </trkpt>
      <trkpt lat="45.83533" lon="1.18212">
        <ele>322.4</ele>
        <time>2024-11-28T14:14:22Z</time>
      </trkpt>
      <trkpt lat="45.83519" lon="1.18205">
        <ele>322</ele>
        <time>2024-11-28T14:14:25Z</time>
      </trkpt>
      <trkpt lat="45.83502" lon="1.18196">
        <ele>321.6</ele>
        <time>2024-11-28T14:14:28Z</time>
      </trkpt>
      <trkpt lat="45.83485" lon="1.18188">
        <ele>321.4</ele>
        <time>2024-11-28T14:14:31Z</time>
      </trkpt>
      <trkpt lat="45.83466" lon="1.18178">
        <ele>321.2</ele>
        <time>2024-11-28T14:14:34Z</time>
      </trkpt>
      <trkpt lat="45.8345" lon="1.18169">
        <ele>321.2</ele>
        <time>2024-11-28T14:14:37Z</time>
      </trkpt>
      <trkpt lat="45.83433" lon="1.18156">
        <ele>321.1</ele>
        <time>2024-11-28T14:14:40Z</time>
      </trkpt>
      <trkpt lat="45.83419" lon="1.18141">
        <ele>321</ele>
        <time>2024-11-28T14:14:43Z</time>
      </trkpt>
      <trkpt lat="45.83408" lon="1.18133">
        <ele>321</ele>
        <time>2024-11-28T14:14:46Z</time>
      </trkpt>
      <trkpt lat="45.83395" lon="1.18121">
        <ele>321.1</ele>
        <time>2024-11-28T14:14:49Z</time>
      </trkpt>
      <trkpt lat="45.83382" lon="1.18109">
        <ele>321.3</ele>
        <time>2024-11-28T14:14:52Z</time>
      </trkpt>
      <trkpt lat="45.83373" lon="1.18101">
        <ele>321.5</ele>
        <time>2024-11-28T14:14:55Z</time>
      </trkpt>
      <trkpt lat="45.83363" lon="1.18089">
        <ele>321.8</ele>
        <time>2024-11-28T14:14:58Z</time>
      </trkpt>
      <trkpt lat="45.83352" lon="1.18079">
        <ele>322</ele>
        <time>2024-11-28T14:15:01Z</time>
      </trkpt>
      <trkpt lat="45.83339" lon="1.18073">
        <ele>322.4</ele>
        <time>2024-11-28T14:15:04Z</time>
      </trkpt>
      <trkpt lat="45.83328" lon="1.18065">
        <ele>322.8</ele>
        <time>2024-11-28T14:15:07Z</time>
      </trkpt>
      <trkpt lat="45.83314" lon="1.1806">
        <ele>323.3</ele>
        <time>2024-11-28T14:15:10Z</time>
      </trkpt>
      <trkpt lat="45.833" lon="1.18055">
        <ele>323.8</ele>
        <time>2024-11-28T14:15:13Z</time>
      </trkpt>
      <trkpt lat="45.83288" lon="1.1805">
        <ele>324.2</ele>
        <time>2024-11-28T14:15:16Z</time>
      </trkpt>
      <trkpt lat="45.83275" lon="1.18048">
        <ele>324.7</ele>
        <time>2024-11-28T14:15:19Z</time>
      </trkpt>
      <trkpt lat="45.83261" lon="1.18046">
        <ele>325</ele>
        <time>2024-11-28T14:15:22Z</time>
      </trkpt>
      <trkpt lat="45.83246" lon="1.1804">
        <ele>325.2</ele>
        <time>2024-11-28T14:15:25Z</time>
      </trkpt>
      <trkpt lat="45.83232" lon="1.18034">
        <ele>325.3</ele>
        <time>2024-11-28T14:15:28Z</time>
      </trkpt>
      <trkpt lat="45.83218" lon="1.18028">
        <ele>325.4</ele>
        <time>2024-11-28T14:15:31Z</time>
      </trkpt>
      <trkpt lat="45.83207" lon="1.18025">
        <ele>325.6</ele>
        <time>2024-11-28T14:15:34Z</time>
      </trkpt>
      <trkpt lat="45.83193" lon="1.18021">
        <ele>325.7</ele>
        <time>2024-11-28T14:15:37Z</time>
      </trkpt>
      <trkpt lat="45.8318" lon="1.18018">
        <ele>325.8</ele>
        <time>2024-11-28T14:15:40Z</time>
      </trkpt>
      <trkpt lat="45.83163" lon="1.18017">
        <ele>325.8</ele>
        <time>2024-11-28T14:15:43Z</time>
      </trkpt>
      <trkpt lat="45.83148" lon="1.18015">
        <ele>325.5</ele>
        <time>2024-11-28T14:15:46Z</time>
      </trkpt>
      <trkpt lat="45.83133" lon="1.18015">
        <ele>324.9</ele>
        <time>2024-11-28T14:15:49Z</time>
      </trkpt>
      <trkpt lat="45.83116" lon="1.18013">
        <ele>324.1</ele>
        <time>2024-11-28T14:15:52Z</time>
      </trkpt>
      <trkpt lat="45.83097" lon="1.18012">
        <ele>323.5</ele>
        <time>2024-11-28T14:15:55Z</time>
      </trkpt>
      <trkpt lat="45.8308" lon="1.18012">
        <ele>323.4</ele>
        <time>2024-11-28T14:15:58Z</time>
      </trkpt>
      <trkpt lat="45.83066" lon="1.1801">
        <ele>323.6</ele>
        <time>2024-11-28T14:16:01Z</time>
      </trkpt>
      <trkpt lat="45.83053" lon="1.18007">
        <ele>323.8</ele>
        <time>2024-11-28T14:16:04Z</time>
      </trkpt>
      <trkpt lat="45.83037" lon="1.18004">
        <ele>324.2</ele>
        <time>2024-11-28T14:16:07Z</time>
      </trkpt>
      <trkpt lat="45.83023" lon="1.18001">
        <ele>324.7</ele>
        <time>2024-11-28T14:16:10Z</time>
      </trkpt>
      <trkpt lat="45.83009" lon="1.17997">
        <ele>325.1</ele>
        <time>2024-11-28T14:16:13Z</time>
      </trkpt>
      <trkpt lat="45.82996" lon="1.17994">
        <ele>325.3</ele>
        <time>2024-11-28T14:16:16Z</time>
      </trkpt>
      <trkpt lat="45.82991" lon="1.17999">
        <ele>325.6</ele>
        <time>2024-11-28T14:16:19Z</time>
      </trkpt>
      <trkpt lat="45.82988" lon="1.18014">
        <ele>326.1</ele>
        <time>2024-11-28T14:16:22Z</time>
      </trkpt>
      <trkpt lat="45.82987" lon="1.18027">
        <ele>326.6</ele>
        <time>2024-11-28T14:16:25Z</time>
      </trkpt>
      <trkpt lat="45.82984" lon="1.18044">
        <ele>327.1</ele>
        <time>2024-11-28T14:16:28Z</time>
      </trkpt>
      <trkpt lat="45.82982" lon="1.18062">
        <ele>327.8</ele>
        <time>2024-11-28T14:16:31Z</time>
      </trkpt>
      <trkpt lat="45.82979" lon="1.18077">
        <ele>328.3</ele>
        <time>2024-11-28T14:16:34Z</time>
      </trkpt>
      <trkpt lat="45.82977" lon="1.18092">
        <ele>328.8</ele>
        <time>2024-11-28T14:16:37Z</time>
      </trkpt>
      <trkpt lat="45.82975" lon="1.18105">
        <ele>329.3</ele>
        <time>2024-11-28T14:16:40Z</time>
      </trkpt>
      <trkpt lat="45.82973" lon="1.18115">
        <ele>329.6</ele>
        <time>2024-11-28T14:16:43Z</time>
      </trkpt>
      <trkpt lat="45.82973" lon="1.18116">
        <ele>329.6</ele>
        <time>2024-11-28T14:16:46Z</time>
      </trkpt>
      <trkpt lat="45.82973" lon="1.18116">
        <ele>329.6</ele>
        <time>2024-11-28T14:16:49Z</time>
      </trkpt>
      <trkpt lat="45.82973" lon="1.18116">
        <ele>329.7</ele>
        <time>2024-11-28T14:16:52Z</time>
      </trkpt>
      <trkpt lat="45.82973" lon="1.18116">
        <ele>329.7</ele>
        <time>2024-11-28T14:16:55Z</time>
      </trkpt>
      <trkpt lat="45.82973" lon="1.18118">
        <ele>329.7</ele>
        <time>2024-11-28T14:16:58Z</time>
      </trkpt>
      <trkpt lat="45.82974" lon="1.18118">
        <ele>329.7</ele>
        <time>2024-11-28T14:17:01Z</time>
      </trkpt>
      <trkpt lat="45.82975" lon="1.18118">
        <ele>329.7</ele>
        <time>2024-11-28T14:17:04Z</time>
      </trkpt>
      <trkpt lat="45.82975" lon="1.18118">
        <ele>329.7</ele>
        <time>2024-11-28T14:17:07Z</time>
      </trkpt>
      <trkpt lat="45.82975" lon="1.18118">
        <ele>329.7</ele>
        <time>2024-11-28T14:17:10Z</time>
      </trkpt>
      <trkpt lat="45.82975" lon="1.18118">
        <ele>329.7</ele>
        <time>2024-11-28T14:17:13Z</time>
      </trkpt>
      <trkpt lat="45.82975" lon="1.1812">
        <ele>329.7</ele>
        <time>2024-11-28T14:17:16Z</time>
      </trkpt>
      <trkpt lat="45.82974" lon="1.1812">
        <ele>329.8</ele>
        <time>2024-11-28T14:17:19Z</time>
      </trkpt>
      <trkpt lat="45.82974" lon="1.1812">
        <ele>329.8</ele>
        <time>2024-11-28T14:17:22Z</time>
      </trkpt>
      <trkpt lat="45.82971" lon="1.18121">
        <ele>329.8</ele>
        <time>2024-11-28T14:17:25Z</time>
      </trkpt>
      <trkpt lat="45.82971" lon="1.18121">
        <ele>329.8</ele>
        <time>2024-11-28T14:17:28Z</time>
      </trkpt>
      <trkpt lat="45.82971" lon="1.18121">
        <ele>329.8</ele>
        <time>2024-11-28T14:17:31Z</time>
      </trkpt>
      <trkpt lat="45.82971" lon="1.1812">
        <ele>329.8</ele>
        <time>2024-11-28T14:17:34Z</time>
      </trkpt>
      <trkpt lat="45.82971" lon="1.18121">
        <ele>329.8</ele>
        <time>2024-11-28T14:17:37Z</time>
      </trkpt>
      <trkpt lat="45.82971" lon="1.18119">
        <ele>329.9</ele>
        <time>2024-11-28T14:17:40Z</time>
      </trkpt>
      <trkpt lat="45.8297" lon="1.18118">
        <ele>329.9</ele>
        <time>2024-11-28T14:17:43Z</time>
      </trkpt>
      <trkpt lat="45.82972" lon="1.18117">
        <ele>329.9</ele>
        <time>2024-11-28T14:17:46Z</time>
      </trkpt>
      <trkpt lat="45.82973" lon="1.18115">
        <ele>329.9</ele>
        <time>2024-11-28T14:17:49Z</time>
      </trkpt>
      <trkpt lat="45.82973" lon="1.18114">
        <ele>329.9</ele>
        <time>2024-11-28T14:17:52Z</time>
      </trkpt>
      <trkpt lat="45.82973" lon="1.18112">
        <ele>330</ele>
        <time>2024-11-28T14:17:55Z</time>
      </trkpt>
      <trkpt lat="45.82973" lon="1.18111">
        <ele>330</ele>
        <time>2024-11-28T14:17:58Z</time>
      </trkpt>
      <trkpt lat="45.82973" lon="1.18111">
        <ele>330</ele>
        <time>2024-11-28T14:18:01Z</time>
      </trkpt>
      <trkpt lat="45.82973" lon="1.18111">
        <ele>330</ele>
        <time>2024-11-28T14:18:04Z</time>
      </trkpt>
      <trkpt lat="45.82972" lon="1.18111">
        <ele>330</ele>
        <time>2024-11-28T14:18:07Z</time>
      </trkpt>
      <trkpt lat="45.82971" lon="1.18113">
        <ele>330</ele>
        <time>2024-11-28T14:18:10Z</time>
      </trkpt>
      <trkpt lat="45.82971" lon="1.18113">
        <ele>330</ele>
        <time>2024-11-28T14:18:13Z</time>
      </trkpt>
      <trkpt lat="45.8297" lon="1.18112">
        <ele>330</ele>
        <time>2024-11-28T14:18:16Z</time>
      </trkpt>
      <trkpt lat="45.82969" lon="1.18112">
        <ele>330.1</ele>
        <time>2024-11-28T14:18:19Z</time>
      </trkpt>
      <trkpt lat="45.8297" lon="1.18111">
        <ele>330.1</ele>
        <time>2024-11-28T14:18:22Z</time>
      </trkpt>
      <trkpt lat="45.8297" lon="1.18111">
        <ele>330.1</ele>
        <time>2024-11-28T14:18:25Z</time>
      </trkpt>
      <trkpt lat="45.8297" lon="1.18112">
        <ele>330.1</ele>
        <time>2024-11-28T14:18:28Z</time>
      </trkpt>
      <trkpt lat="45.8297" lon="1.18112">
        <ele>330.1</ele>
        <time>2024-11-28T14:18:31Z</time>
      </trkpt>
      <trkpt lat="45.8297" lon="1.18111">
        <ele>330.1</ele>
        <time>2024-11-28T14:18:34Z</time>
      </trkpt>
      <trkpt lat="45.8297" lon="1.1811">
        <ele>330.1</ele>
        <time>2024-11-28T14:18:37Z</time>
      </trkpt>
      <trkpt lat="45.82969" lon="1.18111">
        <ele>330.1</ele>
        <time>2024-11-28T14:18:40Z</time>
      </trkpt>
      <trkpt lat="45.82967" lon="1.18111">
        <ele>330.2</ele>
        <time>2024-11-28T14:18:43Z</time>
      </trkpt>
      <trkpt lat="45.82967" lon="1.18112">
        <ele>330.2</ele>
        <time>2024-11-28T14:18:46Z</time>
      </trkpt>
      <trkpt lat="45.82967" lon="1.18113">
        <ele>330.2</ele>
        <time>2024-11-28T14:18:49Z</time>
      </trkpt>
      <trkpt lat="45.82967" lon="1.18113">
        <ele>330.2</ele>
        <time>2024-11-28T14:18:52Z</time>
      </trkpt>
      <trkpt lat="45.82967" lon="1.18113">
        <ele>330.2</ele>
        <time>2024-11-28T14:18:55Z</time>
      </trkpt>
      <trkpt lat="45.82967" lon="1.18113">
        <ele>330.2</ele>
        <time>2024-11-28T14:18:58Z</time>
      </trkpt>
      <trkpt lat="45.82967" lon="1.18111">
        <ele>330.2</ele>
        <time>2024-11-28T14:19:01Z</time>
      </trkpt>
      <trkpt lat="45.82968" lon="1.18111">
        <ele>330.3</ele>
        <time>2024-11-28T14:19:04Z</time>
      </trkpt>
      <trkpt lat="45.82968" lon="1.18111">
        <ele>330.3</ele>
        <time>2024-11-28T14:19:07Z</time>
      </trkpt>
      <trkpt lat="45.82968" lon="1.1811">
        <ele>330.3</ele>
        <time>2024-11-28T14:19:10Z</time>
      </trkpt>
      <trkpt lat="45.82968" lon="1.1811">
        <ele>330.3</ele>
        <time>2024-11-28T14:19:13Z</time>
      </trkpt>
      <trkpt lat="45.8297" lon="1.18111">
        <ele>330.3</ele>
        <time>2024-11-28T14:19:16Z</time>
      </trkpt>
      <trkpt lat="45.82969" lon="1.18115">
        <ele>330.3</ele>
        <time>2024-11-28T14:19:19Z</time>
      </trkpt>
      <trkpt lat="45.8297" lon="1.18115">
        <ele>330.4</ele>
        <time>2024-11-28T14:19:22Z</time>
      </trkpt>
      <trkpt lat="45.82971" lon="1.18118">
        <ele>330.4</ele>
        <time>2024-11-28T14:19:25Z</time>
      </trkpt>
      <trkpt lat="45.82973" lon="1.18126">
        <ele>330.5</ele>
        <time>2024-11-28T14:19:28Z</time>
      </trkpt>
      <trkpt lat="45.82973" lon="1.18139">
        <ele>330.6</ele>
        <time>2024-11-28T14:19:31Z</time>
      </trkpt>
      <trkpt lat="45.82972" lon="1.18151">
        <ele>330.7</ele>
        <time>2024-11-28T14:19:34Z</time>
      </trkpt>
      <trkpt lat="45.8297" lon="1.18165">
        <ele>330.7</ele>
        <time>2024-11-28T14:19:37Z</time>
      </trkpt>
      <trkpt lat="45.82969" lon="1.18178">
        <ele>330.7</ele>
        <time>2024-11-28T14:19:40Z</time>
      </trkpt>
      <trkpt lat="45.82967" lon="1.18189">
        <ele>330.7</ele>
        <time>2024-11-28T14:19:43Z</time>
      </trkpt>
      <trkpt lat="45.82965" lon="1.18198">
        <ele>330.7</ele>
        <time>2024-11-28T14:19:46Z</time>
      </trkpt>
      <trkpt lat="45.82964" lon="1.1821">
        <ele>330.6</ele>
        <time>2024-11-28T14:19:49Z</time>
      </trkpt>
      <trkpt lat="45.82966" lon="1.18223">
        <ele>330.3</ele>
        <time>2024-11-28T14:19:52Z</time>
      </trkpt>
      <trkpt lat="45.82969" lon="1.18239">
        <ele>330</ele>
        <time>2024-11-28T14:19:55Z</time>
      </trkpt>
      <trkpt lat="45.82965" lon="1.18269">
        <ele>329.3</ele>
        <time>2024-11-28T14:19:58Z</time>
      </trkpt>
      <trkpt lat="45.82966" lon="1.18288">
        <ele>328.7</ele>
        <time>2024-11-28T14:20:01Z</time>
      </trkpt>
      <trkpt lat="45.82964" lon="1.18314">
        <ele>327.7</ele>
        <time>2024-11-28T14:20:04Z</time>
      </trkpt>
      <trkpt lat="45.82962" lon="1.18343">
        <ele>326.5</ele>
        <time>2024-11-28T14:20:07Z</time>
      </trkpt>
      <trkpt lat="45.82963" lon="1.18365">
        <ele>325.7</ele>
        <time>2024-11-28T14:20:10Z</time>
      </trkpt>
      <trkpt lat="45.82964" lon="1.18385">
        <ele>325</ele>
        <time>2024-11-28T14:20:13Z</time>
      </trkpt>
      <trkpt lat="45.82964" lon="1.18394">
        <ele>324.7</ele>
        <time>2024-11-28T14:20:16Z</time>
      </trkpt>
      <trkpt lat="45.82964" lon="1.18402">
        <ele>324.4</ele>
        <time>2024-11-28T14:20:19Z</time>
      </trkpt>
      <trkpt lat="45.82965" lon="1.18413">
        <ele>324</ele>
        <time>2024-11-28T14:20:22Z</time>
      </trkpt>
      <trkpt lat="45.82966" lon="1.18436">
        <ele>322.9</ele>
        <time>2024-11-28T14:20:25Z</time>
      </trkpt>
      <trkpt lat="45.82966" lon="1.18457">
        <ele>321.9</ele>
        <time>2024-11-28T14:20:28Z</time>
      </trkpt>
      <trkpt lat="45.82962" lon="1.18475">
        <ele>320.9</ele>
        <time>2024-11-28T14:20:31Z</time>
      </trkpt>
      <trkpt lat="45.82963" lon="1.18491">
        <ele>320</ele>
        <time>2024-11-28T14:20:34Z</time>
      </trkpt>
      <trkpt lat="45.82962" lon="1.18502">
        <ele>319.4</ele>
        <time>2024-11-28T14:20:37Z</time>
      </trkpt>
      <trkpt lat="45.8296" lon="1.18515">
        <ele>318.8</ele>
        <time>2024-11-28T14:20:40Z</time>
      </trkpt>
      <trkpt lat="45.82958" lon="1.18529">
        <ele>318.1</ele>
        <time>2024-11-28T14:20:43Z</time>
      </trkpt>
      <trkpt lat="45.82954" lon="1.18544">
        <ele>317.5</ele>
        <time>2024-11-28T14:20:46Z</time>
      </trkpt>
      <trkpt lat="45.82948" lon="1.18554">
        <ele>316.9</ele>
        <time>2024-11-28T14:20:49Z</time>
      </trkpt>
      <trkpt lat="45.82941" lon="1.18565">
        <ele>316.1</ele>
        <time>2024-11-28T14:20:52Z</time>
      </trkpt>
      <trkpt lat="45.82931" lon="1.18574">
        <ele>315.3</ele>
        <time>2024-11-28T14:20:55Z</time>
      </trkpt>
      <trkpt lat="45.82921" lon="1.18568">
        <ele>315</ele>
        <time>2024-11-28T14:20:58Z</time>
      </trkpt>
      <trkpt lat="45.82913" lon="1.1857">
        <ele>315.1</ele>
        <time>2024-11-28T14:21:01Z</time>
      </trkpt>
      <trkpt lat="45.82906" lon="1.18567">
        <ele>315.3</ele>
        <time>2024-11-28T14:21:04Z</time>
      </trkpt>
      <trkpt lat="45.829" lon="1.18557">
        <ele>315.7</ele>
        <time>2024-11-28T14:21:07Z</time>
      </trkpt>
      <trkpt lat="45.82892" lon="1.18548">
        <ele>316.4</ele>
        <time>2024-11-28T14:21:10Z</time>
      </trkpt>
      <trkpt lat="45.82883" lon="1.18542">
        <ele>317.1</ele>
        <time>2024-11-28T14:21:13Z</time>
      </trkpt>
      <trkpt lat="45.82876" lon="1.18541">
        <ele>317.6</ele>
        <time>2024-11-28T14:21:16Z</time>
      </trkpt>
      <trkpt lat="45.82868" lon="1.1854">
        <ele>317.9</ele>
        <time>2024-11-28T14:21:19Z</time>
      </trkpt>
      <trkpt lat="45.82857" lon="1.18539">
        <ele>318.1</ele>
        <time>2024-11-28T14:21:22Z</time>
      </trkpt>
      <trkpt lat="45.82854" lon="1.18544">
        <ele>317.4</ele>
        <time>2024-11-28T14:21:25Z</time>
      </trkpt>
      <trkpt lat="45.82851" lon="1.18556">
        <ele>316.3</ele>
        <time>2024-11-28T14:21:28Z</time>
      </trkpt>
      <trkpt lat="45.82845" lon="1.18567">
        <ele>314.8</ele>
        <time>2024-11-28T14:21:31Z</time>
      </trkpt>
      <trkpt lat="45.8284" lon="1.1859">
        <ele>312.5</ele>
        <time>2024-11-28T14:21:34Z</time>
      </trkpt>
      <trkpt lat="45.82832" lon="1.18609">
        <ele>310.9</ele>
        <time>2024-11-28T14:21:37Z</time>
      </trkpt>
      <trkpt lat="45.82829" lon="1.18623">
        <ele>310</ele>
        <time>2024-11-28T14:21:40Z</time>
      </trkpt>
      <trkpt lat="45.82826" lon="1.18633">
        <ele>309.4</ele>
        <time>2024-11-28T14:21:43Z</time>
      </trkpt>
      <trkpt lat="45.82823" lon="1.18641">
        <ele>308.9</ele>
        <time>2024-11-28T14:21:46Z</time>
      </trkpt>
      <trkpt lat="45.82819" lon="1.18655">
        <ele>308.2</ele>
        <time>2024-11-28T14:21:49Z</time>
      </trkpt>
      <trkpt lat="45.82814" lon="1.18669">
        <ele>307.3</ele>
        <time>2024-11-28T14:21:52Z</time>
      </trkpt>
      <trkpt lat="45.82817" lon="1.18685">
        <ele>305.2</ele>
        <time>2024-11-28T14:21:55Z</time>
      </trkpt>
      <trkpt lat="45.82818" lon="1.18701">
        <ele>303.6</ele>
        <time>2024-11-28T14:21:58Z</time>
      </trkpt>
      <trkpt lat="45.82818" lon="1.18719">
        <ele>301.8</ele>
        <time>2024-11-28T14:22:01Z</time>
      </trkpt>
      <trkpt lat="45.82814" lon="1.18739">
        <ele>299.8</ele>
        <time>2024-11-28T14:22:04Z</time>
      </trkpt>
      <trkpt lat="45.82814" lon="1.18757">
        <ele>298</ele>
        <time>2024-11-28T14:22:07Z</time>
      </trkpt>
      <trkpt lat="45.82811" lon="1.18773">
        <ele>296.4</ele>
        <time>2024-11-28T14:22:10Z</time>
      </trkpt>
      <trkpt lat="45.82807" lon="1.18782">
        <ele>295.3</ele>
        <time>2024-11-28T14:22:13Z</time>
      </trkpt>
      <trkpt lat="45.82808" lon="1.18789">
        <ele>294.6</ele>
        <time>2024-11-28T14:22:16Z</time>
      </trkpt>
      <trkpt lat="45.82809" lon="1.18798">
        <ele>293.8</ele>
        <time>2024-11-28T14:22:19Z</time>
      </trkpt>
      <trkpt lat="45.8281" lon="1.18808">
        <ele>293</ele>
        <time>2024-11-28T14:22:22Z</time>
      </trkpt>
      <trkpt lat="45.82806" lon="1.18825">
        <ele>291.8</ele>
        <time>2024-11-28T14:22:25Z</time>
      </trkpt>
      <trkpt lat="45.82797" lon="1.18848">
        <ele>289.4</ele>
        <time>2024-11-28T14:22:28Z</time>
      </trkpt>
      <trkpt lat="45.82789" lon="1.18868">
        <ele>288.2</ele>
        <time>2024-11-28T14:22:31Z</time>
      </trkpt>
      <trkpt lat="45.8278" lon="1.18884">
        <ele>287.7</ele>
        <time>2024-11-28T14:22:34Z</time>
      </trkpt>
      <trkpt lat="45.82771" lon="1.18899">
        <ele>287.8</ele>
        <time>2024-11-28T14:22:37Z</time>
      </trkpt>
      <trkpt lat="45.82761" lon="1.18909">
        <ele>287.9</ele>
        <time>2024-11-28T14:22:40Z</time>
      </trkpt>
      <trkpt lat="45.82744" lon="1.18916">
        <ele>287.9</ele>
        <time>2024-11-28T14:22:43Z</time>
      </trkpt>
      <trkpt lat="45.82729" lon="1.18922">
        <ele>287.1</ele>
        <time>2024-11-28T14:22:46Z</time>
      </trkpt>
      <trkpt lat="45.82713" lon="1.18927">
        <ele>284.6</ele>
        <time>2024-11-28T14:22:49Z</time>
      </trkpt>
      <trkpt lat="45.82699" lon="1.1893">
        <ele>282.5</ele>
        <time>2024-11-28T14:22:52Z</time>
      </trkpt>
      <trkpt lat="45.82687" lon="1.18931">
        <ele>280.6</ele>
        <time>2024-11-28T14:22:55Z</time>
      </trkpt>
      <trkpt lat="45.82684" lon="1.18948">
        <ele>279.8</ele>
        <time>2024-11-28T14:22:58Z</time>
      </trkpt>
      <trkpt lat="45.82686" lon="1.18972">
        <ele>278.7</ele>
        <time>2024-11-28T14:23:01Z</time>
      </trkpt>
      <trkpt lat="45.82689" lon="1.18993">
        <ele>277.9</ele>
        <time>2024-11-28T14:23:04Z</time>
      </trkpt>
      <trkpt lat="45.82691" lon="1.19007">
        <ele>277.4</ele>
        <time>2024-11-28T14:23:07Z</time>
      </trkpt>
      <trkpt lat="45.82691" lon="1.19024">
        <ele>276.7</ele>
        <time>2024-11-28T14:23:10Z</time>
      </trkpt>
      <trkpt lat="45.82692" lon="1.19044">
        <ele>275.7</ele>
        <time>2024-11-28T14:23:13Z</time>
      </trkpt>
      <trkpt lat="45.82688" lon="1.19068">
        <ele>274.5</ele>
        <time>2024-11-28T14:23:16Z</time>
      </trkpt>
      <trkpt lat="45.8268" lon="1.19088">
        <ele>273.2</ele>
        <time>2024-11-28T14:23:19Z</time>
      </trkpt>
      <trkpt lat="45.82668" lon="1.19107">
        <ele>272.2</ele>
        <time>2024-11-28T14:23:22Z</time>
      </trkpt>
      <trkpt lat="45.82659" lon="1.19127">
        <ele>271.7</ele>
        <time>2024-11-28T14:23:25Z</time>
      </trkpt>
      <trkpt lat="45.82654" lon="1.19138">
        <ele>271.6</ele>
        <time>2024-11-28T14:23:28Z</time>
      </trkpt>
      <trkpt lat="45.82654" lon="1.19148">
        <ele>271.5</ele>
        <time>2024-11-28T14:23:31Z</time>
      </trkpt>
      <trkpt lat="45.82657" lon="1.19166">
        <ele>271.1</ele>
        <time>2024-11-28T14:23:34Z</time>
      </trkpt>
      <trkpt lat="45.82648" lon="1.1918">
        <ele>270.5</ele>
        <time>2024-11-28T14:23:37Z</time>
      </trkpt>
      <trkpt lat="45.82636" lon="1.19186">
        <ele>270.2</ele>
        <time>2024-11-28T14:23:40Z</time>
      </trkpt>
      <trkpt lat="45.82621" lon="1.19188">
        <ele>270</ele>
        <time>2024-11-28T14:23:43Z</time>
      </trkpt>
      <trkpt lat="45.82607" lon="1.19191">
        <ele>269.7</ele>
        <time>2024-11-28T14:23:46Z</time>
      </trkpt>
      <trkpt lat="45.82591" lon="1.19201">
        <ele>269.5</ele>
        <time>2024-11-28T14:23:49Z</time>
      </trkpt>
      <trkpt lat="45.82583" lon="1.19217">
        <ele>269.2</ele>
        <time>2024-11-28T14:23:52Z</time>
      </trkpt>
      <trkpt lat="45.8258" lon="1.19234">
        <ele>268.7</ele>
        <time>2024-11-28T14:23:55Z</time>
      </trkpt>
      <trkpt lat="45.82579" lon="1.19257">
        <ele>268</ele>
        <time>2024-11-28T14:23:58Z</time>
      </trkpt>
      <trkpt lat="45.8258" lon="1.19271">
        <ele>267.3</ele>
        <time>2024-11-28T14:24:01Z</time>
      </trkpt>
      <trkpt lat="45.82577" lon="1.19285">
        <ele>266.4</ele>
        <time>2024-11-28T14:24:04Z</time>
      </trkpt>
      <trkpt lat="45.82576" lon="1.19293">
        <ele>265.9</ele>
        <time>2024-11-28T14:24:07Z</time>
      </trkpt>
      <trkpt lat="45.82575" lon="1.19309">
        <ele>265</ele>
        <time>2024-11-28T14:24:10Z</time>
      </trkpt>
      <trkpt lat="45.8257" lon="1.19333">
        <ele>264.1</ele>
        <time>2024-11-28T14:24:13Z</time>
      </trkpt>
      <trkpt lat="45.82568" lon="1.1936">
        <ele>263.4</ele>
        <time>2024-11-28T14:24:16Z</time>
      </trkpt>
      <trkpt lat="45.82567" lon="1.19386">
        <ele>262.8</ele>
        <time>2024-11-28T14:24:19Z</time>
      </trkpt>
      <trkpt lat="45.82569" lon="1.19408">
        <ele>262.2</ele>
        <time>2024-11-28T14:24:22Z</time>
      </trkpt>
      <trkpt lat="45.82569" lon="1.19429">
        <ele>261.6</ele>
        <time>2024-11-28T14:24:25Z</time>
      </trkpt>
      <trkpt lat="45.82571" lon="1.1945">
        <ele>260.9</ele>
        <time>2024-11-28T14:24:28Z</time>
      </trkpt>
      <trkpt lat="45.82577" lon="1.19468">
        <ele>260.5</ele>
        <time>2024-11-28T14:24:31Z</time>
      </trkpt>
      <trkpt lat="45.82574" lon="1.19495">
        <ele>260</ele>
        <time>2024-11-28T14:24:34Z</time>
      </trkpt>
      <trkpt lat="45.82568" lon="1.19519">
        <ele>259.3</ele>
        <time>2024-11-28T14:24:37Z</time>
      </trkpt>
      <trkpt lat="45.82565" lon="1.19542">
        <ele>258.8</ele>
        <time>2024-11-28T14:24:40Z</time>
      </trkpt>
      <trkpt lat="45.82563" lon="1.19568">
        <ele>258.4</ele>
        <time>2024-11-28T14:24:43Z</time>
      </trkpt>
      <trkpt lat="45.82561" lon="1.19591">
        <ele>258</ele>
        <time>2024-11-28T14:24:46Z</time>
      </trkpt>
      <trkpt lat="45.82558" lon="1.19615">
        <ele>258.1</ele>
        <time>2024-11-28T14:24:49Z</time>
      </trkpt>
      <trkpt lat="45.82559" lon="1.19638">
        <ele>259.3</ele>
        <time>2024-11-28T14:24:52Z</time>
      </trkpt>
      <trkpt lat="45.82561" lon="1.1965">
        <ele>260.3</ele>
        <time>2024-11-28T14:24:55Z</time>
      </trkpt>
      <trkpt lat="45.82561" lon="1.19661">
        <ele>260.9</ele>
        <time>2024-11-28T14:24:58Z</time>
      </trkpt>
      <trkpt lat="45.82564" lon="1.19673">
        <ele>261.4</ele>
        <time>2024-11-28T14:25:01Z</time>
      </trkpt>
      <trkpt lat="45.82569" lon="1.19688">
        <ele>261.5</ele>
        <time>2024-11-28T14:25:04Z</time>
      </trkpt>
      <trkpt lat="45.8257" lon="1.19702">
        <ele>261</ele>
        <time>2024-11-28T14:25:07Z</time>
      </trkpt>
      <trkpt lat="45.82561" lon="1.19711">
        <ele>259.9</ele>
        <time>2024-11-28T14:25:10Z</time>
      </trkpt>
      <trkpt lat="45.82552" lon="1.19725">
        <ele>258.4</ele>
        <time>2024-11-28T14:25:13Z</time>
      </trkpt>
      <trkpt lat="45.82546" lon="1.19739">
        <ele>257.4</ele>
        <time>2024-11-28T14:25:16Z</time>
      </trkpt>
      <trkpt lat="45.8254" lon="1.19748">
        <ele>256.5</ele>
        <time>2024-11-28T14:25:19Z</time>
      </trkpt>
      <trkpt lat="45.82541" lon="1.19762">
        <ele>254.9</ele>
        <time>2024-11-28T14:25:22Z</time>
      </trkpt>
      <trkpt lat="45.82542" lon="1.19792">
        <ele>253.1</ele>
        <time>2024-11-28T14:25:25Z</time>
      </trkpt>
      <trkpt lat="45.82536" lon="1.19813">
        <ele>252.5</ele>
        <time>2024-11-28T14:25:28Z</time>
      </trkpt>
      <trkpt lat="45.82525" lon="1.19831">
        <ele>251.9</ele>
        <time>2024-11-28T14:25:31Z</time>
      </trkpt>
      <trkpt lat="45.82514" lon="1.19847">
        <ele>251.6</ele>
        <time>2024-11-28T14:25:34Z</time>
      </trkpt>
      <trkpt lat="45.82506" lon="1.19863">
        <ele>251.3</ele>
        <time>2024-11-28T14:25:37Z</time>
      </trkpt>
      <trkpt lat="45.82499" lon="1.19879">
        <ele>251</ele>
        <time>2024-11-28T14:25:40Z</time>
      </trkpt>
      <trkpt lat="45.82492" lon="1.19886">
        <ele>250.9</ele>
        <time>2024-11-28T14:25:43Z</time>
      </trkpt>
      <trkpt lat="45.8248" lon="1.19902">
        <ele>250.4</ele>
        <time>2024-11-28T14:25:46Z</time>
      </trkpt>
      <trkpt lat="45.82468" lon="1.1991">
        <ele>250</ele>
        <time>2024-11-28T14:25:49Z</time>
      </trkpt>
      <trkpt lat="45.8246" lon="1.1992">
        <ele>249.8</ele>
        <time>2024-11-28T14:25:52Z</time>
      </trkpt>
      <trkpt lat="45.82453" lon="1.19928">
        <ele>249.6</ele>
        <time>2024-11-28T14:25:55Z</time>
      </trkpt>
      <trkpt lat="45.82444" lon="1.19934">
        <ele>249.4</ele>
        <time>2024-11-28T14:25:58Z</time>
      </trkpt>
      <trkpt lat="45.82433" lon="1.19942">
        <ele>249.2</ele>
        <time>2024-11-28T14:26:01Z</time>
      </trkpt>
      <trkpt lat="45.8242" lon="1.19952">
        <ele>248.9</ele>
        <time>2024-11-28T14:26:04Z</time>
      </trkpt>
      <trkpt lat="45.82409" lon="1.19964">
        <ele>248.5</ele>
        <time>2024-11-28T14:26:07Z</time>
      </trkpt>
      <trkpt lat="45.82403" lon="1.19979">
        <ele>248.1</ele>
        <time>2024-11-28T14:26:10Z</time>
      </trkpt>
      <trkpt lat="45.82405" lon="1.19999">
        <ele>247.8</ele>
        <time>2024-11-28T14:26:13Z</time>
      </trkpt>
      <trkpt lat="45.82405" lon="1.20017">
        <ele>247.5</ele>
        <time>2024-11-28T14:26:16Z</time>
      </trkpt>
      <trkpt lat="45.82405" lon="1.20028">
        <ele>247.3</ele>
        <time>2024-11-28T14:26:19Z</time>
      </trkpt>
      <trkpt lat="45.82406" lon="1.20036">
        <ele>247.2</ele>
        <time>2024-11-28T14:26:22Z</time>
      </trkpt>
      <trkpt lat="45.8241" lon="1.20053">
        <ele>247.1</ele>
        <time>2024-11-28T14:26:25Z</time>
      </trkpt>
      <trkpt lat="45.82409" lon="1.20065">
        <ele>247</ele>
        <time>2024-11-28T14:26:28Z</time>
      </trkpt>
      <trkpt lat="45.82405" lon="1.20077">
        <ele>247.1</ele>
        <time>2024-11-28T14:26:31Z</time>
      </trkpt>
      <trkpt lat="45.82401" lon="1.2009">
        <ele>247.2</ele>
        <time>2024-11-28T14:26:34Z</time>
      </trkpt>
      <trkpt lat="45.82396" lon="1.20102">
        <ele>247.2</ele>
        <time>2024-11-28T14:26:37Z</time>
      </trkpt>
      <trkpt lat="45.82391" lon="1.20115">
        <ele>247.2</ele>
        <time>2024-11-28T14:26:40Z</time>
      </trkpt>
      <trkpt lat="45.82382" lon="1.20129">
        <ele>246.9</ele>
        <time>2024-11-28T14:26:43Z</time>
      </trkpt>
      <trkpt lat="45.82371" lon="1.20144">
        <ele>246.8</ele>
        <time>2024-11-28T14:26:46Z</time>
      </trkpt>
      <trkpt lat="45.82362" lon="1.20157">
        <ele>246.7</ele>
        <time>2024-11-28T14:26:49Z</time>
      </trkpt>
      <trkpt lat="45.82353" lon="1.2017">
        <ele>246.5</ele>
        <time>2024-11-28T14:26:52Z</time>
      </trkpt>
      <trkpt lat="45.82342" lon="1.20185">
        <ele>246</ele>
        <time>2024-11-28T14:26:55Z</time>
      </trkpt>
      <trkpt lat="45.82329" lon="1.20201">
        <ele>245.2</ele>
        <time>2024-11-28T14:26:58Z</time>
      </trkpt>
      <trkpt lat="45.82316" lon="1.20213">
        <ele>244.8</ele>
        <time>2024-11-28T14:27:01Z</time>
      </trkpt>
      <trkpt lat="45.82303" lon="1.20222">
        <ele>244.7</ele>
        <time>2024-11-28T14:27:04Z</time>
      </trkpt>
      <trkpt lat="45.82292" lon="1.20236">
        <ele>244.6</ele>
        <time>2024-11-28T14:27:07Z</time>
      </trkpt>
      <trkpt lat="45.82283" lon="1.20251">
        <ele>244.6</ele>
        <time>2024-11-28T14:27:10Z</time>
      </trkpt>
      <trkpt lat="45.82277" lon="1.20268">
        <ele>244.5</ele>
        <time>2024-11-28T14:27:13Z</time>
      </trkpt>
      <trkpt lat="45.82268" lon="1.20285">
        <ele>244.5</ele>
        <time>2024-11-28T14:27:16Z</time>
      </trkpt>
      <trkpt lat="45.82259" lon="1.20301">
        <ele>244.4</ele>
        <time>2024-11-28T14:27:19Z</time>
      </trkpt>
      <trkpt lat="45.82249" lon="1.20318">
        <ele>244.1</ele>
        <time>2024-11-28T14:27:22Z</time>
      </trkpt>
      <trkpt lat="45.82241" lon="1.20335">
        <ele>243.4</ele>
        <time>2024-11-28T14:27:25Z</time>
      </trkpt>
      <trkpt lat="45.8223" lon="1.20344">
        <ele>242.5</ele>
        <time>2024-11-28T14:27:28Z</time>
      </trkpt>
      <trkpt lat="45.82219" lon="1.20347">
        <ele>241.7</ele>
        <time>2024-11-28T14:27:31Z</time>
      </trkpt>
      <trkpt lat="45.82209" lon="1.20349">
        <ele>241.1</ele>
        <time>2024-11-28T14:27:34Z</time>
      </trkpt>
      <trkpt lat="45.82202" lon="1.20356">
        <ele>240.7</ele>
        <time>2024-11-28T14:27:37Z</time>
      </trkpt>
      <trkpt lat="45.82194" lon="1.20367">
        <ele>240.4</ele>
        <time>2024-11-28T14:27:40Z</time>
      </trkpt>
      <trkpt lat="45.82186" lon="1.20375">
        <ele>240.2</ele>
        <time>2024-11-28T14:27:43Z</time>
      </trkpt>
      <trkpt lat="45.82179" lon="1.20383">
        <ele>240.1</ele>
        <time>2024-11-28T14:27:46Z</time>
      </trkpt>
      <trkpt lat="45.82177" lon="1.20387">
        <ele>240</ele>
        <time>2024-11-28T14:27:49Z</time>
      </trkpt>
      <trkpt lat="45.82177" lon="1.20388">
        <ele>240</ele>
        <time>2024-11-28T14:27:52Z</time>
      </trkpt>
      <trkpt lat="45.82177" lon="1.20395">
        <ele>239.9</ele>
        <time>2024-11-28T14:27:55Z</time>
      </trkpt>
      <trkpt lat="45.82181" lon="1.20405">
        <ele>239.8</ele>
        <time>2024-11-28T14:27:58Z</time>
      </trkpt>
      <trkpt lat="45.82178" lon="1.20417">
        <ele>239.7</ele>
        <time>2024-11-28T14:28:01Z</time>
      </trkpt>
      <trkpt lat="45.82172" lon="1.20431">
        <ele>239.5</ele>
        <time>2024-11-28T14:28:04Z</time>
      </trkpt>
      <trkpt lat="45.8217" lon="1.20442">
        <ele>239.4</ele>
        <time>2024-11-28T14:28:07Z</time>
      </trkpt>
      <trkpt lat="45.82168" lon="1.20456">
        <ele>239.2</ele>
        <time>2024-11-28T14:28:10Z</time>
      </trkpt>
      <trkpt lat="45.82163" lon="1.20472">
        <ele>239</ele>
        <time>2024-11-28T14:28:13Z</time>
      </trkpt>
      <trkpt lat="45.82161" lon="1.20482">
        <ele>238.9</ele>
        <time>2024-11-28T14:28:16Z</time>
      </trkpt>
      <trkpt lat="45.82155" lon="1.205">
        <ele>238.7</ele>
        <time>2024-11-28T14:28:19Z</time>
      </trkpt>
      <trkpt lat="45.82148" lon="1.20513">
        <ele>238.6</ele>
        <time>2024-11-28T14:28:22Z</time>
      </trkpt>
      <trkpt lat="45.82141" lon="1.20526">
        <ele>238.5</ele>
        <time>2024-11-28T14:28:25Z</time>
      </trkpt>
      <trkpt lat="45.82137" lon="1.20538">
        <ele>238.5</ele>
        <time>2024-11-28T14:28:28Z</time>
      </trkpt>
      <trkpt lat="45.82133" lon="1.20551">
        <ele>238.5</ele>
        <time>2024-11-28T14:28:31Z</time>
      </trkpt>
      <trkpt lat="45.82134" lon="1.20564">
        <ele>238.6</ele>
        <time>2024-11-28T14:28:34Z</time>
      </trkpt>
      <trkpt lat="45.82135" lon="1.20577">
        <ele>238.7</ele>
        <time>2024-11-28T14:28:37Z</time>
      </trkpt>
      <trkpt lat="45.82136" lon="1.20592">
        <ele>238.6</ele>
        <time>2024-11-28T14:28:40Z</time>
      </trkpt>
      <trkpt lat="45.82138" lon="1.20607">
        <ele>238.5</ele>
        <time>2024-11-28T14:28:43Z</time>
      </trkpt>
      <trkpt lat="45.82139" lon="1.20625">
        <ele>238.2</ele>
        <time>2024-11-28T14:28:46Z</time>
      </trkpt>
      <trkpt lat="45.82139" lon="1.20636">
        <ele>238.2</ele>
        <time>2024-11-28T14:28:49Z</time>
      </trkpt>
      <trkpt lat="45.8214" lon="1.20655">
        <ele>238.1</ele>
        <time>2024-11-28T14:28:52Z</time>
      </trkpt>
      <trkpt lat="45.82141" lon="1.20666">
        <ele>238.1</ele>
        <time>2024-11-28T14:28:55Z</time>
      </trkpt>
      <trkpt lat="45.82142" lon="1.20674">
        <ele>238.2</ele>
        <time>2024-11-28T14:28:58Z</time>
      </trkpt>
      <trkpt lat="45.82143" lon="1.20688">
        <ele>238.1</ele>
        <time>2024-11-28T14:29:01Z</time>
      </trkpt>
      <trkpt lat="45.82145" lon="1.20703">
        <ele>238.1</ele>
        <time>2024-11-28T14:29:04Z</time>
      </trkpt>
      <trkpt lat="45.82147" lon="1.20717">
        <ele>238.1</ele>
        <time>2024-11-28T14:29:07Z</time>
      </trkpt>
      <trkpt lat="45.82151" lon="1.2073">
        <ele>238.1</ele>
        <time>2024-11-28T14:29:10Z</time>
      </trkpt>
      <trkpt lat="45.82157" lon="1.20741">
        <ele>238</ele>
        <time>2024-11-28T14:29:13Z</time>
      </trkpt>
      <trkpt lat="45.82166" lon="1.2075">
        <ele>238</ele>
        <time>2024-11-28T14:29:16Z</time>
      </trkpt>
      <trkpt lat="45.82176" lon="1.2076">
        <ele>238</ele>
        <time>2024-11-28T14:29:19Z</time>
      </trkpt>
      <trkpt lat="45.82184" lon="1.20771">
        <ele>238.1</ele>
        <time>2024-11-28T14:29:22Z</time>
      </trkpt>
      <trkpt lat="45.82194" lon="1.2078">
        <ele>238.2</ele>
        <time>2024-11-28T14:29:25Z</time>
      </trkpt>
      <trkpt lat="45.82201" lon="1.20789">
        <ele>238.5</ele>
        <time>2024-11-28T14:29:28Z</time>
      </trkpt>
      <trkpt lat="45.82206" lon="1.20798">
        <ele>238.8</ele>
        <time>2024-11-28T14:29:31Z</time>
      </trkpt>
      <trkpt lat="45.82209" lon="1.20811">
        <ele>239.3</ele>
        <time>2024-11-28T14:29:34Z</time>
      </trkpt>
      <trkpt lat="45.82214" lon="1.20814">
        <ele>239.6</ele>
        <time>2024-11-28T14:29:37Z</time>
      </trkpt>
      <trkpt lat="45.82221" lon="1.2081">
        <ele>239.9</ele>
        <time>2024-11-28T14:29:40Z</time>
      </trkpt>
      <trkpt lat="45.8223" lon="1.20804">
        <ele>240</ele>
        <time>2024-11-28T14:29:43Z</time>
      </trkpt>
      <trkpt lat="45.82235" lon="1.20804">
        <ele>240</ele>
        <time>2024-11-28T14:29:46Z</time>
      </trkpt>
      <trkpt lat="45.82234" lon="1.20804">
        <ele>240</ele>
        <time>2024-11-28T14:29:49Z</time>
      </trkpt>
      <trkpt lat="45.82234" lon="1.20804">
        <ele>240.1</ele>
        <time>2024-11-28T14:29:52Z</time>
      </trkpt>
      <trkpt lat="45.82234" lon="1.20803">
        <ele>240.1</ele>
        <time>2024-11-28T14:29:55Z</time>
      </trkpt>
      <trkpt lat="45.82235" lon="1.20804">
        <ele>240.1</ele>
        <time>2024-11-28T14:29:58Z</time>
      </trkpt>
      <trkpt lat="45.82237" lon="1.20812">
        <ele>240</ele>
        <time>2024-11-28T14:30:01Z</time>
      </trkpt>
      <trkpt lat="45.82245" lon="1.20815">
        <ele>239.5</ele>
        <time>2024-11-28T14:30:04Z</time>
      </trkpt>
      <trkpt lat="45.82253" lon="1.20809">
        <ele>239.1</ele>
        <time>2024-11-28T14:30:07Z</time>
      </trkpt>
      <trkpt lat="45.82262" lon="1.20808">
        <ele>239.6</ele>
        <time>2024-11-28T14:30:10Z</time>
      </trkpt>
      <trkpt lat="45.82266" lon="1.2082">
        <ele>239.6</ele>
        <time>2024-11-28T14:30:13Z</time>
      </trkpt>
      <trkpt lat="45.82265" lon="1.20833">
        <ele>239.6</ele>
        <time>2024-11-28T14:30:16Z</time>
      </trkpt>
      <trkpt lat="45.82271" lon="1.20844">
        <ele>239.7</ele>
        <time>2024-11-28T14:30:19Z</time>
      </trkpt>
      <trkpt lat="45.82275" lon="1.20854">
        <ele>239.8</ele>
        <time>2024-11-28T14:30:22Z</time>
      </trkpt>
      <trkpt lat="45.82278" lon="1.20865">
        <ele>239.9</ele>
        <time>2024-11-28T14:30:25Z</time>
      </trkpt>
      <trkpt lat="45.8228" lon="1.20876">
        <ele>240</ele>
        <time>2024-11-28T14:30:28Z</time>
      </trkpt>
      <trkpt lat="45.82283" lon="1.20885">
        <ele>240</ele>
        <time>2024-11-28T14:30:31Z</time>
      </trkpt>
      <trkpt lat="45.82284" lon="1.2089">
        <ele>240</ele>
        <time>2024-11-28T14:30:34Z</time>
      </trkpt>
      <trkpt lat="45.82286" lon="1.20898">
        <ele>239.9</ele>
        <time>2024-11-28T14:30:37Z</time>
      </trkpt>
      <trkpt lat="45.82287" lon="1.20905">
        <ele>239.7</ele>
        <time>2024-11-28T14:30:40Z</time>
      </trkpt>
      <trkpt lat="45.82289" lon="1.20912">
        <ele>239.6</ele>
        <time>2024-11-28T14:30:43Z</time>
      </trkpt>
      <trkpt lat="45.82291" lon="1.20905">
        <ele>239.7</ele>
        <time>2024-11-28T14:30:46Z</time>
      </trkpt>
      <trkpt lat="45.82288" lon="1.20898">
        <ele>239.8</ele>
        <time>2024-11-28T14:30:49Z</time>
      </trkpt>
      <trkpt lat="45.82285" lon="1.2089">
        <ele>240</ele>
        <time>2024-11-28T14:30:52Z</time>
      </trkpt>
      <trkpt lat="45.82282" lon="1.2088">
        <ele>240</ele>
        <time>2024-11-28T14:30:55Z</time>
      </trkpt>
      <trkpt lat="45.82278" lon="1.20865">
        <ele>239.9</ele>
        <time>2024-11-28T14:30:58Z</time>
      </trkpt>
      <trkpt lat="45.82273" lon="1.20853">
        <ele>239.8</ele>
        <time>2024-11-28T14:31:01Z</time>
      </trkpt>
      <trkpt lat="45.82268" lon="1.20844">
        <ele>239.7</ele>
        <time>2024-11-28T14:31:04Z</time>
      </trkpt>
      <trkpt lat="45.82263" lon="1.20836">
        <ele>239.6</ele>
        <time>2024-11-28T14:31:07Z</time>
      </trkpt>
      <trkpt lat="45.82262" lon="1.20825">
        <ele>239.5</ele>
        <time>2024-11-28T14:31:10Z</time>
      </trkpt>
      <trkpt lat="45.82267" lon="1.20818">
        <ele>239.5</ele>
        <time>2024-11-28T14:31:13Z</time>
      </trkpt>
      <trkpt lat="45.82271" lon="1.20812">
        <ele>239.4</ele>
        <time>2024-11-28T14:31:16Z</time>
      </trkpt>
      <trkpt lat="45.82277" lon="1.20802">
        <ele>239.4</ele>
        <time>2024-11-28T14:31:19Z</time>
      </trkpt>
      <trkpt lat="45.82283" lon="1.20792">
        <ele>239.6</ele>
        <time>2024-11-28T14:31:22Z</time>
      </trkpt>
      <trkpt lat="45.8229" lon="1.20779">
        <ele>239.8</ele>
        <time>2024-11-28T14:31:25Z</time>
      </trkpt>
      <trkpt lat="45.82297" lon="1.20767">
        <ele>240.1</ele>
        <time>2024-11-28T14:31:28Z</time>
      </trkpt>
      <trkpt lat="45.82305" lon="1.20755">
        <ele>240.4</ele>
        <time>2024-11-28T14:31:31Z</time>
      </trkpt>
      <trkpt lat="45.82313" lon="1.20745">
        <ele>240.8</ele>
        <time>2024-11-28T14:31:34Z</time>
      </trkpt>
      <trkpt lat="45.82322" lon="1.20733">
        <ele>241.3</ele>
        <time>2024-11-28T14:31:37Z</time>
      </trkpt>
      <trkpt lat="45.82329" lon="1.20722">
        <ele>241.8</ele>
        <time>2024-11-28T14:31:40Z</time>
      </trkpt>
      <trkpt lat="45.82336" lon="1.20711">
        <ele>242.3</ele>
        <time>2024-11-28T14:31:43Z</time>
      </trkpt>
      <trkpt lat="45.82343" lon="1.20701">
        <ele>242.7</ele>
        <time>2024-11-28T14:31:46Z</time>
      </trkpt>
      <trkpt lat="45.8235" lon="1.20693">
        <ele>243.1</ele>
        <time>2024-11-28T14:31:49Z</time>
      </trkpt>
      <trkpt lat="45.82355" lon="1.20692">
        <ele>243.5</ele>
        <time>2024-11-28T14:31:52Z</time>
      </trkpt>
      <trkpt lat="45.82363" lon="1.20694">
        <ele>243.8</ele>
        <time>2024-11-28T14:31:55Z</time>
      </trkpt>
      <trkpt lat="45.82373" lon="1.20698">
        <ele>244.2</ele>
        <time>2024-11-28T14:31:58Z</time>
      </trkpt>
      <trkpt lat="45.82384" lon="1.20701">
        <ele>244.7</ele>
        <time>2024-11-28T14:32:01Z</time>
      </trkpt>
      <trkpt lat="45.82395" lon="1.20706">
        <ele>245.1</ele>
        <time>2024-11-28T14:32:04Z</time>
      </trkpt>
      <trkpt lat="45.82407" lon="1.2071">
        <ele>245.4</ele>
        <time>2024-11-28T14:32:07Z</time>
      </trkpt>
      <trkpt lat="45.82419" lon="1.20714">
        <ele>245.7</ele>
        <time>2024-11-28T14:32:10Z</time>
      </trkpt>
      <trkpt lat="45.82431" lon="1.20718">
        <ele>245.9</ele>
        <time>2024-11-28T14:32:13Z</time>
      </trkpt>
      <trkpt lat="45.8244" lon="1.20722">
        <ele>246.2</ele>
        <time>2024-11-28T14:32:16Z</time>
      </trkpt>
      <trkpt lat="45.82447" lon="1.20725">
        <ele>246.3</ele>
        <time>2024-11-28T14:32:19Z</time>
      </trkpt>
      <trkpt lat="45.82451" lon="1.20726">
        <ele>246.4</ele>
        <time>2024-11-28T14:32:22Z</time>
      </trkpt>
      <trkpt lat="45.82454" lon="1.20727">
        <ele>246.5</ele>
        <time>2024-11-28T14:32:25Z</time>
      </trkpt>
      <trkpt lat="45.82454" lon="1.20726">
        <ele>246.9</ele>
        <time>2024-11-28T14:32:28Z</time>
      </trkpt>
      <trkpt lat="45.82454" lon="1.20726">
        <ele>247.3</ele>
        <time>2024-11-28T14:32:31Z</time>
      </trkpt>
      <trkpt lat="45.82454" lon="1.20727">
        <ele>247.7</ele>
        <time>2024-11-28T14:32:34Z</time>
      </trkpt>
      <trkpt lat="45.82454" lon="1.20728">
        <ele>248.1</ele>
        <time>2024-11-28T14:32:37Z</time>
      </trkpt>
      <trkpt lat="45.82453" lon="1.20729">
        <ele>248.5</ele>
        <time>2024-11-28T14:32:40Z</time>
      </trkpt>
      <trkpt lat="45.82453" lon="1.2073">
        <ele>248.8</ele>
        <time>2024-11-28T14:32:43Z</time>
      </trkpt>
      <trkpt lat="45.82453" lon="1.2073">
        <ele>249.2</ele>
        <time>2024-11-28T14:32:46Z</time>
      </trkpt>
      <trkpt lat="45.82454" lon="1.2073">
        <ele>249.2</ele>
        <time>2024-11-28T14:32:49Z</time>
      </trkpt>
      <trkpt lat="45.82454" lon="1.20731">
        <ele>249.2</ele>
        <time>2024-11-28T14:32:52Z</time>
      </trkpt>
      <trkpt lat="45.82454" lon="1.20731">
        <ele>249.3</ele>
        <time>2024-11-28T14:32:55Z</time>
      </trkpt>
      <trkpt lat="45.82459" lon="1.20734">
        <ele>249.4</ele>
        <time>2024-11-28T14:32:58Z</time>
      </trkpt>
      <trkpt lat="45.82467" lon="1.20741">
        <ele>249.6</ele>
        <time>2024-11-28T14:33:01Z</time>
      </trkpt>
      <trkpt lat="45.82475" lon="1.20748">
        <ele>249.8</ele>
        <time>2024-11-28T14:33:04Z</time>
      </trkpt>
      <trkpt lat="45.8248" lon="1.20746">
        <ele>249.9</ele>
        <time>2024-11-28T14:33:07Z</time>
      </trkpt>
      <trkpt lat="45.82479" lon="1.20746">
        <ele>249.9</ele>
        <time>2024-11-28T14:33:10Z</time>
      </trkpt>
      <trkpt lat="45.82478" lon="1.20746">
        <ele>249.9</ele>
        <time>2024-11-28T14:33:13Z</time>
      </trkpt>
      <trkpt lat="45.82478" lon="1.20746">
        <ele>249.9</ele>
        <time>2024-11-28T14:33:16Z</time>
      </trkpt>
      <trkpt lat="45.82478" lon="1.20746">
        <ele>249.9</ele>
        <time>2024-11-28T14:33:19Z</time>
      </trkpt>
      <trkpt lat="45.82478" lon="1.20746">
        <ele>249.9</ele>
        <time>2024-11-28T14:33:22Z</time>
      </trkpt>
      <trkpt lat="45.82478" lon="1.20746">
        <ele>249.9</ele>
        <time>2024-11-28T14:33:25Z</time>
      </trkpt>
      <trkpt lat="45.82478" lon="1.20745">
        <ele>249.9</ele>
        <time>2024-11-28T14:33:28Z</time>
      </trkpt>
      <trkpt lat="45.82478" lon="1.20745">
        <ele>249.9</ele>
        <time>2024-11-28T14:33:31Z</time>
      </trkpt>
      <trkpt lat="45.82478" lon="1.20745">
        <ele>249.9</ele>
        <time>2024-11-28T14:33:34Z</time>
      </trkpt>
      <trkpt lat="45.82478" lon="1.20746">
        <ele>249.9</ele>
        <time>2024-11-28T14:33:37Z</time>
      </trkpt>
      <trkpt lat="45.82478" lon="1.20746">
        <ele>250</ele>
        <time>2024-11-28T14:33:40Z</time>
      </trkpt>
      <trkpt lat="45.82478" lon="1.20746">
        <ele>250</ele>
        <time>2024-11-28T14:33:43Z</time>
      </trkpt>
      <trkpt lat="45.82477" lon="1.20747">
        <ele>250</ele>
        <time>2024-11-28T14:33:46Z</time>
      </trkpt>
      <trkpt lat="45.82477" lon="1.20747">
        <ele>250</ele>
        <time>2024-11-28T14:33:49Z</time>
      </trkpt>
      <trkpt lat="45.82477" lon="1.20747">
        <ele>250</ele>
        <time>2024-11-28T14:33:52Z</time>
      </trkpt>
      <trkpt lat="45.82477" lon="1.20747">
        <ele>250</ele>
        <time>2024-11-28T14:33:55Z</time>
      </trkpt>
      <trkpt lat="45.82476" lon="1.20748">
        <ele>250</ele>
        <time>2024-11-28T14:33:58Z</time>
      </trkpt>
      <trkpt lat="45.82475" lon="1.2075">
        <ele>250</ele>
        <time>2024-11-28T14:34:01Z</time>
      </trkpt>
      <trkpt lat="45.82475" lon="1.20751">
        <ele>250.1</ele>
        <time>2024-11-28T14:34:04Z</time>
      </trkpt>
      <trkpt lat="45.82475" lon="1.20752">
        <ele>250.1</ele>
        <time>2024-11-28T14:34:07Z</time>
      </trkpt>
      <trkpt lat="45.82474" lon="1.20753">
        <ele>250.1</ele>
        <time>2024-11-28T14:34:10Z</time>
      </trkpt>
      <trkpt lat="45.82475" lon="1.20752">
        <ele>250.1</ele>
        <time>2024-11-28T14:34:13Z</time>
      </trkpt>
      <trkpt lat="45.82475" lon="1.20752">
        <ele>250.1</ele>
        <time>2024-11-28T14:34:16Z</time>
      </trkpt>
      <trkpt lat="45.82475" lon="1.20751">
        <ele>250.1</ele>
        <time>2024-11-28T14:34:19Z</time>
      </trkpt>
      <trkpt lat="45.82475" lon="1.2075">
        <ele>250.1</ele>
        <time>2024-11-28T14:34:22Z</time>
      </trkpt>
      <trkpt lat="45.82475" lon="1.20749">
        <ele>250.1</ele>
        <time>2024-11-28T14:34:25Z</time>
      </trkpt>
      <trkpt lat="45.82474" lon="1.20749">
        <ele>250.2</ele>
        <time>2024-11-28T14:34:28Z</time>
      </trkpt>
      <trkpt lat="45.82475" lon="1.20748">
        <ele>250.2</ele>
        <time>2024-11-28T14:34:31Z</time>
      </trkpt>
      <trkpt lat="45.82475" lon="1.20748">
        <ele>250.2</ele>
        <time>2024-11-28T14:34:34Z</time>
      </trkpt>
      <trkpt lat="45.82475" lon="1.20748">
        <ele>250.2</ele>
        <time>2024-11-28T14:34:37Z</time>
      </trkpt>
      <trkpt lat="45.82475" lon="1.20748">
        <ele>250.2</ele>
        <time>2024-11-28T14:34:40Z</time>
      </trkpt>
      <trkpt lat="45.82475" lon="1.20748">
        <ele>250.2</ele>
        <time>2024-11-28T14:34:43Z</time>
      </trkpt>
      <trkpt lat="45.82475" lon="1.20748">
        <ele>250.2</ele>
        <time>2024-11-28T14:34:46Z</time>
      </trkpt>
      <trkpt lat="45.82475" lon="1.20748">
        <ele>250.2</ele>
        <time>2024-11-28T14:34:49Z</time>
      </trkpt>
      <trkpt lat="45.82475" lon="1.20748">
        <ele>250.2</ele>
        <time>2024-11-28T14:34:52Z</time>
      </trkpt>
      <trkpt lat="45.82475" lon="1.20748">
        <ele>250.2</ele>
        <time>2024-11-28T14:34:55Z</time>
      </trkpt>
      <trkpt lat="45.82475" lon="1.20748">
        <ele>250.2</ele>
        <time>2024-11-28T14:34:58Z</time>
      </trkpt>
      <trkpt lat="45.82477" lon="1.20746">
        <ele>250.2</ele>
        <time>2024-11-28T14:35:01Z</time>
      </trkpt>
      <trkpt lat="45.82483" lon="1.20741">
        <ele>250.4</ele>
        <time>2024-11-28T14:35:04Z</time>
      </trkpt>
      <trkpt lat="45.82491" lon="1.20732">
        <ele>250.6</ele>
        <time>2024-11-28T14:35:07Z</time>
      </trkpt>
      <trkpt lat="45.825" lon="1.20723">
        <ele>250.8</ele>
        <time>2024-11-28T14:35:10Z</time>
      </trkpt>
      <trkpt lat="45.8251" lon="1.20716">
        <ele>251.4</ele>
        <time>2024-11-28T14:35:13Z</time>
      </trkpt>
      <trkpt lat="45.8252" lon="1.20711">
        <ele>252.1</ele>
        <time>2024-11-28T14:35:16Z</time>
      </trkpt>
      <trkpt lat="45.8253" lon="1.207">
        <ele>252.7</ele>
        <time>2024-11-28T14:35:19Z</time>
      </trkpt>
      <trkpt lat="45.82538" lon="1.20689">
        <ele>253.2</ele>
        <time>2024-11-28T14:35:22Z</time>
      </trkpt>
      <trkpt lat="45.82548" lon="1.20677">
        <ele>253.6</ele>
        <time>2024-11-28T14:35:25Z</time>
      </trkpt>
      <trkpt lat="45.82554" lon="1.20666">
        <ele>253.7</ele>
        <time>2024-11-28T14:35:28Z</time>
      </trkpt>
      <trkpt lat="45.82553" lon="1.2065">
        <ele>253.5</ele>
        <time>2024-11-28T14:35:31Z</time>
      </trkpt>
      <trkpt lat="45.82545" lon="1.20638">
        <ele>253.3</ele>
        <time>2024-11-28T14:35:34Z</time>
      </trkpt>
      <trkpt lat="45.82535" lon="1.20625">
        <ele>253.1</ele>
        <time>2024-11-28T14:35:37Z</time>
      </trkpt>
      <trkpt lat="45.82525" lon="1.20612">
        <ele>252.9</ele>
        <time>2024-11-28T14:35:40Z</time>
      </trkpt>
      <trkpt lat="45.82516" lon="1.20597">
        <ele>252.7</ele>
        <time>2024-11-28T14:35:43Z</time>
      </trkpt>
      <trkpt lat="45.82506" lon="1.20583">
        <ele>252.5</ele>
        <time>2024-11-28T14:35:46Z</time>
      </trkpt>
      <trkpt lat="45.82497" lon="1.20569">
        <ele>252.3</ele>
        <time>2024-11-28T14:35:49Z</time>
      </trkpt>
      <trkpt lat="45.82487" lon="1.20556">
        <ele>252.3</ele>
        <time>2024-11-28T14:35:52Z</time>
      </trkpt>
      <trkpt lat="45.82477" lon="1.20544">
        <ele>252.2</ele>
        <time>2024-11-28T14:35:55Z</time>
      </trkpt>
      <trkpt lat="45.82469" lon="1.20532">
        <ele>252.2</ele>
        <time>2024-11-28T14:35:58Z</time>
      </trkpt>
      <trkpt lat="45.82465" lon="1.20516">
        <ele>251.9</ele>
        <time>2024-11-28T14:36:01Z</time>
      </trkpt>
      <trkpt lat="45.82472" lon="1.20501">
        <ele>252.2</ele>
        <time>2024-11-28T14:36:04Z</time>
      </trkpt>
      <trkpt lat="45.82482" lon="1.20489">
        <ele>252.8</ele>
        <time>2024-11-28T14:36:07Z</time>
      </trkpt>
      <trkpt lat="45.82492" lon="1.20478">
        <ele>253.5</ele>
        <time>2024-11-28T14:36:10Z</time>
      </trkpt>
      <trkpt lat="45.82501" lon="1.20466">
        <ele>254.2</ele>
        <time>2024-11-28T14:36:13Z</time>
      </trkpt>
      <trkpt lat="45.82511" lon="1.20456">
        <ele>254.9</ele>
        <time>2024-11-28T14:36:16Z</time>
      </trkpt>
      <trkpt lat="45.8252" lon="1.20443">
        <ele>255.7</ele>
        <time>2024-11-28T14:36:19Z</time>
      </trkpt>
      <trkpt lat="45.8253" lon="1.20433">
        <ele>256.5</ele>
        <time>2024-11-28T14:36:22Z</time>
      </trkpt>
      <trkpt lat="45.82542" lon="1.20421">
        <ele>257.4</ele>
        <time>2024-11-28T14:36:25Z</time>
      </trkpt>
      <trkpt lat="45.82552" lon="1.20409">
        <ele>258.3</ele>
        <time>2024-11-28T14:36:28Z</time>
      </trkpt>
      <trkpt lat="45.82564" lon="1.20399">
        <ele>259.1</ele>
        <time>2024-11-28T14:36:31Z</time>
      </trkpt>
      <trkpt lat="45.82574" lon="1.20388">
        <ele>259.9</ele>
        <time>2024-11-28T14:36:34Z</time>
      </trkpt>
      <trkpt lat="45.82585" lon="1.20378">
        <ele>260.7</ele>
        <time>2024-11-28T14:36:37Z</time>
      </trkpt>
      <trkpt lat="45.82595" lon="1.20368">
        <ele>261.2</ele>
        <time>2024-11-28T14:36:40Z</time>
      </trkpt>
      <trkpt lat="45.82604" lon="1.20358">
        <ele>261.5</ele>
        <time>2024-11-28T14:36:43Z</time>
      </trkpt>
      <trkpt lat="45.82611" lon="1.20346">
        <ele>261.6</ele>
        <time>2024-11-28T14:36:46Z</time>
      </trkpt>
      <trkpt lat="45.8262" lon="1.20337">
        <ele>262.3</ele>
        <time>2024-11-28T14:36:49Z</time>
      </trkpt>
      <trkpt lat="45.82629" lon="1.20328">
        <ele>263</ele>
        <time>2024-11-28T14:36:52Z</time>
      </trkpt>
      <trkpt lat="45.82637" lon="1.20318">
        <ele>263.8</ele>
        <time>2024-11-28T14:36:55Z</time>
      </trkpt>
      <trkpt lat="45.82645" lon="1.20308">
        <ele>264.5</ele>
        <time>2024-11-28T14:36:58Z</time>
      </trkpt>
      <trkpt lat="45.82653" lon="1.20299">
        <ele>265.2</ele>
        <time>2024-11-28T14:37:01Z</time>
      </trkpt>
      <trkpt lat="45.82663" lon="1.20291">
        <ele>265.9</ele>
        <time>2024-11-28T14:37:04Z</time>
      </trkpt>
      <trkpt lat="45.8267" lon="1.20279">
        <ele>266.1</ele>
        <time>2024-11-28T14:37:07Z</time>
      </trkpt>
      <trkpt lat="45.82675" lon="1.20265">
        <ele>266.6</ele>
        <time>2024-11-28T14:37:10Z</time>
      </trkpt>
      <trkpt lat="45.82679" lon="1.2025">
        <ele>267.2</ele>
        <time>2024-11-28T14:37:13Z</time>
      </trkpt>
      <trkpt lat="45.82684" lon="1.20235">
        <ele>267.7</ele>
        <time>2024-11-28T14:37:16Z</time>
      </trkpt>
      <trkpt lat="45.82689" lon="1.20221">
        <ele>268.2</ele>
        <time>2024-11-28T14:37:19Z</time>
      </trkpt>
      <trkpt lat="45.82693" lon="1.20206">
        <ele>268.7</ele>
        <time>2024-11-28T14:37:22Z</time>
      </trkpt>
      <trkpt lat="45.82698" lon="1.2019">
        <ele>269.3</ele>
        <time>2024-11-28T14:37:25Z</time>
      </trkpt>
      <trkpt lat="45.82702" lon="1.20176">
        <ele>269.7</ele>
        <time>2024-11-28T14:37:28Z</time>
      </trkpt>
      <trkpt lat="45.82707" lon="1.20161">
        <ele>270.2</ele>
        <time>2024-11-28T14:37:31Z</time>
      </trkpt>
      <trkpt lat="45.82712" lon="1.20148">
        <ele>270.7</ele>
        <time>2024-11-28T14:37:34Z</time>
      </trkpt>
      <trkpt lat="45.82716" lon="1.20133">
        <ele>271.2</ele>
        <time>2024-11-28T14:37:37Z</time>
      </trkpt>
      <trkpt lat="45.8272" lon="1.20119">
        <ele>271.7</ele>
        <time>2024-11-28T14:37:40Z</time>
      </trkpt>
      <trkpt lat="45.82725" lon="1.20105">
        <ele>272.2</ele>
        <time>2024-11-28T14:37:43Z</time>
      </trkpt>
      <trkpt lat="45.8273" lon="1.20091">
        <ele>272.7</ele>
        <time>2024-11-28T14:37:46Z</time>
      </trkpt>
      <trkpt lat="45.82734" lon="1.20077">
        <ele>273.2</ele>
        <time>2024-11-28T14:37:49Z</time>
      </trkpt>
      <trkpt lat="45.82738" lon="1.20063">
        <ele>273.8</ele>
        <time>2024-11-28T14:37:52Z</time>
      </trkpt>
      <trkpt lat="45.82743" lon="1.20049">
        <ele>274.3</ele>
        <time>2024-11-28T14:37:55Z</time>
      </trkpt>
      <trkpt lat="45.82747" lon="1.20035">
        <ele>274.8</ele>
        <time>2024-11-28T14:37:58Z</time>
      </trkpt>
      <trkpt lat="45.82751" lon="1.2002">
        <ele>275.3</ele>
        <time>2024-11-28T14:38:01Z</time>
      </trkpt>
      <trkpt lat="45.82755" lon="1.20005">
        <ele>275.9</ele>
        <time>2024-11-28T14:38:04Z</time>
      </trkpt>
      <trkpt lat="45.82759" lon="1.19991">
        <ele>276.4</ele>
        <time>2024-11-28T14:38:07Z</time>
      </trkpt>
      <trkpt lat="45.82764" lon="1.19977">
        <ele>276.9</ele>
        <time>2024-11-28T14:38:10Z</time>
      </trkpt>
      <trkpt lat="45.8277" lon="1.19963">
        <ele>277.4</ele>
        <time>2024-11-28T14:38:13Z</time>
      </trkpt>
      <trkpt lat="45.82775" lon="1.19948">
        <ele>278</ele>
        <time>2024-11-28T14:38:16Z</time>
      </trkpt>
      <trkpt lat="45.8278" lon="1.19935">
        <ele>278.5</ele>
        <time>2024-11-28T14:38:19Z</time>
      </trkpt>
      <trkpt lat="45.82785" lon="1.1992">
        <ele>279.1</ele>
        <time>2024-11-28T14:38:22Z</time>
      </trkpt>
      <trkpt lat="45.82789" lon="1.19905">
        <ele>279.7</ele>
        <time>2024-11-28T14:38:25Z</time>
      </trkpt>
      <trkpt lat="45.82793" lon="1.1989">
        <ele>280.2</ele>
        <time>2024-11-28T14:38:28Z</time>
      </trkpt>
      <trkpt lat="45.82799" lon="1.19876">
        <ele>280.8</ele>
        <time>2024-11-28T14:38:31Z</time>
      </trkpt>
      <trkpt lat="45.82806" lon="1.19864">
        <ele>281.3</ele>
        <time>2024-11-28T14:38:34Z</time>
      </trkpt>
      <trkpt lat="45.82814" lon="1.19854">
        <ele>282.1</ele>
        <time>2024-11-28T14:38:37Z</time>
      </trkpt>
      <trkpt lat="45.82824" lon="1.19849">
        <ele>282.6</ele>
        <time>2024-11-28T14:38:40Z</time>
      </trkpt>
      <trkpt lat="45.82834" lon="1.19848">
        <ele>283.1</ele>
        <time>2024-11-28T14:38:43Z</time>
      </trkpt>
      <trkpt lat="45.82846" lon="1.19849">
        <ele>283.7</ele>
        <time>2024-11-28T14:38:46Z</time>
      </trkpt>
      <trkpt lat="45.82857" lon="1.1985">
        <ele>284.3</ele>
        <time>2024-11-28T14:38:49Z</time>
      </trkpt>
      <trkpt lat="45.82869" lon="1.19852">
        <ele>284.7</ele>
        <time>2024-11-28T14:38:52Z</time>
      </trkpt>
      <trkpt lat="45.8288" lon="1.19853">
        <ele>285.2</ele>
        <time>2024-11-28T14:38:55Z</time>
      </trkpt>
      <trkpt lat="45.82891" lon="1.19854">
        <ele>285.7</ele>
        <time>2024-11-28T14:38:58Z</time>
      </trkpt>
      <trkpt lat="45.82903" lon="1.19855">
        <ele>286.2</ele>
        <time>2024-11-28T14:39:01Z</time>
      </trkpt>
      <trkpt lat="45.82914" lon="1.19856">
        <ele>286.7</ele>
        <time>2024-11-28T14:39:04Z</time>
      </trkpt>
      <trkpt lat="45.82924" lon="1.1986">
        <ele>287.1</ele>
        <time>2024-11-28T14:39:07Z</time>
      </trkpt>
      <trkpt lat="45.8293" lon="1.19876">
        <ele>286.2</ele>
        <time>2024-11-28T14:39:10Z</time>
      </trkpt>
      <trkpt lat="45.82933" lon="1.19899">
        <ele>285.2</ele>
        <time>2024-11-28T14:39:13Z</time>
      </trkpt>
      <trkpt lat="45.82934" lon="1.19924">
        <ele>284.2</ele>
        <time>2024-11-28T14:39:16Z</time>
      </trkpt>
      <trkpt lat="45.82937" lon="1.19952">
        <ele>283</ele>
        <time>2024-11-28T14:39:19Z</time>
      </trkpt>
      <trkpt lat="45.82939" lon="1.19983">
        <ele>281.9</ele>
        <time>2024-11-28T14:39:22Z</time>
      </trkpt>
      <trkpt lat="45.82943" lon="1.20015">
        <ele>280.8</ele>
        <time>2024-11-28T14:39:25Z</time>
      </trkpt>
      <trkpt lat="45.82945" lon="1.20047">
        <ele>279.8</ele>
        <time>2024-11-28T14:39:28Z</time>
      </trkpt>
      <trkpt lat="45.82947" lon="1.20081">
        <ele>278.9</ele>
        <time>2024-11-28T14:39:31Z</time>
      </trkpt>
      <trkpt lat="45.82951" lon="1.20115">
        <ele>278</ele>
        <time>2024-11-28T14:39:34Z</time>
      </trkpt>
      <trkpt lat="45.82957" lon="1.20148">
        <ele>277</ele>
        <time>2024-11-28T14:39:37Z</time>
      </trkpt>
      <trkpt lat="45.8297" lon="1.20179">
        <ele>275.6</ele>
        <time>2024-11-28T14:39:40Z</time>
      </trkpt>
      <trkpt lat="45.82985" lon="1.20209">
        <ele>274.1</ele>
        <time>2024-11-28T14:39:43Z</time>
      </trkpt>
      <trkpt lat="45.83006" lon="1.20231">
        <ele>272.7</ele>
        <time>2024-11-28T14:39:46Z</time>
      </trkpt>
      <trkpt lat="45.83028" lon="1.20248">
        <ele>271.4</ele>
        <time>2024-11-28T14:39:49Z</time>
      </trkpt>
      <trkpt lat="45.8304" lon="1.20259">
        <ele>270.7</ele>
        <time>2024-11-28T14:39:52Z</time>
      </trkpt>
      <trkpt lat="45.83055" lon="1.20294">
        <ele>269.4</ele>
        <time>2024-11-28T14:39:55Z</time>
      </trkpt>
      <trkpt lat="45.83051" lon="1.20328">
        <ele>268.3</ele>
        <time>2024-11-28T14:39:58Z</time>
      </trkpt>
      <trkpt lat="45.83048" lon="1.20362">
        <ele>267.7</ele>
        <time>2024-11-28T14:40:01Z</time>
      </trkpt>
      <trkpt lat="45.83051" lon="1.20395">
        <ele>267.8</ele>
        <time>2024-11-28T14:40:04Z</time>
      </trkpt>
      <trkpt lat="45.8306" lon="1.2042">
        <ele>268.4</ele>
        <time>2024-11-28T14:40:07Z</time>
      </trkpt>
      <trkpt lat="45.83068" lon="1.20444">
        <ele>269.4</ele>
        <time>2024-11-28T14:40:10Z</time>
      </trkpt>
      <trkpt lat="45.83077" lon="1.20465">
        <ele>270.3</ele>
        <time>2024-11-28T14:40:13Z</time>
      </trkpt>
      <trkpt lat="45.83084" lon="1.20486">
        <ele>271.2</ele>
        <time>2024-11-28T14:40:16Z</time>
      </trkpt>
      <trkpt lat="45.8309" lon="1.20506">
        <ele>272.1</ele>
        <time>2024-11-28T14:40:19Z</time>
      </trkpt>
      <trkpt lat="45.83094" lon="1.20526">
        <ele>273</ele>
        <time>2024-11-28T14:40:22Z</time>
      </trkpt>
      <trkpt lat="45.83097" lon="1.20545">
        <ele>273.8</ele>
        <time>2024-11-28T14:40:25Z</time>
      </trkpt>
      <trkpt lat="45.831" lon="1.20561">
        <ele>274.5</ele>
        <time>2024-11-28T14:40:28Z</time>
      </trkpt>
      <trkpt lat="45.83105" lon="1.20577">
        <ele>275</ele>
        <time>2024-11-28T14:40:31Z</time>
      </trkpt>
      <trkpt lat="45.8311" lon="1.20591">
        <ele>275.6</ele>
        <time>2024-11-28T14:40:34Z</time>
      </trkpt>
      <trkpt lat="45.83116" lon="1.20605">
        <ele>276.2</ele>
        <time>2024-11-28T14:40:37Z</time>
      </trkpt>
      <trkpt lat="45.83121" lon="1.20619">
        <ele>276.7</ele>
        <time>2024-11-28T14:40:40Z</time>
      </trkpt>
      <trkpt lat="45.83126" lon="1.20634">
        <ele>277.2</ele>
        <time>2024-11-28T14:40:43Z</time>
      </trkpt>
      <trkpt lat="45.83131" lon="1.2065">
        <ele>277.7</ele>
        <time>2024-11-28T14:40:46Z</time>
      </trkpt>
      <trkpt lat="45.83136" lon="1.20665">
        <ele>278.3</ele>
        <time>2024-11-28T14:40:49Z</time>
      </trkpt>
      <trkpt lat="45.83142" lon="1.2068">
        <ele>278.8</ele>
        <time>2024-11-28T14:40:52Z</time>
      </trkpt>
      <trkpt lat="45.83147" lon="1.20694">
        <ele>279.4</ele>
        <time>2024-11-28T14:40:55Z</time>
      </trkpt>
      <trkpt lat="45.83152" lon="1.20709">
        <ele>280</ele>
        <time>2024-11-28T14:40:58Z</time>
      </trkpt>
      <trkpt lat="45.83158" lon="1.20725">
        <ele>280.7</ele>
        <time>2024-11-28T14:41:01Z</time>
      </trkpt>
      <trkpt lat="45.83163" lon="1.20741">
        <ele>281.3</ele>
        <time>2024-11-28T14:41:04Z</time>
      </trkpt>
      <trkpt lat="45.83168" lon="1.20755">
        <ele>281.9</ele>
        <time>2024-11-28T14:41:07Z</time>
      </trkpt>
      <trkpt lat="45.83173" lon="1.20769">
        <ele>282.5</ele>
        <time>2024-11-28T14:41:10Z</time>
      </trkpt>
      <trkpt lat="45.83177" lon="1.20783">
        <ele>283.1</ele>
        <time>2024-11-28T14:41:13Z</time>
      </trkpt>
      <trkpt lat="45.83182" lon="1.20798">
        <ele>283.6</ele>
        <time>2024-11-28T14:41:16Z</time>
      </trkpt>
      <trkpt lat="45.83188" lon="1.20811">
        <ele>284.2</ele>
        <time>2024-11-28T14:41:19Z</time>
      </trkpt>
      <trkpt lat="45.83191" lon="1.20824">
        <ele>284.3</ele>
        <time>2024-11-28T14:41:22Z</time>
      </trkpt>
      <trkpt lat="45.83185" lon="1.20839">
        <ele>283.8</ele>
        <time>2024-11-28T14:41:25Z</time>
      </trkpt>
      <trkpt lat="45.83177" lon="1.2086">
        <ele>283.1</ele>
        <time>2024-11-28T14:41:28Z</time>
      </trkpt>
      <trkpt lat="45.83171" lon="1.20882">
        <ele>282.1</ele>
        <time>2024-11-28T14:41:31Z</time>
      </trkpt>
      <trkpt lat="45.83166" lon="1.20907">
        <ele>280.9</ele>
        <time>2024-11-28T14:41:34Z</time>
      </trkpt>
      <trkpt lat="45.8316" lon="1.20932">
        <ele>279.7</ele>
        <time>2024-11-28T14:41:37Z</time>
      </trkpt>
      <trkpt lat="45.83151" lon="1.20962">
        <ele>278</ele>
        <time>2024-11-28T14:41:40Z</time>
      </trkpt>
      <trkpt lat="45.83141" lon="1.20995">
        <ele>276.2</ele>
        <time>2024-11-28T14:41:43Z</time>
      </trkpt>
      <trkpt lat="45.83132" lon="1.21028">
        <ele>274.6</ele>
        <time>2024-11-28T14:41:46Z</time>
      </trkpt>
      <trkpt lat="45.83123" lon="1.2106">
        <ele>272.9</ele>
        <time>2024-11-28T14:41:49Z</time>
      </trkpt>
      <trkpt lat="45.83115" lon="1.21093">
        <ele>270.9</ele>
        <time>2024-11-28T14:41:52Z</time>
      </trkpt>
      <trkpt lat="45.83106" lon="1.21126">
        <ele>268.6</ele>
        <time>2024-11-28T14:41:55Z</time>
      </trkpt>
      <trkpt lat="45.83097" lon="1.21162">
        <ele>266.3</ele>
        <time>2024-11-28T14:41:58Z</time>
      </trkpt>
      <trkpt lat="45.83091" lon="1.21198">
        <ele>265.1</ele>
        <time>2024-11-28T14:42:01Z</time>
      </trkpt>
      <trkpt lat="45.83102" lon="1.21224">
        <ele>265.1</ele>
        <time>2024-11-28T14:42:04Z</time>
      </trkpt>
      <trkpt lat="45.83116" lon="1.2124">
        <ele>265.6</ele>
        <time>2024-11-28T14:42:07Z</time>
      </trkpt>
      <trkpt lat="45.83128" lon="1.21253">
        <ele>265.9</ele>
        <time>2024-11-28T14:42:10Z</time>
      </trkpt>
      <trkpt lat="45.83138" lon="1.21263">
        <ele>266.2</ele>
        <time>2024-11-28T14:42:13Z</time>
      </trkpt>
      <trkpt lat="45.83147" lon="1.21275">
        <ele>266.2</ele>
        <time>2024-11-28T14:42:16Z</time>
      </trkpt>
      <trkpt lat="45.83145" lon="1.21287">
        <ele>265.8</ele>
        <time>2024-11-28T14:42:19Z</time>
      </trkpt>
      <trkpt lat="45.83138" lon="1.21297">
        <ele>265.2</ele>
        <time>2024-11-28T14:42:22Z</time>
      </trkpt>
      <trkpt lat="45.83128" lon="1.21304">
        <ele>264.4</ele>
        <time>2024-11-28T14:42:25Z</time>
      </trkpt>
      <trkpt lat="45.83114" lon="1.21301">
        <ele>263.8</ele>
        <time>2024-11-28T14:42:28Z</time>
      </trkpt>
      <trkpt lat="45.83103" lon="1.2132">
        <ele>262.7</ele>
        <time>2024-11-28T14:42:31Z</time>
      </trkpt>
      <trkpt lat="45.83099" lon="1.21349">
        <ele>261.1</ele>
        <time>2024-11-28T14:42:34Z</time>
      </trkpt>
      <trkpt lat="45.83102" lon="1.21378">
        <ele>260.6</ele>
        <time>2024-11-28T14:42:37Z</time>
      </trkpt>
      <trkpt lat="45.83106" lon="1.21398">
        <ele>259.3</ele>
        <time>2024-11-28T14:42:40Z</time>
      </trkpt>
      <trkpt lat="45.83113" lon="1.2141">
        <ele>258</ele>
        <time>2024-11-28T14:42:43Z</time>
      </trkpt>
      <trkpt lat="45.83117" lon="1.21422">
        <ele>256.7</ele>
        <time>2024-11-28T14:42:46Z</time>
      </trkpt>
      <trkpt lat="45.83127" lon="1.21439">
        <ele>254.3</ele>
        <time>2024-11-28T14:42:49Z</time>
      </trkpt>
      <trkpt lat="45.83139" lon="1.2145">
        <ele>252.3</ele>
        <time>2024-11-28T14:42:52Z</time>
      </trkpt>
      <trkpt lat="45.83147" lon="1.21454">
        <ele>251.3</ele>
        <time>2024-11-28T14:42:55Z</time>
      </trkpt>
      <trkpt lat="45.83149" lon="1.21456">
        <ele>251</ele>
        <time>2024-11-28T14:42:58Z</time>
      </trkpt>
      <trkpt lat="45.83149" lon="1.21456">
        <ele>251</ele>
        <time>2024-11-28T14:43:01Z</time>
      </trkpt>
      <trkpt lat="45.83149" lon="1.21456">
        <ele>250.9</ele>
        <time>2024-11-28T14:43:04Z</time>
      </trkpt>
      <trkpt lat="45.83148" lon="1.21456">
        <ele>250.8</ele>
        <time>2024-11-28T14:43:07Z</time>
      </trkpt>
      <trkpt lat="45.83148" lon="1.21456">
        <ele>250.8</ele>
        <time>2024-11-28T14:43:10Z</time>
      </trkpt>
      <trkpt lat="45.83148" lon="1.21457">
        <ele>250.7</ele>
        <time>2024-11-28T14:43:13Z</time>
      </trkpt>
      <trkpt lat="45.83148" lon="1.21457">
        <ele>250.7</ele>
        <time>2024-11-28T14:43:16Z</time>
      </trkpt>
      <trkpt lat="45.83148" lon="1.21457">
        <ele>250.7</ele>
        <time>2024-11-28T14:43:19Z</time>
      </trkpt>
      <trkpt lat="45.83148" lon="1.21457">
        <ele>250.7</ele>
        <time>2024-11-28T14:43:22Z</time>
      </trkpt>
      <trkpt lat="45.83148" lon="1.21457">
        <ele>250.7</ele>
        <time>2024-11-28T14:43:25Z</time>
      </trkpt>
      <trkpt lat="45.83148" lon="1.21457">
        <ele>250.7</ele>
        <time>2024-11-28T14:43:28Z</time>
      </trkpt>
      <trkpt lat="45.83149" lon="1.21456">
        <ele>250.5</ele>
        <time>2024-11-28T14:43:31Z</time>
      </trkpt>
      <trkpt lat="45.83149" lon="1.21455">
        <ele>250.4</ele>
        <time>2024-11-28T14:43:34Z</time>
      </trkpt>
      <trkpt lat="45.83148" lon="1.21455">
        <ele>250.2</ele>
        <time>2024-11-28T14:43:37Z</time>
      </trkpt>
      <trkpt lat="45.83148" lon="1.21455">
        <ele>250.2</ele>
        <time>2024-11-28T14:43:40Z</time>
      </trkpt>
      <trkpt lat="45.83149" lon="1.21456">
        <ele>250.1</ele>
        <time>2024-11-28T14:43:43Z</time>
      </trkpt>
      <trkpt lat="45.8315" lon="1.21455">
        <ele>250</ele>
        <time>2024-11-28T14:43:46Z</time>
      </trkpt>
      <trkpt lat="45.8315" lon="1.21455">
        <ele>250</ele>
        <time>2024-11-28T14:43:49Z</time>
      </trkpt>
      <trkpt lat="45.8315" lon="1.21455">
        <ele>250</ele>
        <time>2024-11-28T14:43:52Z</time>
      </trkpt>
      <trkpt lat="45.8315" lon="1.21455">
        <ele>250</ele>
        <time>2024-11-28T14:43:55Z</time>
      </trkpt>
      <trkpt lat="45.8315" lon="1.21455">
        <ele>250</ele>
        <time>2024-11-28T14:43:58Z</time>
      </trkpt>
      <trkpt lat="45.83151" lon="1.21457">
        <ele>249.8</ele>
        <time>2024-11-28T14:44:01Z</time>
      </trkpt>
      <trkpt lat="45.83151" lon="1.21457">
        <ele>249.8</ele>
        <time>2024-11-28T14:44:04Z</time>
      </trkpt>
      <trkpt lat="45.83151" lon="1.21456">
        <ele>249.7</ele>
        <time>2024-11-28T14:44:07Z</time>
      </trkpt>
      <trkpt lat="45.83152" lon="1.21456">
        <ele>249.6</ele>
        <time>2024-11-28T14:44:10Z</time>
      </trkpt>
      <trkpt lat="45.83153" lon="1.21456">
        <ele>249.6</ele>
        <time>2024-11-28T14:44:13Z</time>
      </trkpt>
      <trkpt lat="45.83153" lon="1.21456">
        <ele>249.6</ele>
        <time>2024-11-28T14:44:16Z</time>
      </trkpt>
      <trkpt lat="45.83153" lon="1.21456">
        <ele>249.5</ele>
        <time>2024-11-28T14:44:19Z</time>
      </trkpt>
      <trkpt lat="45.83153" lon="1.21455">
        <ele>249.5</ele>
        <time>2024-11-28T14:44:22Z</time>
      </trkpt>
      <trkpt lat="45.83155" lon="1.21457">
        <ele>249.3</ele>
        <time>2024-11-28T14:44:25Z</time>
      </trkpt>
      <trkpt lat="45.8316" lon="1.21461">
        <ele>248.8</ele>
        <time>2024-11-28T14:44:28Z</time>
      </trkpt>
      <trkpt lat="45.83164" lon="1.21471">
        <ele>248.5</ele>
        <time>2024-11-28T14:44:31Z</time>
      </trkpt>
      <trkpt lat="45.83167" lon="1.21471">
        <ele>248.4</ele>
        <time>2024-11-28T14:44:34Z</time>
      </trkpt>
      <trkpt lat="45.83175" lon="1.21469">
        <ele>248.3</ele>
        <time>2024-11-28T14:44:37Z</time>
      </trkpt>
      <trkpt lat="45.83188" lon="1.21473">
        <ele>248.4</ele>
        <time>2024-11-28T14:44:40Z</time>
      </trkpt>
      <trkpt lat="45.83202" lon="1.21476">
        <ele>248.5</ele>
        <time>2024-11-28T14:44:43Z</time>
      </trkpt>
      <trkpt lat="45.83217" lon="1.21486">
        <ele>248.3</ele>
        <time>2024-11-28T14:44:46Z</time>
      </trkpt>
      <trkpt lat="45.83231" lon="1.21497">
        <ele>248</ele>
        <time>2024-11-28T14:44:49Z</time>
      </trkpt>
      <trkpt lat="45.83246" lon="1.21508">
        <ele>247.5</ele>
        <time>2024-11-28T14:44:52Z</time>
      </trkpt>
      <trkpt lat="45.83258" lon="1.21523">
        <ele>246.9</ele>
        <time>2024-11-28T14:44:55Z</time>
      </trkpt>
      <trkpt lat="45.83266" lon="1.21546">
        <ele>246.4</ele>
        <time>2024-11-28T14:44:58Z</time>
      </trkpt>
      <trkpt lat="45.83271" lon="1.21575">
        <ele>246.1</ele>
        <time>2024-11-28T14:45:01Z</time>
      </trkpt>
      <trkpt lat="45.83266" lon="1.216">
        <ele>245.8</ele>
        <time>2024-11-28T14:45:04Z</time>
      </trkpt>
      <trkpt lat="45.83259" lon="1.21624">
        <ele>245.6</ele>
        <time>2024-11-28T14:45:07Z</time>
      </trkpt>
      <trkpt lat="45.8325" lon="1.2165">
        <ele>245.4</ele>
        <time>2024-11-28T14:45:10Z</time>
      </trkpt>
      <trkpt lat="45.83238" lon="1.21672">
        <ele>245.5</ele>
        <time>2024-11-28T14:45:13Z</time>
      </trkpt>
      <trkpt lat="45.83228" lon="1.21689">
        <ele>245.6</ele>
        <time>2024-11-28T14:45:16Z</time>
      </trkpt>
      <trkpt lat="45.83219" lon="1.21701">
        <ele>245.7</ele>
        <time>2024-11-28T14:45:19Z</time>
      </trkpt>
      <trkpt lat="45.83214" lon="1.21712">
        <ele>245.7</ele>
        <time>2024-11-28T14:45:22Z</time>
      </trkpt>
      <trkpt lat="45.83207" lon="1.21719">
        <ele>245.7</ele>
        <time>2024-11-28T14:45:25Z</time>
      </trkpt>
      <trkpt lat="45.832" lon="1.2173">
        <ele>245.6</ele>
        <time>2024-11-28T14:45:28Z</time>
      </trkpt>
      <trkpt lat="45.83189" lon="1.21748">
        <ele>245.5</ele>
        <time>2024-11-28T14:45:31Z</time>
      </trkpt>
      <trkpt lat="45.83174" lon="1.21759">
        <ele>245.6</ele>
        <time>2024-11-28T14:45:34Z</time>
      </trkpt>
      <trkpt lat="45.83158" lon="1.21766">
        <ele>245.7</ele>
        <time>2024-11-28T14:45:37Z</time>
      </trkpt>
      <trkpt lat="45.83147" lon="1.21777">
        <ele>246</ele>
        <time>2024-11-28T14:45:40Z</time>
      </trkpt>
      <trkpt lat="45.83135" lon="1.21786">
        <ele>246.7</ele>
        <time>2024-11-28T14:45:43Z</time>
      </trkpt>
      <trkpt lat="45.83129" lon="1.21789">
        <ele>247</ele>
        <time>2024-11-28T14:45:46Z</time>
      </trkpt>
      <trkpt lat="45.83127" lon="1.21792">
        <ele>247.2</ele>
        <time>2024-11-28T14:45:49Z</time>
      </trkpt>
      <trkpt lat="45.83123" lon="1.21799">
        <ele>247.3</ele>
        <time>2024-11-28T14:45:52Z</time>
      </trkpt>
      <trkpt lat="45.83122" lon="1.21818">
        <ele>247.6</ele>
        <time>2024-11-28T14:45:55Z</time>
      </trkpt>
      <trkpt lat="45.83126" lon="1.21836">
        <ele>248</ele>
        <time>2024-11-28T14:45:58Z</time>
      </trkpt>
      <trkpt lat="45.83135" lon="1.21854">
        <ele>248.3</ele>
        <time>2024-11-28T14:46:01Z</time>
      </trkpt>
      <trkpt lat="45.83147" lon="1.21868">
        <ele>249.1</ele>
        <time>2024-11-28T14:46:04Z</time>
      </trkpt>
      <trkpt lat="45.83157" lon="1.21878">
        <ele>250</ele>
        <time>2024-11-28T14:46:07Z</time>
      </trkpt>
      <trkpt lat="45.83165" lon="1.21886">
        <ele>250.3</ele>
        <time>2024-11-28T14:46:10Z</time>
      </trkpt>
      <trkpt lat="45.83174" lon="1.21895">
        <ele>251.2</ele>
        <time>2024-11-28T14:46:13Z</time>
      </trkpt>
      <trkpt lat="45.83179" lon="1.219">
        <ele>251.9</ele>
        <time>2024-11-28T14:46:16Z</time>
      </trkpt>
      <trkpt lat="45.83186" lon="1.2191">
        <ele>252.8</ele>
        <time>2024-11-28T14:46:19Z</time>
      </trkpt>
      <trkpt lat="45.83194" lon="1.2192">
        <ele>253.7</ele>
        <time>2024-11-28T14:46:22Z</time>
      </trkpt>
      <trkpt lat="45.83196" lon="1.21932">
        <ele>253.6</ele>
        <time>2024-11-28T14:46:25Z</time>
      </trkpt>
      <trkpt lat="45.83193" lon="1.21944">
        <ele>254</ele>
        <time>2024-11-28T14:46:28Z</time>
      </trkpt>
      <trkpt lat="45.83187" lon="1.21959">
        <ele>254.6</ele>
        <time>2024-11-28T14:46:31Z</time>
      </trkpt>
      <trkpt lat="45.83182" lon="1.21975">
        <ele>255.3</ele>
        <time>2024-11-28T14:46:34Z</time>
      </trkpt>
      <trkpt lat="45.83178" lon="1.2199">
        <ele>255.9</ele>
        <time>2024-11-28T14:46:37Z</time>
      </trkpt>
      <trkpt lat="45.83174" lon="1.22005">
        <ele>256.4</ele>
        <time>2024-11-28T14:46:40Z</time>
      </trkpt>
      <trkpt lat="45.83169" lon="1.2202">
        <ele>256.9</ele>
        <time>2024-11-28T14:46:43Z</time>
      </trkpt>
      <trkpt lat="45.83166" lon="1.22033">
        <ele>257.1</ele>
        <time>2024-11-28T14:46:46Z</time>
      </trkpt>
      <trkpt lat="45.83173" lon="1.22043">
        <ele>257.7</ele>
        <time>2024-11-28T14:46:49Z</time>
      </trkpt>
      <trkpt lat="45.83184" lon="1.22049">
        <ele>258.2</ele>
        <time>2024-11-28T14:46:52Z</time>
      </trkpt>
      <trkpt lat="45.83194" lon="1.22055">
        <ele>258.6</ele>
        <time>2024-11-28T14:46:55Z</time>
      </trkpt>
      <trkpt lat="45.83204" lon="1.22064">
        <ele>259.1</ele>
        <time>2024-11-28T14:46:58Z</time>
      </trkpt>
      <trkpt lat="45.83211" lon="1.22078">
        <ele>259.5</ele>
        <time>2024-11-28T14:47:01Z</time>
      </trkpt>
      <trkpt lat="45.83215" lon="1.22091">
        <ele>259.9</ele>
        <time>2024-11-28T14:47:04Z</time>
      </trkpt>
      <trkpt lat="45.8322" lon="1.22105">
        <ele>260.1</ele>
        <time>2024-11-28T14:47:07Z</time>
      </trkpt>
      <trkpt lat="45.83224" lon="1.22119">
        <ele>260.4</ele>
        <time>2024-11-28T14:47:10Z</time>
      </trkpt>
      <trkpt lat="45.83227" lon="1.22132">
        <ele>260.7</ele>
        <time>2024-11-28T14:47:13Z</time>
      </trkpt>
      <trkpt lat="45.83232" lon="1.22145">
        <ele>261</ele>
        <time>2024-11-28T14:47:16Z</time>
      </trkpt>
      <trkpt lat="45.83236" lon="1.22156">
        <ele>261.2</ele>
        <time>2024-11-28T14:47:19Z</time>
      </trkpt>
      <trkpt lat="45.83241" lon="1.22161">
        <ele>261.4</ele>
        <time>2024-11-28T14:47:22Z</time>
      </trkpt>
      <trkpt lat="45.83244" lon="1.22163">
        <ele>261.5</ele>
        <time>2024-11-28T14:47:25Z</time>
      </trkpt>
      <trkpt lat="45.8325" lon="1.22166">
        <ele>261.7</ele>
        <time>2024-11-28T14:47:28Z</time>
      </trkpt>
      <trkpt lat="45.83258" lon="1.22169">
        <ele>262</ele>
        <time>2024-11-28T14:47:31Z</time>
      </trkpt>
      <trkpt lat="45.83267" lon="1.2217">
        <ele>262.2</ele>
        <time>2024-11-28T14:47:34Z</time>
      </trkpt>
      <trkpt lat="45.83277" lon="1.22171">
        <ele>262.6</ele>
        <time>2024-11-28T14:47:37Z</time>
      </trkpt>
      <trkpt lat="45.8329" lon="1.22173">
        <ele>262.3</ele>
        <time>2024-11-28T14:47:40Z</time>
      </trkpt>
      <trkpt lat="45.833" lon="1.22174">
        <ele>261.8</ele>
        <time>2024-11-28T14:47:43Z</time>
      </trkpt>
      <trkpt lat="45.83311" lon="1.22171">
        <ele>261.3</ele>
        <time>2024-11-28T14:47:46Z</time>
      </trkpt>
      <trkpt lat="45.83324" lon="1.22176">
        <ele>260.9</ele>
        <time>2024-11-28T14:47:49Z</time>
      </trkpt>
      <trkpt lat="45.83332" lon="1.22188">
        <ele>260.4</ele>
        <time>2024-11-28T14:47:52Z</time>
      </trkpt>
      <trkpt lat="45.83332" lon="1.22198">
        <ele>260.4</ele>
        <time>2024-11-28T14:47:55Z</time>
      </trkpt>
      <trkpt lat="45.83323" lon="1.22203">
        <ele>261.1</ele>
        <time>2024-11-28T14:47:58Z</time>
      </trkpt>
      <trkpt lat="45.83312" lon="1.22209">
        <ele>261.8</ele>
        <time>2024-11-28T14:48:01Z</time>
      </trkpt>
      <trkpt lat="45.83299" lon="1.22211">
        <ele>262.2</ele>
        <time>2024-11-28T14:48:04Z</time>
      </trkpt>
      <trkpt lat="45.83289" lon="1.22213">
        <ele>262.4</ele>
        <time>2024-11-28T14:48:07Z</time>
      </trkpt>
      <trkpt lat="45.83278" lon="1.22215">
        <ele>262.7</ele>
        <time>2024-11-28T14:48:10Z</time>
      </trkpt>
      <trkpt lat="45.8327" lon="1.2222">
        <ele>262.9</ele>
        <time>2024-11-28T14:48:13Z</time>
      </trkpt>
      <trkpt lat="45.83271" lon="1.22235">
        <ele>263.6</ele>
        <time>2024-11-28T14:48:16Z</time>
      </trkpt>
      <trkpt lat="45.83271" lon="1.22249">
        <ele>264.2</ele>
        <time>2024-11-28T14:48:19Z</time>
      </trkpt>
      <trkpt lat="45.8327" lon="1.22269">
        <ele>265.1</ele>
        <time>2024-11-28T14:48:22Z</time>
      </trkpt>
      <trkpt lat="45.83272" lon="1.22288">
        <ele>266</ele>
        <time>2024-11-28T14:48:25Z</time>
      </trkpt>
      <trkpt lat="45.83273" lon="1.22303">
        <ele>266.8</ele>
        <time>2024-11-28T14:48:28Z</time>
      </trkpt>
      <trkpt lat="45.83273" lon="1.22324">
        <ele>267.8</ele>
        <time>2024-11-28T14:48:31Z</time>
      </trkpt>
      <trkpt lat="45.83275" lon="1.22339">
        <ele>268.6</ele>
        <time>2024-11-28T14:48:34Z</time>
      </trkpt>
      <trkpt lat="45.83276" lon="1.22357">
        <ele>269.8</ele>
        <time>2024-11-28T14:48:37Z</time>
      </trkpt>
      <trkpt lat="45.8328" lon="1.22368">
        <ele>270.6</ele>
        <time>2024-11-28T14:48:40Z</time>
      </trkpt>
      <trkpt lat="45.83287" lon="1.22376">
        <ele>270.4</ele>
        <time>2024-11-28T14:48:43Z</time>
      </trkpt>
      <trkpt lat="45.83299" lon="1.22379">
        <ele>269.9</ele>
        <time>2024-11-28T14:48:46Z</time>
      </trkpt>
      <trkpt lat="45.83313" lon="1.22381">
        <ele>269.2</ele>
        <time>2024-11-28T14:48:49Z</time>
      </trkpt>
      <trkpt lat="45.83324" lon="1.22385">
        <ele>268.7</ele>
        <time>2024-11-28T14:48:52Z</time>
      </trkpt>
      <trkpt lat="45.83336" lon="1.22389">
        <ele>268.4</ele>
        <time>2024-11-28T14:48:55Z</time>
      </trkpt>
      <trkpt lat="45.83346" lon="1.22391">
        <ele>268.2</ele>
        <time>2024-11-28T14:48:58Z</time>
      </trkpt>
      <trkpt lat="45.83349" lon="1.22391">
        <ele>268.2</ele>
        <time>2024-11-28T14:49:01Z</time>
      </trkpt>
      <trkpt lat="45.83356" lon="1.22397">
        <ele>268.4</ele>
        <time>2024-11-28T14:49:04Z</time>
      </trkpt>
      <trkpt lat="45.83361" lon="1.22414">
        <ele>269</ele>
        <time>2024-11-28T14:49:07Z</time>
      </trkpt>
      <trkpt lat="45.8337" lon="1.22416">
        <ele>269.5</ele>
        <time>2024-11-28T14:49:10Z</time>
      </trkpt>
      <trkpt lat="45.83382" lon="1.22415">
        <ele>270.2</ele>
        <time>2024-11-28T14:49:13Z</time>
      </trkpt>
      <trkpt lat="45.83393" lon="1.22424">
        <ele>271.2</ele>
        <time>2024-11-28T14:49:16Z</time>
      </trkpt>
      <trkpt lat="45.83398" lon="1.2244">
        <ele>271.4</ele>
        <time>2024-11-28T14:49:19Z</time>
      </trkpt>
      <trkpt lat="45.83402" lon="1.2246">
        <ele>271.7</ele>
        <time>2024-11-28T14:49:22Z</time>
      </trkpt>
      <trkpt lat="45.8341" lon="1.22478">
        <ele>272.1</ele>
        <time>2024-11-28T14:49:25Z</time>
      </trkpt>
      <trkpt lat="45.83417" lon="1.22491">
        <ele>272.3</ele>
        <time>2024-11-28T14:49:28Z</time>
      </trkpt>
      <trkpt lat="45.83422" lon="1.22508">
        <ele>272.6</ele>
        <time>2024-11-28T14:49:31Z</time>
      </trkpt>
      <trkpt lat="45.83427" lon="1.22523">
        <ele>272.5</ele>
        <time>2024-11-28T14:49:34Z</time>
      </trkpt>
      <trkpt lat="45.83432" lon="1.22533">
        <ele>272.4</ele>
        <time>2024-11-28T14:49:37Z</time>
      </trkpt>
      <trkpt lat="45.83438" lon="1.22545">
        <ele>272</ele>
        <time>2024-11-28T14:49:40Z</time>
      </trkpt>
      <trkpt lat="45.83442" lon="1.22554">
        <ele>271.7</ele>
        <time>2024-11-28T14:49:43Z</time>
      </trkpt>
      <trkpt lat="45.83442" lon="1.22557">
        <ele>271.6</ele>
        <time>2024-11-28T14:49:46Z</time>
      </trkpt>
      <trkpt lat="45.83445" lon="1.22564">
        <ele>271.5</ele>
        <time>2024-11-28T14:49:49Z</time>
      </trkpt>
      <trkpt lat="45.83452" lon="1.22574">
        <ele>271.2</ele>
        <time>2024-11-28T14:49:52Z</time>
      </trkpt>
      <trkpt lat="45.83461" lon="1.22574">
        <ele>271.2</ele>
        <time>2024-11-28T14:49:55Z</time>
      </trkpt>
      <trkpt lat="45.8347" lon="1.22573">
        <ele>270.7</ele>
        <time>2024-11-28T14:49:58Z</time>
      </trkpt>
      <trkpt lat="45.8348" lon="1.22558">
        <ele>270.4</ele>
        <time>2024-11-28T14:50:01Z</time>
      </trkpt>
      <trkpt lat="45.83492" lon="1.2255">
        <ele>270.4</ele>
        <time>2024-11-28T14:50:04Z</time>
      </trkpt>
      <trkpt lat="45.83506" lon="1.22549">
        <ele>270.5</ele>
        <time>2024-11-28T14:50:07Z</time>
      </trkpt>
      <trkpt lat="45.8352" lon="1.22549">
        <ele>270.5</ele>
        <time>2024-11-28T14:50:10Z</time>
      </trkpt>
      <trkpt lat="45.83526" lon="1.22544">
        <ele>270.5</ele>
        <time>2024-11-28T14:50:13Z</time>
      </trkpt>
      <trkpt lat="45.83525" lon="1.22541">
        <ele>270.5</ele>
        <time>2024-11-28T14:50:16Z</time>
      </trkpt>
      <trkpt lat="45.83525" lon="1.22542">
        <ele>270.5</ele>
        <time>2024-11-28T14:50:19Z</time>
      </trkpt>
      <trkpt lat="45.8352" lon="1.22543">
        <ele>270.5</ele>
        <time>2024-11-28T14:50:22Z</time>
      </trkpt>
      <trkpt lat="45.83518" lon="1.22544">
        <ele>270.5</ele>
        <time>2024-11-28T14:50:25Z</time>
      </trkpt>
      <trkpt lat="45.83517" lon="1.22544">
        <ele>270.5</ele>
        <time>2024-11-28T14:50:28Z</time>
      </trkpt>
      <trkpt lat="45.83517" lon="1.22544">
        <ele>270.5</ele>
        <time>2024-11-28T14:50:31Z</time>
      </trkpt>
      <trkpt lat="45.83517" lon="1.22545">
        <ele>270.6</ele>
        <time>2024-11-28T14:50:34Z</time>
      </trkpt>
      <trkpt lat="45.83516" lon="1.22546">
        <ele>270.6</ele>
        <time>2024-11-28T14:50:37Z</time>
      </trkpt>
      <trkpt lat="45.83517" lon="1.22547">
        <ele>270.6</ele>
        <time>2024-11-28T14:50:40Z</time>
      </trkpt>
      <trkpt lat="45.83518" lon="1.22545">
        <ele>270.6</ele>
        <time>2024-11-28T14:50:43Z</time>
      </trkpt>
      <trkpt lat="45.83517" lon="1.22547">
        <ele>270.6</ele>
        <time>2024-11-28T14:50:46Z</time>
      </trkpt>
      <trkpt lat="45.83518" lon="1.22549">
        <ele>270.6</ele>
        <time>2024-11-28T14:50:49Z</time>
      </trkpt>
      <trkpt lat="45.83518" lon="1.2255">
        <ele>270.6</ele>
        <time>2024-11-28T14:50:52Z</time>
      </trkpt>
      <trkpt lat="45.83518" lon="1.2255">
        <ele>270.6</ele>
        <time>2024-11-28T14:50:55Z</time>
      </trkpt>
      <trkpt lat="45.83518" lon="1.2255">
        <ele>270.6</ele>
        <time>2024-11-28T14:50:58Z</time>
      </trkpt>
      <trkpt lat="45.83518" lon="1.2255">
        <ele>270.6</ele>
        <time>2024-11-28T14:51:01Z</time>
      </trkpt>
      <trkpt lat="45.83518" lon="1.2255">
        <ele>270.6</ele>
        <time>2024-11-28T14:51:04Z</time>
      </trkpt>
      <trkpt lat="45.83518" lon="1.2255">
        <ele>270.6</ele>
        <time>2024-11-28T14:51:07Z</time>
      </trkpt>
      <trkpt lat="45.83518" lon="1.2255">
        <ele>270.6</ele>
        <time>2024-11-28T14:51:10Z</time>
      </trkpt>
      <trkpt lat="45.83518" lon="1.2255">
        <ele>270.6</ele>
        <time>2024-11-28T14:51:13Z</time>
      </trkpt>
      <trkpt lat="45.83518" lon="1.2255">
        <ele>270.6</ele>
        <time>2024-11-28T14:51:16Z</time>
      </trkpt>
      <trkpt lat="45.83518" lon="1.2255">
        <ele>270.6</ele>
        <time>2024-11-28T14:51:19Z</time>
      </trkpt>
      <trkpt lat="45.83518" lon="1.2255">
        <ele>270.6</ele>
        <time>2024-11-28T14:51:22Z</time>
      </trkpt>
      <trkpt lat="45.83518" lon="1.2255">
        <ele>270.6</ele>
        <time>2024-11-28T14:51:25Z</time>
      </trkpt>
      <trkpt lat="45.83518" lon="1.22548">
        <ele>270.6</ele>
        <time>2024-11-28T14:51:28Z</time>
      </trkpt>
      <trkpt lat="45.83518" lon="1.22548">
        <ele>270.6</ele>
        <time>2024-11-28T14:51:31Z</time>
      </trkpt>
      <trkpt lat="45.83518" lon="1.22548">
        <ele>270.6</ele>
        <time>2024-11-28T14:51:34Z</time>
      </trkpt>
      <trkpt lat="45.83518" lon="1.22548">
        <ele>270.6</ele>
        <time>2024-11-28T14:51:37Z</time>
      </trkpt>
      <trkpt lat="45.83518" lon="1.22548">
        <ele>270.6</ele>
        <time>2024-11-28T14:51:39Z</time>
      </trkpt>
    </trkseg>
  </trk>
</gpx>